<?xml version="1.0" encoding="UTF-8" standalone="no" ?>
<gpx xmlns="http://www.topografix.com/GPX/1/1" xmlns:xsi="http://www.w3.org/2001/XMLSchema-instance" xsi:schemaLocation="http://www.topografix.com/GPX/1/1 http://www.topografix.com/GPX/1/1/gpx.xsd" version="1.1" creator="VisuGPX - https://www.visugpx.com">
  <metadata>
    <name>Col de l\'Arc et retour par Champanier</name>
    <desc><![CDATA[Sortie du 1er juin 2015, avec Bus jusqu\'à Lans en Vercors.]]></desc>
  </metadata>
  <trk>
    <name><![CDATA[GARMIN LOG Mon Jun  1 11:01:32 2015]]></name>
    <trkseg>
      <trkpt lat="45.12931" lon="5.58452">
        <ele>1011</ele>
        <time>2015-06-01T09:01:32Z</time>
      </trkpt>
      <trkpt lat="45.1293" lon="5.58454">
        <ele>1011</ele>
        <time>2015-06-01T09:01:41Z</time>
      </trkpt>
      <trkpt lat="45.1293" lon="5.58462">
        <ele>1011</ele>
        <time>2015-06-01T09:01:45Z</time>
      </trkpt>
      <trkpt lat="45.12934" lon="5.58478">
        <ele>1011</ele>
        <time>2015-06-01T09:01:49Z</time>
      </trkpt>
      <trkpt lat="45.12913" lon="5.58559">
        <ele>1012</ele>
        <time>2015-06-01T09:02:04Z</time>
      </trkpt>
      <trkpt lat="45.1287" lon="5.58707">
        <ele>1015</ele>
        <time>2015-06-01T09:02:30Z</time>
      </trkpt>
      <trkpt lat="45.12868" lon="5.58718">
        <ele>1015</ele>
        <time>2015-06-01T09:02:32Z</time>
      </trkpt>
      <trkpt lat="45.12843" lon="5.58802">
        <ele>1013</ele>
        <time>2015-06-01T09:02:47Z</time>
      </trkpt>
      <trkpt lat="45.12818" lon="5.58896">
        <ele>1017</ele>
        <time>2015-06-01T09:03:04Z</time>
      </trkpt>
      <trkpt lat="45.12815" lon="5.58942">
        <ele>1018</ele>
        <time>2015-06-01T09:03:12Z</time>
      </trkpt>
      <trkpt lat="45.12811" lon="5.58955">
        <ele>1019</ele>
        <time>2015-06-01T09:03:19Z</time>
      </trkpt>
      <trkpt lat="45.12796" lon="5.5904">
        <ele>1020</ele>
        <time>2015-06-01T09:03:37Z</time>
      </trkpt>
      <trkpt lat="45.12777" lon="5.59111">
        <ele>1020</ele>
        <time>2015-06-01T09:03:51Z</time>
      </trkpt>
      <trkpt lat="45.12748" lon="5.59232">
        <ele>1023</ele>
        <time>2015-06-01T09:04:14Z</time>
      </trkpt>
      <trkpt lat="45.12716" lon="5.59345">
        <ele>1025</ele>
        <time>2015-06-01T09:04:35Z</time>
      </trkpt>
      <trkpt lat="45.12682" lon="5.59461">
        <ele>1026</ele>
        <time>2015-06-01T09:04:57Z</time>
      </trkpt>
      <trkpt lat="45.12642" lon="5.59566">
        <ele>1030</ele>
        <time>2015-06-01T09:05:18Z</time>
      </trkpt>
      <trkpt lat="45.12634" lon="5.5964">
        <ele>1032</ele>
        <time>2015-06-01T09:05:32Z</time>
      </trkpt>
      <trkpt lat="45.12628" lon="5.59713">
        <ele>1036</ele>
        <time>2015-06-01T09:05:47Z</time>
      </trkpt>
      <trkpt lat="45.12626" lon="5.59791">
        <ele>1040</ele>
        <time>2015-06-01T09:06:03Z</time>
      </trkpt>
      <trkpt lat="45.1266" lon="5.59866">
        <ele>1043</ele>
        <time>2015-06-01T09:06:21Z</time>
      </trkpt>
      <trkpt lat="45.12686" lon="5.59886">
        <ele>1038</ele>
        <time>2015-06-01T09:06:30Z</time>
      </trkpt>
      <trkpt lat="45.12717" lon="5.59906">
        <ele>1038</ele>
        <time>2015-06-01T09:06:40Z</time>
      </trkpt>
      <trkpt lat="45.12719" lon="5.59926">
        <ele>1040</ele>
        <time>2015-06-01T09:06:46Z</time>
      </trkpt>
      <trkpt lat="45.12696" lon="5.59969">
        <ele>1042</ele>
        <time>2015-06-01T09:07:01Z</time>
      </trkpt>
      <trkpt lat="45.12677" lon="5.60009">
        <ele>1048</ele>
        <time>2015-06-01T09:07:15Z</time>
      </trkpt>
      <trkpt lat="45.12655" lon="5.60047">
        <ele>1058</ele>
        <time>2015-06-01T09:07:30Z</time>
      </trkpt>
      <trkpt lat="45.12635" lon="5.60076">
        <ele>1061</ele>
        <time>2015-06-01T09:07:43Z</time>
      </trkpt>
      <trkpt lat="45.12613" lon="5.60108">
        <ele>1073</ele>
        <time>2015-06-01T09:07:57Z</time>
      </trkpt>
      <trkpt lat="45.12592" lon="5.6014">
        <ele>1074</ele>
        <time>2015-06-01T09:08:11Z</time>
      </trkpt>
      <trkpt lat="45.12571" lon="5.60172">
        <ele>1081</ele>
        <time>2015-06-01T09:08:25Z</time>
      </trkpt>
      <trkpt lat="45.1255" lon="5.60201">
        <ele>1089</ele>
        <time>2015-06-01T09:08:38Z</time>
      </trkpt>
      <trkpt lat="45.12529" lon="5.60231">
        <ele>1090</ele>
        <time>2015-06-01T09:08:51Z</time>
      </trkpt>
      <trkpt lat="45.12504" lon="5.60265">
        <ele>1098</ele>
        <time>2015-06-01T09:09:06Z</time>
      </trkpt>
      <trkpt lat="45.1247" lon="5.60292">
        <ele>1100</ele>
        <time>2015-06-01T09:09:22Z</time>
      </trkpt>
      <trkpt lat="45.1244" lon="5.60287">
        <ele>1100</ele>
        <time>2015-06-01T09:09:35Z</time>
      </trkpt>
      <trkpt lat="45.12412" lon="5.60277">
        <ele>1104</ele>
        <time>2015-06-01T09:09:48Z</time>
      </trkpt>
      <trkpt lat="45.12386" lon="5.60267">
        <ele>1106</ele>
        <time>2015-06-01T09:10:00Z</time>
      </trkpt>
      <trkpt lat="45.12365" lon="5.60268">
        <ele>1109</ele>
        <time>2015-06-01T09:10:11Z</time>
      </trkpt>
      <trkpt lat="45.12331" lon="5.60289">
        <ele>1119</ele>
        <time>2015-06-01T09:10:26Z</time>
      </trkpt>
      <trkpt lat="45.12305" lon="5.60323">
        <ele>1117</ele>
        <time>2015-06-01T09:10:42Z</time>
      </trkpt>
      <trkpt lat="45.12282" lon="5.60352">
        <ele>1112</ele>
        <time>2015-06-01T09:10:56Z</time>
      </trkpt>
      <trkpt lat="45.1226" lon="5.6037">
        <ele>1112</ele>
        <time>2015-06-01T09:11:08Z</time>
      </trkpt>
      <trkpt lat="45.1223" lon="5.60379">
        <ele>1114</ele>
        <time>2015-06-01T09:11:22Z</time>
      </trkpt>
      <trkpt lat="45.122" lon="5.60377">
        <ele>1115</ele>
        <time>2015-06-01T09:11:34Z</time>
      </trkpt>
      <trkpt lat="45.12163" lon="5.60368">
        <ele>1119</ele>
        <time>2015-06-01T09:11:50Z</time>
      </trkpt>
      <trkpt lat="45.12121" lon="5.60338">
        <ele>1119</ele>
        <time>2015-06-01T09:12:08Z</time>
      </trkpt>
      <trkpt lat="45.12085" lon="5.60309">
        <ele>1128</ele>
        <time>2015-06-01T09:12:25Z</time>
      </trkpt>
      <trkpt lat="45.12051" lon="5.60311">
        <ele>1126</ele>
        <time>2015-06-01T09:12:41Z</time>
      </trkpt>
      <trkpt lat="45.12061" lon="5.60357">
        <ele>1122</ele>
        <time>2015-06-01T09:12:53Z</time>
      </trkpt>
      <trkpt lat="45.121" lon="5.60407">
        <ele>1121</ele>
        <time>2015-06-01T09:13:10Z</time>
      </trkpt>
      <trkpt lat="45.12127" lon="5.60443">
        <ele>1125</ele>
        <time>2015-06-01T09:13:27Z</time>
      </trkpt>
      <trkpt lat="45.12127" lon="5.60444">
        <ele>1125</ele>
        <time>2015-06-01T09:13:28Z</time>
      </trkpt>
      <trkpt lat="45.12124" lon="5.60434">
        <ele>1125</ele>
        <time>2015-06-01T09:13:34Z</time>
      </trkpt>
      <trkpt lat="45.121" lon="5.60404">
        <ele>1121</ele>
        <time>2015-06-01T09:13:41Z</time>
      </trkpt>
      <trkpt lat="45.12071" lon="5.60391">
        <ele>1123</ele>
        <time>2015-06-01T09:13:46Z</time>
      </trkpt>
      <trkpt lat="45.12025" lon="5.60377">
        <ele>1124</ele>
        <time>2015-06-01T09:13:58Z</time>
      </trkpt>
      <trkpt lat="45.11981" lon="5.60365">
        <ele>1127</ele>
        <time>2015-06-01T09:14:13Z</time>
      </trkpt>
      <trkpt lat="45.1194" lon="5.60362">
        <ele>1129</ele>
        <time>2015-06-01T09:14:27Z</time>
      </trkpt>
      <trkpt lat="45.11908" lon="5.60344">
        <ele>1134</ele>
        <time>2015-06-01T09:14:40Z</time>
      </trkpt>
      <trkpt lat="45.11862" lon="5.60319">
        <ele>1133</ele>
        <time>2015-06-01T09:15:00Z</time>
      </trkpt>
      <trkpt lat="45.11836" lon="5.603">
        <ele>1133</ele>
        <time>2015-06-01T09:15:14Z</time>
      </trkpt>
      <trkpt lat="45.1181" lon="5.60286">
        <ele>1139</ele>
        <time>2015-06-01T09:15:27Z</time>
      </trkpt>
      <trkpt lat="45.11809" lon="5.60285">
        <ele>1139</ele>
        <time>2015-06-01T09:15:28Z</time>
      </trkpt>
      <trkpt lat="45.11774" lon="5.60273">
        <ele>1141</ele>
        <time>2015-06-01T09:15:46Z</time>
      </trkpt>
      <trkpt lat="45.11746" lon="5.60252">
        <ele>1145</ele>
        <time>2015-06-01T09:16:03Z</time>
      </trkpt>
      <trkpt lat="45.11735" lon="5.60244">
        <ele>1145</ele>
        <time>2015-06-01T09:16:10Z</time>
      </trkpt>
      <trkpt lat="45.11714" lon="5.60229">
        <ele>1147</ele>
        <time>2015-06-01T09:16:23Z</time>
      </trkpt>
      <trkpt lat="45.11691" lon="5.60214">
        <ele>1148</ele>
        <time>2015-06-01T09:16:37Z</time>
      </trkpt>
      <trkpt lat="45.11666" lon="5.60205">
        <ele>1159</ele>
        <time>2015-06-01T09:16:52Z</time>
      </trkpt>
      <trkpt lat="45.11652" lon="5.602">
        <ele>1159</ele>
        <time>2015-06-01T09:17:01Z</time>
      </trkpt>
      <trkpt lat="45.11645" lon="5.60198">
        <ele>1160</ele>
        <time>2015-06-01T09:17:05Z</time>
      </trkpt>
      <trkpt lat="45.11615" lon="5.60194">
        <ele>1163</ele>
        <time>2015-06-01T09:17:21Z</time>
      </trkpt>
      <trkpt lat="45.11594" lon="5.6019">
        <ele>1164</ele>
        <time>2015-06-01T09:17:34Z</time>
      </trkpt>
      <trkpt lat="45.11583" lon="5.60189">
        <ele>1176</ele>
        <time>2015-06-01T09:17:48Z</time>
      </trkpt>
      <trkpt lat="45.11582" lon="5.60189">
        <ele>1175</ele>
        <time>2015-06-01T09:17:52Z</time>
      </trkpt>
      <trkpt lat="45.11561" lon="5.6018">
        <ele>1177</ele>
        <time>2015-06-01T09:18:06Z</time>
      </trkpt>
      <trkpt lat="45.1154" lon="5.60175">
        <ele>1181</ele>
        <time>2015-06-01T09:18:18Z</time>
      </trkpt>
      <trkpt lat="45.11518" lon="5.60173">
        <ele>1183</ele>
        <time>2015-06-01T09:18:30Z</time>
      </trkpt>
      <trkpt lat="45.11498" lon="5.6017">
        <ele>1185</ele>
        <time>2015-06-01T09:18:42Z</time>
      </trkpt>
      <trkpt lat="45.11481" lon="5.60169">
        <ele>1192</ele>
        <time>2015-06-01T09:18:54Z</time>
      </trkpt>
      <trkpt lat="45.11459" lon="5.60165">
        <ele>1188</ele>
        <time>2015-06-01T09:19:07Z</time>
      </trkpt>
      <trkpt lat="45.11439" lon="5.60161">
        <ele>1190</ele>
        <time>2015-06-01T09:19:19Z</time>
      </trkpt>
      <trkpt lat="45.11412" lon="5.60163">
        <ele>1194</ele>
        <time>2015-06-01T09:19:33Z</time>
      </trkpt>
      <trkpt lat="45.11394" lon="5.60165">
        <ele>1196</ele>
        <time>2015-06-01T09:19:43Z</time>
      </trkpt>
      <trkpt lat="45.1138" lon="5.60168">
        <ele>1203</ele>
        <time>2015-06-01T09:19:53Z</time>
      </trkpt>
      <trkpt lat="45.11346" lon="5.60162">
        <ele>1197</ele>
        <time>2015-06-01T09:20:06Z</time>
      </trkpt>
      <trkpt lat="45.11314" lon="5.60162">
        <ele>1204</ele>
        <time>2015-06-01T09:20:18Z</time>
      </trkpt>
      <trkpt lat="45.1131" lon="5.60161">
        <ele>1205</ele>
        <time>2015-06-01T09:20:20Z</time>
      </trkpt>
      <trkpt lat="45.11289" lon="5.60162">
        <ele>1208</ele>
        <time>2015-06-01T09:20:30Z</time>
      </trkpt>
      <trkpt lat="45.11267" lon="5.60168">
        <ele>1208</ele>
        <time>2015-06-01T09:20:41Z</time>
      </trkpt>
      <trkpt lat="45.11265" lon="5.60168">
        <ele>1208</ele>
        <time>2015-06-01T09:20:42Z</time>
      </trkpt>
      <trkpt lat="45.11257" lon="5.6017">
        <ele>1207</ele>
        <time>2015-06-01T09:20:47Z</time>
      </trkpt>
      <trkpt lat="45.11238" lon="5.60172">
        <ele>1212</ele>
        <time>2015-06-01T09:20:58Z</time>
      </trkpt>
      <trkpt lat="45.11209" lon="5.60181">
        <ele>1219</ele>
        <time>2015-06-01T09:21:11Z</time>
      </trkpt>
      <trkpt lat="45.11207" lon="5.60181">
        <ele>1219</ele>
        <time>2015-06-01T09:21:13Z</time>
      </trkpt>
      <trkpt lat="45.1119" lon="5.60188">
        <ele>1222</ele>
        <time>2015-06-01T09:21:23Z</time>
      </trkpt>
      <trkpt lat="45.11174" lon="5.60195">
        <ele>1223</ele>
        <time>2015-06-01T09:21:35Z</time>
      </trkpt>
      <trkpt lat="45.11168" lon="5.60199">
        <ele>1223</ele>
        <time>2015-06-01T09:21:40Z</time>
      </trkpt>
      <trkpt lat="45.1116" lon="5.60203">
        <ele>1234</ele>
        <time>2015-06-01T09:21:46Z</time>
      </trkpt>
      <trkpt lat="45.11157" lon="5.60206">
        <ele>1234</ele>
        <time>2015-06-01T09:21:50Z</time>
      </trkpt>
      <trkpt lat="45.11139" lon="5.60215">
        <ele>1236</ele>
        <time>2015-06-01T09:22:07Z</time>
      </trkpt>
      <trkpt lat="45.11124" lon="5.60222">
        <ele>1237</ele>
        <time>2015-06-01T09:22:20Z</time>
      </trkpt>
      <trkpt lat="45.11108" lon="5.60239">
        <ele>1238</ele>
        <time>2015-06-01T09:22:33Z</time>
      </trkpt>
      <trkpt lat="45.11106" lon="5.60241">
        <ele>1238</ele>
        <time>2015-06-01T09:22:35Z</time>
      </trkpt>
      <trkpt lat="45.11099" lon="5.60247">
        <ele>1238</ele>
        <time>2015-06-01T09:22:41Z</time>
      </trkpt>
      <trkpt lat="45.11086" lon="5.60253">
        <ele>1240</ele>
        <time>2015-06-01T09:22:51Z</time>
      </trkpt>
      <trkpt lat="45.11083" lon="5.60254">
        <ele>1242</ele>
        <time>2015-06-01T09:22:54Z</time>
      </trkpt>
      <trkpt lat="45.11062" lon="5.60262">
        <ele>1250</ele>
        <time>2015-06-01T09:23:09Z</time>
      </trkpt>
      <trkpt lat="45.11052" lon="5.60264">
        <ele>1252</ele>
        <time>2015-06-01T09:23:21Z</time>
      </trkpt>
      <trkpt lat="45.11028" lon="5.60278">
        <ele>1256</ele>
        <time>2015-06-01T09:23:37Z</time>
      </trkpt>
      <trkpt lat="45.11023" lon="5.60284">
        <ele>1256</ele>
        <time>2015-06-01T09:23:42Z</time>
      </trkpt>
      <trkpt lat="45.1102" lon="5.60286">
        <ele>1256</ele>
        <time>2015-06-01T09:23:45Z</time>
      </trkpt>
      <trkpt lat="45.11018" lon="5.60291">
        <ele>1256</ele>
        <time>2015-06-01T09:23:49Z</time>
      </trkpt>
      <trkpt lat="45.11005" lon="5.603">
        <ele>1257</ele>
        <time>2015-06-01T09:24:02Z</time>
      </trkpt>
      <trkpt lat="45.11" lon="5.603">
        <ele>1264</ele>
        <time>2015-06-01T09:24:06Z</time>
      </trkpt>
      <trkpt lat="45.10996" lon="5.60304">
        <ele>1263</ele>
        <time>2015-06-01T09:24:10Z</time>
      </trkpt>
      <trkpt lat="45.10986" lon="5.60307">
        <ele>1264</ele>
        <time>2015-06-01T09:24:16Z</time>
      </trkpt>
      <trkpt lat="45.10964" lon="5.60314">
        <ele>1265</ele>
        <time>2015-06-01T09:24:27Z</time>
      </trkpt>
      <trkpt lat="45.10959" lon="5.60316">
        <ele>1266</ele>
        <time>2015-06-01T09:24:30Z</time>
      </trkpt>
      <trkpt lat="45.10931" lon="5.60317">
        <ele>1267</ele>
        <time>2015-06-01T09:24:45Z</time>
      </trkpt>
      <trkpt lat="45.10924" lon="5.60317">
        <ele>1267</ele>
        <time>2015-06-01T09:24:49Z</time>
      </trkpt>
      <trkpt lat="45.109" lon="5.60319">
        <ele>1276</ele>
        <time>2015-06-01T09:25:04Z</time>
      </trkpt>
      <trkpt lat="45.10879" lon="5.60322">
        <ele>1280</ele>
        <time>2015-06-01T09:25:16Z</time>
      </trkpt>
      <trkpt lat="45.10862" lon="5.60325">
        <ele>1281</ele>
        <time>2015-06-01T09:25:26Z</time>
      </trkpt>
      <trkpt lat="45.10861" lon="5.60326">
        <ele>1281</ele>
        <time>2015-06-01T09:25:27Z</time>
      </trkpt>
      <trkpt lat="45.10859" lon="5.60327">
        <ele>1281</ele>
        <time>2015-06-01T09:25:29Z</time>
      </trkpt>
      <trkpt lat="45.10859" lon="5.60332">
        <ele>1281</ele>
        <time>2015-06-01T09:25:32Z</time>
      </trkpt>
      <trkpt lat="45.10863" lon="5.60341">
        <ele>1277</ele>
        <time>2015-06-01T09:25:38Z</time>
      </trkpt>
      <trkpt lat="45.10861" lon="5.60345">
        <ele>1277</ele>
        <time>2015-06-01T09:25:42Z</time>
      </trkpt>
      <trkpt lat="45.10849" lon="5.60343">
        <ele>1278</ele>
        <time>2015-06-01T09:25:50Z</time>
      </trkpt>
      <trkpt lat="45.10814" lon="5.6034">
        <ele>1284</ele>
        <time>2015-06-01T09:26:10Z</time>
      </trkpt>
      <trkpt lat="45.10782" lon="5.6034">
        <ele>1289</ele>
        <time>2015-06-01T09:26:25Z</time>
      </trkpt>
      <trkpt lat="45.10756" lon="5.60344">
        <ele>1293</ele>
        <time>2015-06-01T09:26:38Z</time>
      </trkpt>
      <trkpt lat="45.10728" lon="5.60353">
        <ele>1298</ele>
        <time>2015-06-01T09:26:51Z</time>
      </trkpt>
      <trkpt lat="45.10701" lon="5.60362">
        <ele>1299</ele>
        <time>2015-06-01T09:27:03Z</time>
      </trkpt>
      <trkpt lat="45.10668" lon="5.60364">
        <ele>1301</ele>
        <time>2015-06-01T09:27:17Z</time>
      </trkpt>
      <trkpt lat="45.10647" lon="5.60365">
        <ele>1305</ele>
        <time>2015-06-01T09:27:28Z</time>
      </trkpt>
      <trkpt lat="45.10623" lon="5.60366">
        <ele>1306</ele>
        <time>2015-06-01T09:27:42Z</time>
      </trkpt>
      <trkpt lat="45.10595" lon="5.6036">
        <ele>1308</ele>
        <time>2015-06-01T09:27:57Z</time>
      </trkpt>
      <trkpt lat="45.1057" lon="5.60351">
        <ele>1313</ele>
        <time>2015-06-01T09:28:11Z</time>
      </trkpt>
      <trkpt lat="45.10539" lon="5.60343">
        <ele>1314</ele>
        <time>2015-06-01T09:28:27Z</time>
      </trkpt>
      <trkpt lat="45.1052" lon="5.60337">
        <ele>1315</ele>
        <time>2015-06-01T09:28:38Z</time>
      </trkpt>
      <trkpt lat="45.10505" lon="5.60331">
        <ele>1322</ele>
        <time>2015-06-01T09:28:47Z</time>
      </trkpt>
      <trkpt lat="45.10488" lon="5.60333">
        <ele>1327</ele>
        <time>2015-06-01T09:28:56Z</time>
      </trkpt>
      <trkpt lat="45.10482" lon="5.60333">
        <ele>1329</ele>
        <time>2015-06-01T09:28:59Z</time>
      </trkpt>
      <trkpt lat="45.10454" lon="5.60332">
        <ele>1333</ele>
        <time>2015-06-01T09:29:16Z</time>
      </trkpt>
      <trkpt lat="45.10412" lon="5.6033">
        <ele>1330</ele>
        <time>2015-06-01T09:29:35Z</time>
      </trkpt>
      <trkpt lat="45.10387" lon="5.60323">
        <ele>1340</ele>
        <time>2015-06-01T09:29:47Z</time>
      </trkpt>
      <trkpt lat="45.10386" lon="5.60322">
        <ele>1340</ele>
        <time>2015-06-01T09:29:48Z</time>
      </trkpt>
      <trkpt lat="45.10356" lon="5.60314">
        <ele>1343</ele>
        <time>2015-06-01T09:30:03Z</time>
      </trkpt>
      <trkpt lat="45.10329" lon="5.60303">
        <ele>1349</ele>
        <time>2015-06-01T09:30:17Z</time>
      </trkpt>
      <trkpt lat="45.103" lon="5.60304">
        <ele>1351</ele>
        <time>2015-06-01T09:30:29Z</time>
      </trkpt>
      <trkpt lat="45.10275" lon="5.60307">
        <ele>1352</ele>
        <time>2015-06-01T09:30:39Z</time>
      </trkpt>
      <trkpt lat="45.1026" lon="5.60309">
        <ele>1352</ele>
        <time>2015-06-01T09:30:49Z</time>
      </trkpt>
      <trkpt lat="45.10216" lon="5.60323">
        <ele>1356</ele>
        <time>2015-06-01T09:31:23Z</time>
      </trkpt>
      <trkpt lat="45.10269" lon="5.60354">
        <ele>1348</ele>
        <time>2015-06-01T09:31:36Z</time>
      </trkpt>
      <trkpt lat="45.1027" lon="5.60355">
        <ele>1348</ele>
        <time>2015-06-01T09:31:37Z</time>
      </trkpt>
      <trkpt lat="45.10271" lon="5.60354">
        <ele>1348</ele>
        <time>2015-06-01T09:31:38Z</time>
      </trkpt>
      <trkpt lat="45.10271" lon="5.60355">
        <ele>1348</ele>
        <time>2015-06-01T09:31:39Z</time>
      </trkpt>
      <trkpt lat="45.10268" lon="5.60353">
        <ele>1348</ele>
        <time>2015-06-01T09:31:43Z</time>
      </trkpt>
      <trkpt lat="45.10252" lon="5.60348">
        <ele>1348</ele>
        <time>2015-06-01T09:31:56Z</time>
      </trkpt>
      <trkpt lat="45.10232" lon="5.60339">
        <ele>1353</ele>
        <time>2015-06-01T09:32:10Z</time>
      </trkpt>
      <trkpt lat="45.1023" lon="5.60338">
        <ele>1353</ele>
        <time>2015-06-01T09:32:11Z</time>
      </trkpt>
      <trkpt lat="45.10226" lon="5.60338">
        <ele>1353</ele>
        <time>2015-06-01T09:32:14Z</time>
      </trkpt>
      <trkpt lat="45.10223" lon="5.60335">
        <ele>1354</ele>
        <time>2015-06-01T09:32:16Z</time>
      </trkpt>
      <trkpt lat="45.10205" lon="5.60312">
        <ele>1357</ele>
        <time>2015-06-01T09:32:28Z</time>
      </trkpt>
      <trkpt lat="45.10193" lon="5.60309">
        <ele>1358</ele>
        <time>2015-06-01T09:32:37Z</time>
      </trkpt>
      <trkpt lat="45.10183" lon="5.60319">
        <ele>1356</ele>
        <time>2015-06-01T09:32:47Z</time>
      </trkpt>
      <trkpt lat="45.10179" lon="5.6032">
        <ele>1356</ele>
        <time>2015-06-01T09:32:49Z</time>
      </trkpt>
      <trkpt lat="45.10177" lon="5.6032">
        <ele>1356</ele>
        <time>2015-06-01T09:32:50Z</time>
      </trkpt>
      <trkpt lat="45.10173" lon="5.60319">
        <ele>1356</ele>
        <time>2015-06-01T09:32:51Z</time>
      </trkpt>
      <trkpt lat="45.10168" lon="5.60318">
        <ele>1356</ele>
        <time>2015-06-01T09:32:53Z</time>
      </trkpt>
      <trkpt lat="45.10165" lon="5.60317">
        <ele>1357</ele>
        <time>2015-06-01T09:32:54Z</time>
      </trkpt>
      <trkpt lat="45.1016" lon="5.60316">
        <ele>1357</ele>
        <time>2015-06-01T09:32:56Z</time>
      </trkpt>
      <trkpt lat="45.10156" lon="5.60314">
        <ele>1358</ele>
        <time>2015-06-01T09:32:58Z</time>
      </trkpt>
      <trkpt lat="45.10152" lon="5.6031">
        <ele>1359</ele>
        <time>2015-06-01T09:33:01Z</time>
      </trkpt>
      <trkpt lat="45.10151" lon="5.60308">
        <ele>1359</ele>
        <time>2015-06-01T09:33:03Z</time>
      </trkpt>
      <trkpt lat="45.10148" lon="5.60307">
        <ele>1359</ele>
        <time>2015-06-01T09:33:05Z</time>
      </trkpt>
      <trkpt lat="45.10147" lon="5.60306">
        <ele>1360</ele>
        <time>2015-06-01T09:33:07Z</time>
      </trkpt>
      <trkpt lat="45.10147" lon="5.60307">
        <ele>1360</ele>
        <time>2015-06-01T09:33:10Z</time>
      </trkpt>
      <trkpt lat="45.10145" lon="5.60306">
        <ele>1360</ele>
        <time>2015-06-01T09:33:13Z</time>
      </trkpt>
      <trkpt lat="45.10143" lon="5.60306">
        <ele>1360</ele>
        <time>2015-06-01T09:33:16Z</time>
      </trkpt>
      <trkpt lat="45.10142" lon="5.60305">
        <ele>1360</ele>
        <time>2015-06-01T09:33:20Z</time>
      </trkpt>
      <trkpt lat="45.10142" lon="5.60306">
        <ele>1360</ele>
        <time>2015-06-01T09:33:24Z</time>
      </trkpt>
      <trkpt lat="45.1014" lon="5.60306">
        <ele>1360</ele>
        <time>2015-06-01T09:33:29Z</time>
      </trkpt>
      <trkpt lat="45.10139" lon="5.60306">
        <ele>1360</ele>
        <time>2015-06-01T09:33:33Z</time>
      </trkpt>
      <trkpt lat="45.1013" lon="5.60315">
        <ele>1360</ele>
        <time>2015-06-01T09:33:40Z</time>
      </trkpt>
      <trkpt lat="45.10124" lon="5.60317">
        <ele>1360</ele>
        <time>2015-06-01T09:33:44Z</time>
      </trkpt>
      <trkpt lat="45.10116" lon="5.60317">
        <ele>1360</ele>
        <time>2015-06-01T09:33:49Z</time>
      </trkpt>
      <trkpt lat="45.10112" lon="5.60315">
        <ele>1360</ele>
        <time>2015-06-01T09:33:52Z</time>
      </trkpt>
      <trkpt lat="45.10092" lon="5.60314">
        <ele>1360</ele>
        <time>2015-06-01T09:34:03Z</time>
      </trkpt>
      <trkpt lat="45.1007" lon="5.60311">
        <ele>1365</ele>
        <time>2015-06-01T09:34:15Z</time>
      </trkpt>
      <trkpt lat="45.10037" lon="5.60308">
        <ele>1369</ele>
        <time>2015-06-01T09:34:32Z</time>
      </trkpt>
      <trkpt lat="45.10013" lon="5.60306">
        <ele>1371</ele>
        <time>2015-06-01T09:34:47Z</time>
      </trkpt>
      <trkpt lat="45.09988" lon="5.60302">
        <ele>1380</ele>
        <time>2015-06-01T09:35:01Z</time>
      </trkpt>
      <trkpt lat="45.09967" lon="5.60302">
        <ele>1381</ele>
        <time>2015-06-01T09:35:13Z</time>
      </trkpt>
      <trkpt lat="45.09956" lon="5.603">
        <ele>1382</ele>
        <time>2015-06-01T09:35:19Z</time>
      </trkpt>
      <trkpt lat="45.09914" lon="5.60294">
        <ele>1390</ele>
        <time>2015-06-01T09:35:43Z</time>
      </trkpt>
      <trkpt lat="45.09892" lon="5.60297">
        <ele>1391</ele>
        <time>2015-06-01T09:35:57Z</time>
      </trkpt>
      <trkpt lat="45.09872" lon="5.6029">
        <ele>1393</ele>
        <time>2015-06-01T09:36:09Z</time>
      </trkpt>
      <trkpt lat="45.09849" lon="5.60295">
        <ele>1394</ele>
        <time>2015-06-01T09:36:23Z</time>
      </trkpt>
      <trkpt lat="45.0983" lon="5.60301">
        <ele>1404</ele>
        <time>2015-06-01T09:36:36Z</time>
      </trkpt>
      <trkpt lat="45.09819" lon="5.60299">
        <ele>1405</ele>
        <time>2015-06-01T09:36:51Z</time>
      </trkpt>
      <trkpt lat="45.09818" lon="5.60299">
        <ele>1406</ele>
        <time>2015-06-01T09:36:56Z</time>
      </trkpt>
      <trkpt lat="45.09798" lon="5.60298">
        <ele>1408</ele>
        <time>2015-06-01T09:37:11Z</time>
      </trkpt>
      <trkpt lat="45.09781" lon="5.603">
        <ele>1410</ele>
        <time>2015-06-01T09:37:24Z</time>
      </trkpt>
      <trkpt lat="45.09763" lon="5.60304">
        <ele>1412</ele>
        <time>2015-06-01T09:37:38Z</time>
      </trkpt>
      <trkpt lat="45.09748" lon="5.60306">
        <ele>1420</ele>
        <time>2015-06-01T09:37:49Z</time>
      </trkpt>
      <trkpt lat="45.0973" lon="5.60308">
        <ele>1421</ele>
        <time>2015-06-01T09:38:01Z</time>
      </trkpt>
      <trkpt lat="45.09707" lon="5.60308">
        <ele>1423</ele>
        <time>2015-06-01T09:38:16Z</time>
      </trkpt>
      <trkpt lat="45.09683" lon="5.60307">
        <ele>1424</ele>
        <time>2015-06-01T09:38:34Z</time>
      </trkpt>
      <trkpt lat="45.09658" lon="5.60302">
        <ele>1428</ele>
        <time>2015-06-01T09:38:51Z</time>
      </trkpt>
      <trkpt lat="45.09635" lon="5.60296">
        <ele>1429</ele>
        <time>2015-06-01T09:39:06Z</time>
      </trkpt>
      <trkpt lat="45.09608" lon="5.60293">
        <ele>1429</ele>
        <time>2015-06-01T09:39:23Z</time>
      </trkpt>
      <trkpt lat="45.09585" lon="5.60286">
        <ele>1430</ele>
        <time>2015-06-01T09:39:39Z</time>
      </trkpt>
      <trkpt lat="45.09559" lon="5.60282">
        <ele>1437</ele>
        <time>2015-06-01T09:39:56Z</time>
      </trkpt>
      <trkpt lat="45.09548" lon="5.6028">
        <ele>1438</ele>
        <time>2015-06-01T09:40:03Z</time>
      </trkpt>
      <trkpt lat="45.0952" lon="5.6028">
        <ele>1440</ele>
        <time>2015-06-01T09:40:23Z</time>
      </trkpt>
      <trkpt lat="45.09502" lon="5.60279">
        <ele>1441</ele>
        <time>2015-06-01T09:40:35Z</time>
      </trkpt>
      <trkpt lat="45.09485" lon="5.60278">
        <ele>1449</ele>
        <time>2015-06-01T09:40:45Z</time>
      </trkpt>
      <trkpt lat="45.0947" lon="5.60271">
        <ele>1450</ele>
        <time>2015-06-01T09:40:55Z</time>
      </trkpt>
      <trkpt lat="45.09463" lon="5.60267">
        <ele>1450</ele>
        <time>2015-06-01T09:41:00Z</time>
      </trkpt>
      <trkpt lat="45.09456" lon="5.6026">
        <ele>1451</ele>
        <time>2015-06-01T09:41:05Z</time>
      </trkpt>
      <trkpt lat="45.09455" lon="5.6025">
        <ele>1451</ele>
        <time>2015-06-01T09:41:09Z</time>
      </trkpt>
      <trkpt lat="45.09453" lon="5.60209">
        <ele>1453</ele>
        <time>2015-06-01T09:41:27Z</time>
      </trkpt>
      <trkpt lat="45.09452" lon="5.60175">
        <ele>1453</ele>
        <time>2015-06-01T09:41:42Z</time>
      </trkpt>
      <trkpt lat="45.09445" lon="5.60161">
        <ele>1457</ele>
        <time>2015-06-01T09:41:48Z</time>
      </trkpt>
      <trkpt lat="45.09434" lon="5.60162">
        <ele>1456</ele>
        <time>2015-06-01T09:41:53Z</time>
      </trkpt>
      <trkpt lat="45.09384" lon="5.60149">
        <ele>1456</ele>
        <time>2015-06-01T09:42:13Z</time>
      </trkpt>
      <trkpt lat="45.09342" lon="5.60135">
        <ele>1455</ele>
        <time>2015-06-01T09:42:25Z</time>
      </trkpt>
      <trkpt lat="45.09294" lon="5.60101">
        <ele>1455</ele>
        <time>2015-06-01T09:42:41Z</time>
      </trkpt>
      <trkpt lat="45.0927" lon="5.60098">
        <ele>1454</ele>
        <time>2015-06-01T09:42:49Z</time>
      </trkpt>
      <trkpt lat="45.09231" lon="5.60094">
        <ele>1454</ele>
        <time>2015-06-01T09:43:04Z</time>
      </trkpt>
      <trkpt lat="45.09202" lon="5.60094">
        <ele>1455</ele>
        <time>2015-06-01T09:43:16Z</time>
      </trkpt>
      <trkpt lat="45.09168" lon="5.60107">
        <ele>1455</ele>
        <time>2015-06-01T09:43:30Z</time>
      </trkpt>
      <trkpt lat="45.09137" lon="5.60138">
        <ele>1458</ele>
        <time>2015-06-01T09:43:47Z</time>
      </trkpt>
      <trkpt lat="45.09109" lon="5.60142">
        <ele>1458</ele>
        <time>2015-06-01T09:43:59Z</time>
      </trkpt>
      <trkpt lat="45.09094" lon="5.60157">
        <ele>1460</ele>
        <time>2015-06-01T09:44:10Z</time>
      </trkpt>
      <trkpt lat="45.09083" lon="5.60181">
        <ele>1465</ele>
        <time>2015-06-01T09:44:21Z</time>
      </trkpt>
      <trkpt lat="45.09062" lon="5.6021">
        <ele>1469</ele>
        <time>2015-06-01T09:44:34Z</time>
      </trkpt>
      <trkpt lat="45.0904" lon="5.60224">
        <ele>1470</ele>
        <time>2015-06-01T09:44:44Z</time>
      </trkpt>
      <trkpt lat="45.09035" lon="5.60229">
        <ele>1470</ele>
        <time>2015-06-01T09:44:47Z</time>
      </trkpt>
      <trkpt lat="45.09027" lon="5.6023">
        <ele>1470</ele>
        <time>2015-06-01T09:44:51Z</time>
      </trkpt>
      <trkpt lat="45.09006" lon="5.60235">
        <ele>1471</ele>
        <time>2015-06-01T09:45:02Z</time>
      </trkpt>
      <trkpt lat="45.09004" lon="5.60236">
        <ele>1471</ele>
        <time>2015-06-01T09:45:04Z</time>
      </trkpt>
      <trkpt lat="45.08975" lon="5.60232">
        <ele>1471</ele>
        <time>2015-06-01T09:45:16Z</time>
      </trkpt>
      <trkpt lat="45.08956" lon="5.60234">
        <ele>1472</ele>
        <time>2015-06-01T09:45:26Z</time>
      </trkpt>
      <trkpt lat="45.08945" lon="5.60247">
        <ele>1473</ele>
        <time>2015-06-01T09:45:38Z</time>
      </trkpt>
      <trkpt lat="45.08944" lon="5.60247">
        <ele>1473</ele>
        <time>2015-06-01T09:45:39Z</time>
      </trkpt>
      <trkpt lat="45.08936" lon="5.60251">
        <ele>1482</ele>
        <time>2015-06-01T09:45:45Z</time>
      </trkpt>
      <trkpt lat="45.08926" lon="5.60244">
        <ele>1476</ele>
        <time>2015-06-01T09:45:52Z</time>
      </trkpt>
      <trkpt lat="45.0892" lon="5.60241">
        <ele>1476</ele>
        <time>2015-06-01T09:46:08Z</time>
      </trkpt>
      <trkpt lat="45.08919" lon="5.60241">
        <ele>1476</ele>
        <time>2015-06-01T09:46:09Z</time>
      </trkpt>
      <trkpt lat="45.08906" lon="5.60239">
        <ele>1475</ele>
        <time>2015-06-01T09:46:22Z</time>
      </trkpt>
      <trkpt lat="45.08899" lon="5.60241">
        <ele>1474</ele>
        <time>2015-06-01T09:46:35Z</time>
      </trkpt>
      <trkpt lat="45.08897" lon="5.60241">
        <ele>1474</ele>
        <time>2015-06-01T09:46:37Z</time>
      </trkpt>
      <trkpt lat="45.08891" lon="5.60242">
        <ele>1473</ele>
        <time>2015-06-01T09:46:41Z</time>
      </trkpt>
      <trkpt lat="45.08887" lon="5.60251">
        <ele>1482</ele>
        <time>2015-06-01T09:46:47Z</time>
      </trkpt>
      <trkpt lat="45.08876" lon="5.60259">
        <ele>1482</ele>
        <time>2015-06-01T09:46:55Z</time>
      </trkpt>
      <trkpt lat="45.08858" lon="5.60267">
        <ele>1481</ele>
        <time>2015-06-01T09:47:06Z</time>
      </trkpt>
      <trkpt lat="45.08854" lon="5.60269">
        <ele>1480</ele>
        <time>2015-06-01T09:47:09Z</time>
      </trkpt>
      <trkpt lat="45.08848" lon="5.60273">
        <ele>1481</ele>
        <time>2015-06-01T09:47:13Z</time>
      </trkpt>
      <trkpt lat="45.08841" lon="5.60282">
        <ele>1482</ele>
        <time>2015-06-01T09:47:18Z</time>
      </trkpt>
      <trkpt lat="45.08839" lon="5.60301">
        <ele>1484</ele>
        <time>2015-06-01T09:47:28Z</time>
      </trkpt>
      <trkpt lat="45.08837" lon="5.60307">
        <ele>1485</ele>
        <time>2015-06-01T09:47:31Z</time>
      </trkpt>
      <trkpt lat="45.08835" lon="5.6031">
        <ele>1485</ele>
        <time>2015-06-01T09:47:33Z</time>
      </trkpt>
      <trkpt lat="45.08831" lon="5.60331">
        <ele>1486</ele>
        <time>2015-06-01T09:47:46Z</time>
      </trkpt>
      <trkpt lat="45.08829" lon="5.60349">
        <ele>1489</ele>
        <time>2015-06-01T09:47:58Z</time>
      </trkpt>
      <trkpt lat="45.08827" lon="5.60361">
        <ele>1490</ele>
        <time>2015-06-01T09:48:08Z</time>
      </trkpt>
      <trkpt lat="45.08826" lon="5.60363">
        <ele>1490</ele>
        <time>2015-06-01T09:48:10Z</time>
      </trkpt>
      <trkpt lat="45.08824" lon="5.60368">
        <ele>1491</ele>
        <time>2015-06-01T09:48:13Z</time>
      </trkpt>
      <trkpt lat="45.08824" lon="5.60372">
        <ele>1491</ele>
        <time>2015-06-01T09:48:15Z</time>
      </trkpt>
      <trkpt lat="45.0882" lon="5.60383">
        <ele>1493</ele>
        <time>2015-06-01T09:48:26Z</time>
      </trkpt>
      <trkpt lat="45.0882" lon="5.60384">
        <ele>1493</ele>
        <time>2015-06-01T09:48:27Z</time>
      </trkpt>
      <trkpt lat="45.08823" lon="5.60396">
        <ele>1496</ele>
        <time>2015-06-01T09:48:37Z</time>
      </trkpt>
      <trkpt lat="45.08821" lon="5.60399">
        <ele>1496</ele>
        <time>2015-06-01T09:48:40Z</time>
      </trkpt>
      <trkpt lat="45.08815" lon="5.60405">
        <ele>1496</ele>
        <time>2015-06-01T09:48:49Z</time>
      </trkpt>
      <trkpt lat="45.08808" lon="5.60421">
        <ele>1506</ele>
        <time>2015-06-01T09:49:00Z</time>
      </trkpt>
      <trkpt lat="45.08798" lon="5.60433">
        <ele>1506</ele>
        <time>2015-06-01T09:49:12Z</time>
      </trkpt>
      <trkpt lat="45.08789" lon="5.60444">
        <ele>1506</ele>
        <time>2015-06-01T09:49:25Z</time>
      </trkpt>
      <trkpt lat="45.08783" lon="5.60454">
        <ele>1506</ele>
        <time>2015-06-01T09:49:40Z</time>
      </trkpt>
      <trkpt lat="45.08777" lon="5.60467">
        <ele>1507</ele>
        <time>2015-06-01T09:49:55Z</time>
      </trkpt>
      <trkpt lat="45.08769" lon="5.60476">
        <ele>1507</ele>
        <time>2015-06-01T09:50:07Z</time>
      </trkpt>
      <trkpt lat="45.08763" lon="5.60481">
        <ele>1507</ele>
        <time>2015-06-01T09:50:14Z</time>
      </trkpt>
      <trkpt lat="45.08758" lon="5.6049">
        <ele>1507</ele>
        <time>2015-06-01T09:50:26Z</time>
      </trkpt>
      <trkpt lat="45.08748" lon="5.605">
        <ele>1508</ele>
        <time>2015-06-01T09:50:40Z</time>
      </trkpt>
      <trkpt lat="45.08747" lon="5.605">
        <ele>1508</ele>
        <time>2015-06-01T09:50:42Z</time>
      </trkpt>
      <trkpt lat="45.0874" lon="5.60507">
        <ele>1511</ele>
        <time>2015-06-01T09:50:52Z</time>
      </trkpt>
      <trkpt lat="45.08738" lon="5.60511">
        <ele>1512</ele>
        <time>2015-06-01T09:50:56Z</time>
      </trkpt>
      <trkpt lat="45.08732" lon="5.60517">
        <ele>1514</ele>
        <time>2015-06-01T09:51:06Z</time>
      </trkpt>
      <trkpt lat="45.08722" lon="5.6052">
        <ele>1516</ele>
        <time>2015-06-01T09:51:19Z</time>
      </trkpt>
      <trkpt lat="45.08718" lon="5.60519">
        <ele>1516</ele>
        <time>2015-06-01T09:51:29Z</time>
      </trkpt>
      <trkpt lat="45.08709" lon="5.60515">
        <ele>1516</ele>
        <time>2015-06-01T09:51:42Z</time>
      </trkpt>
      <trkpt lat="45.087" lon="5.60519">
        <ele>1516</ele>
        <time>2015-06-01T09:51:54Z</time>
      </trkpt>
      <trkpt lat="45.08691" lon="5.60525">
        <ele>1517</ele>
        <time>2015-06-01T09:52:07Z</time>
      </trkpt>
      <trkpt lat="45.08686" lon="5.60528">
        <ele>1517</ele>
        <time>2015-06-01T09:52:12Z</time>
      </trkpt>
      <trkpt lat="45.08679" lon="5.60529">
        <ele>1517</ele>
        <time>2015-06-01T09:52:22Z</time>
      </trkpt>
      <trkpt lat="45.08677" lon="5.60526">
        <ele>1517</ele>
        <time>2015-06-01T09:52:25Z</time>
      </trkpt>
      <trkpt lat="45.08669" lon="5.60519">
        <ele>1516</ele>
        <time>2015-06-01T09:52:34Z</time>
      </trkpt>
      <trkpt lat="45.08659" lon="5.60515">
        <ele>1518</ele>
        <time>2015-06-01T09:52:41Z</time>
      </trkpt>
      <trkpt lat="45.0865" lon="5.60524">
        <ele>1521</ele>
        <time>2015-06-01T09:52:54Z</time>
      </trkpt>
      <trkpt lat="45.08644" lon="5.60525">
        <ele>1522</ele>
        <time>2015-06-01T09:52:59Z</time>
      </trkpt>
      <trkpt lat="45.08636" lon="5.60536">
        <ele>1524</ele>
        <time>2015-06-01T09:53:11Z</time>
      </trkpt>
      <trkpt lat="45.08633" lon="5.6054">
        <ele>1524</ele>
        <time>2015-06-01T09:53:15Z</time>
      </trkpt>
      <trkpt lat="45.08628" lon="5.60554">
        <ele>1526</ele>
        <time>2015-06-01T09:53:25Z</time>
      </trkpt>
      <trkpt lat="45.08623" lon="5.60556">
        <ele>1527</ele>
        <time>2015-06-01T09:53:29Z</time>
      </trkpt>
      <trkpt lat="45.08613" lon="5.60563">
        <ele>1528</ele>
        <time>2015-06-01T09:53:42Z</time>
      </trkpt>
      <trkpt lat="45.08605" lon="5.6057">
        <ele>1530</ele>
        <time>2015-06-01T09:53:57Z</time>
      </trkpt>
      <trkpt lat="45.08605" lon="5.60576">
        <ele>1530</ele>
        <time>2015-06-01T09:54:10Z</time>
      </trkpt>
      <trkpt lat="45.086" lon="5.60584">
        <ele>1538</ele>
        <time>2015-06-01T09:54:26Z</time>
      </trkpt>
      <trkpt lat="45.08595" lon="5.60583">
        <ele>1538</ele>
        <time>2015-06-01T09:54:39Z</time>
      </trkpt>
      <trkpt lat="45.0859" lon="5.60584">
        <ele>1538</ele>
        <time>2015-06-01T09:54:55Z</time>
      </trkpt>
      <trkpt lat="45.08579" lon="5.6058">
        <ele>1538</ele>
        <time>2015-06-01T09:55:10Z</time>
      </trkpt>
      <trkpt lat="45.0857" lon="5.6059">
        <ele>1544</ele>
        <time>2015-06-01T09:55:28Z</time>
      </trkpt>
      <trkpt lat="45.08566" lon="5.60593">
        <ele>1545</ele>
        <time>2015-06-01T09:55:33Z</time>
      </trkpt>
      <trkpt lat="45.08558" lon="5.60607">
        <ele>1548</ele>
        <time>2015-06-01T09:55:50Z</time>
      </trkpt>
      <trkpt lat="45.08551" lon="5.60615">
        <ele>1550</ele>
        <time>2015-06-01T09:56:01Z</time>
      </trkpt>
      <trkpt lat="45.08548" lon="5.60625">
        <ele>1551</ele>
        <time>2015-06-01T09:56:13Z</time>
      </trkpt>
      <trkpt lat="45.08548" lon="5.60629">
        <ele>1551</ele>
        <time>2015-06-01T09:56:17Z</time>
      </trkpt>
      <trkpt lat="45.08548" lon="5.60634">
        <ele>1552</ele>
        <time>2015-06-01T09:56:20Z</time>
      </trkpt>
      <trkpt lat="45.0854" lon="5.60645">
        <ele>1553</ele>
        <time>2015-06-01T09:56:33Z</time>
      </trkpt>
      <trkpt lat="45.08536" lon="5.60648">
        <ele>1554</ele>
        <time>2015-06-01T09:56:38Z</time>
      </trkpt>
      <trkpt lat="45.08528" lon="5.60658">
        <ele>1556</ele>
        <time>2015-06-01T09:56:47Z</time>
      </trkpt>
      <trkpt lat="45.08517" lon="5.60658">
        <ele>1558</ele>
        <time>2015-06-01T09:56:59Z</time>
      </trkpt>
      <trkpt lat="45.08491" lon="5.60654">
        <ele>1566</ele>
        <time>2015-06-01T09:57:19Z</time>
      </trkpt>
      <trkpt lat="45.08472" lon="5.60656">
        <ele>1567</ele>
        <time>2015-06-01T09:57:35Z</time>
      </trkpt>
      <trkpt lat="45.08467" lon="5.60656">
        <ele>1567</ele>
        <time>2015-06-01T09:57:41Z</time>
      </trkpt>
      <trkpt lat="45.08456" lon="5.6067">
        <ele>1577</ele>
        <time>2015-06-01T09:57:57Z</time>
      </trkpt>
      <trkpt lat="45.08455" lon="5.60671">
        <ele>1577</ele>
        <time>2015-06-01T09:57:58Z</time>
      </trkpt>
      <trkpt lat="45.08444" lon="5.6068">
        <ele>1578</ele>
        <time>2015-06-01T09:58:13Z</time>
      </trkpt>
      <trkpt lat="45.08442" lon="5.60685">
        <ele>1579</ele>
        <time>2015-06-01T09:58:18Z</time>
      </trkpt>
      <trkpt lat="45.08434" lon="5.60692">
        <ele>1579</ele>
        <time>2015-06-01T09:58:29Z</time>
      </trkpt>
      <trkpt lat="45.0843" lon="5.60704">
        <ele>1580</ele>
        <time>2015-06-01T09:58:43Z</time>
      </trkpt>
      <trkpt lat="45.08424" lon="5.60712">
        <ele>1581</ele>
        <time>2015-06-01T09:58:56Z</time>
      </trkpt>
      <trkpt lat="45.08421" lon="5.60725">
        <ele>1583</ele>
        <time>2015-06-01T09:59:11Z</time>
      </trkpt>
      <trkpt lat="45.08417" lon="5.60736">
        <ele>1585</ele>
        <time>2015-06-01T09:59:25Z</time>
      </trkpt>
      <trkpt lat="45.08413" lon="5.60743">
        <ele>1590</ele>
        <time>2015-06-01T09:59:37Z</time>
      </trkpt>
      <trkpt lat="45.08411" lon="5.60743">
        <ele>1590</ele>
        <time>2015-06-01T09:59:39Z</time>
      </trkpt>
      <trkpt lat="45.08405" lon="5.60754">
        <ele>1593</ele>
        <time>2015-06-01T09:59:52Z</time>
      </trkpt>
      <trkpt lat="45.08402" lon="5.60759">
        <ele>1594</ele>
        <time>2015-06-01T09:59:59Z</time>
      </trkpt>
      <trkpt lat="45.08402" lon="5.60778">
        <ele>1596</ele>
        <time>2015-06-01T10:00:14Z</time>
      </trkpt>
      <trkpt lat="45.08401" lon="5.60782">
        <ele>1597</ele>
        <time>2015-06-01T10:00:17Z</time>
      </trkpt>
      <trkpt lat="45.08394" lon="5.608">
        <ele>1598</ele>
        <time>2015-06-01T10:00:33Z</time>
      </trkpt>
      <trkpt lat="45.08392" lon="5.60801">
        <ele>1598</ele>
        <time>2015-06-01T10:00:35Z</time>
      </trkpt>
      <trkpt lat="45.08382" lon="5.60805">
        <ele>1599</ele>
        <time>2015-06-01T10:00:46Z</time>
      </trkpt>
      <trkpt lat="45.08376" lon="5.60809">
        <ele>1599</ele>
        <time>2015-06-01T10:00:52Z</time>
      </trkpt>
      <trkpt lat="45.08368" lon="5.60816">
        <ele>1600</ele>
        <time>2015-06-01T10:01:07Z</time>
      </trkpt>
      <trkpt lat="45.08353" lon="5.60834">
        <ele>1608</ele>
        <time>2015-06-01T10:01:27Z</time>
      </trkpt>
      <trkpt lat="45.08345" lon="5.60848">
        <ele>1608</ele>
        <time>2015-06-01T10:01:43Z</time>
      </trkpt>
      <trkpt lat="45.08343" lon="5.60847">
        <ele>1608</ele>
        <time>2015-06-01T10:01:44Z</time>
      </trkpt>
      <trkpt lat="45.08338" lon="5.60858">
        <ele>1610</ele>
        <time>2015-06-01T10:01:56Z</time>
      </trkpt>
      <trkpt lat="45.08337" lon="5.6086">
        <ele>1610</ele>
        <time>2015-06-01T10:01:58Z</time>
      </trkpt>
      <trkpt lat="45.08331" lon="5.60871">
        <ele>1615</ele>
        <time>2015-06-01T10:02:13Z</time>
      </trkpt>
      <trkpt lat="45.08325" lon="5.60884">
        <ele>1617</ele>
        <time>2015-06-01T10:02:26Z</time>
      </trkpt>
      <trkpt lat="45.08323" lon="5.60895">
        <ele>1618</ele>
        <time>2015-06-01T10:02:38Z</time>
      </trkpt>
      <trkpt lat="45.08321" lon="5.60915">
        <ele>1619</ele>
        <time>2015-06-01T10:02:55Z</time>
      </trkpt>
      <trkpt lat="45.08319" lon="5.6093">
        <ele>1632</ele>
        <time>2015-06-01T10:03:10Z</time>
      </trkpt>
      <trkpt lat="45.08308" lon="5.6094">
        <ele>1637</ele>
        <time>2015-06-01T10:03:29Z</time>
      </trkpt>
      <trkpt lat="45.08298" lon="5.60949">
        <ele>1640</ele>
        <time>2015-06-01T10:03:45Z</time>
      </trkpt>
      <trkpt lat="45.08291" lon="5.6096">
        <ele>1643</ele>
        <time>2015-06-01T10:04:00Z</time>
      </trkpt>
      <trkpt lat="45.08292" lon="5.60972">
        <ele>1645</ele>
        <time>2015-06-01T10:04:13Z</time>
      </trkpt>
      <trkpt lat="45.08288" lon="5.60981">
        <ele>1647</ele>
        <time>2015-06-01T10:04:26Z</time>
      </trkpt>
      <trkpt lat="45.08289" lon="5.60991">
        <ele>1648</ele>
        <time>2015-06-01T10:04:38Z</time>
      </trkpt>
      <trkpt lat="45.0828" lon="5.60993">
        <ele>1649</ele>
        <time>2015-06-01T10:04:53Z</time>
      </trkpt>
      <trkpt lat="45.08274" lon="5.61">
        <ele>1669</ele>
        <time>2015-06-01T10:05:06Z</time>
      </trkpt>
      <trkpt lat="45.08275" lon="5.61001">
        <ele>1669</ele>
        <time>2015-06-01T10:05:07Z</time>
      </trkpt>
      <trkpt lat="45.08279" lon="5.61012">
        <ele>1671</ele>
        <time>2015-06-01T10:05:20Z</time>
      </trkpt>
      <trkpt lat="45.08283" lon="5.61017">
        <ele>1672</ele>
        <time>2015-06-01T10:05:29Z</time>
      </trkpt>
      <trkpt lat="45.08286" lon="5.61027">
        <ele>1673</ele>
        <time>2015-06-01T10:05:42Z</time>
      </trkpt>
      <trkpt lat="45.08276" lon="5.6103">
        <ele>1674</ele>
        <time>2015-06-01T10:05:59Z</time>
      </trkpt>
      <trkpt lat="45.08269" lon="5.61031">
        <ele>1674</ele>
        <time>2015-06-01T10:06:15Z</time>
      </trkpt>
      <trkpt lat="45.08261" lon="5.61032">
        <ele>1674</ele>
        <time>2015-06-01T10:06:31Z</time>
      </trkpt>
      <trkpt lat="45.08255" lon="5.61035">
        <ele>1675</ele>
        <time>2015-06-01T10:06:46Z</time>
      </trkpt>
      <trkpt lat="45.08246" lon="5.61037">
        <ele>1686</ele>
        <time>2015-06-01T10:07:01Z</time>
      </trkpt>
      <trkpt lat="45.08239" lon="5.61038">
        <ele>1687</ele>
        <time>2015-06-01T10:07:16Z</time>
      </trkpt>
      <trkpt lat="45.08232" lon="5.61039">
        <ele>1688</ele>
        <time>2015-06-01T10:07:31Z</time>
      </trkpt>
      <trkpt lat="45.08225" lon="5.61042">
        <ele>1690</ele>
        <time>2015-06-01T10:07:50Z</time>
      </trkpt>
      <trkpt lat="45.08215" lon="5.61039">
        <ele>1691</ele>
        <time>2015-06-01T10:08:05Z</time>
      </trkpt>
      <trkpt lat="45.08212" lon="5.61049">
        <ele>1694</ele>
        <time>2015-06-01T10:08:21Z</time>
      </trkpt>
      <trkpt lat="45.08218" lon="5.61066">
        <ele>1696</ele>
        <time>2015-06-01T10:08:39Z</time>
      </trkpt>
      <trkpt lat="45.08227" lon="5.61084">
        <ele>1714</ele>
        <time>2015-06-01T10:08:56Z</time>
      </trkpt>
      <trkpt lat="45.08237" lon="5.61089">
        <ele>1709</ele>
        <time>2015-06-01T10:09:07Z</time>
      </trkpt>
      <trkpt lat="45.08253" lon="5.6108">
        <ele>1693</ele>
        <time>2015-06-01T10:09:24Z</time>
      </trkpt>
      <trkpt lat="45.08264" lon="5.61082">
        <ele>1688</ele>
        <time>2015-06-01T10:09:34Z</time>
      </trkpt>
      <trkpt lat="45.08267" lon="5.61078">
        <ele>1687</ele>
        <time>2015-06-01T10:09:48Z</time>
      </trkpt>
      <trkpt lat="45.08268" lon="5.61076">
        <ele>1686</ele>
        <time>2015-06-01T10:10:07Z</time>
      </trkpt>
      <trkpt lat="45.08286" lon="5.61069">
        <ele>1681</ele>
        <time>2015-06-01T10:10:20Z</time>
      </trkpt>
      <trkpt lat="45.08307" lon="5.61069">
        <ele>1680</ele>
        <time>2015-06-01T10:10:33Z</time>
      </trkpt>
      <trkpt lat="45.08312" lon="5.61074">
        <ele>1681</ele>
        <time>2015-06-01T10:10:44Z</time>
      </trkpt>
      <trkpt lat="45.08323" lon="5.61084">
        <ele>1692</ele>
        <time>2015-06-01T10:11:02Z</time>
      </trkpt>
      <trkpt lat="45.08326" lon="5.61088">
        <ele>1692</ele>
        <time>2015-06-01T10:11:14Z</time>
      </trkpt>
      <trkpt lat="45.08326" lon="5.61088">
        <ele>1691</ele>
        <time>2015-06-01T10:11:20Z</time>
      </trkpt>
      <trkpt lat="45.08332" lon="5.61123">
        <ele>1700</ele>
        <time>2015-06-01T10:11:37Z</time>
      </trkpt>
      <trkpt lat="45.08338" lon="5.6116">
        <ele>1703</ele>
        <time>2015-06-01T10:11:53Z</time>
      </trkpt>
      <trkpt lat="45.08339" lon="5.61184">
        <ele>1709</ele>
        <time>2015-06-01T10:12:04Z</time>
      </trkpt>
      <trkpt lat="45.08342" lon="5.61193">
        <ele>1710</ele>
        <time>2015-06-01T10:12:08Z</time>
      </trkpt>
      <trkpt lat="45.0834" lon="5.61217">
        <ele>1714</ele>
        <time>2015-06-01T10:12:21Z</time>
      </trkpt>
      <trkpt lat="45.0834" lon="5.61237">
        <ele>1717</ele>
        <time>2015-06-01T10:12:32Z</time>
      </trkpt>
      <trkpt lat="45.0834" lon="5.61245">
        <ele>1718</ele>
        <time>2015-06-01T10:12:44Z</time>
      </trkpt>
      <trkpt lat="45.0834" lon="5.61256">
        <ele>1723</ele>
        <time>2015-06-01T10:13:01Z</time>
      </trkpt>
      <trkpt lat="45.0834" lon="5.61258">
        <ele>1723</ele>
        <time>2015-06-01T10:13:13Z</time>
      </trkpt>
      <trkpt lat="45.08338" lon="5.61267">
        <ele>1725</ele>
        <time>2015-06-01T10:13:19Z</time>
      </trkpt>
      <trkpt lat="45.08334" lon="5.61283">
        <ele>1727</ele>
        <time>2015-06-01T10:13:29Z</time>
      </trkpt>
      <trkpt lat="45.08332" lon="5.61298">
        <ele>1728</ele>
        <time>2015-06-01T10:13:38Z</time>
      </trkpt>
      <trkpt lat="45.08329" lon="5.61311">
        <ele>1729</ele>
        <time>2015-06-01T10:13:51Z</time>
      </trkpt>
      <trkpt lat="45.08324" lon="5.61324">
        <ele>1731</ele>
        <time>2015-06-01T10:14:10Z</time>
      </trkpt>
      <trkpt lat="45.08319" lon="5.61327">
        <ele>1730</ele>
        <time>2015-06-01T10:14:17Z</time>
      </trkpt>
      <trkpt lat="45.08314" lon="5.61334">
        <ele>1724</ele>
        <time>2015-06-01T10:14:27Z</time>
      </trkpt>
      <trkpt lat="45.08313" lon="5.61336">
        <ele>1723</ele>
        <time>2015-06-01T10:14:29Z</time>
      </trkpt>
      <trkpt lat="45.0831" lon="5.61351">
        <ele>1721</ele>
        <time>2015-06-01T10:14:47Z</time>
      </trkpt>
      <trkpt lat="45.0831" lon="5.61352">
        <ele>1721</ele>
        <time>2015-06-01T10:15:29Z</time>
      </trkpt>
      <trkpt lat="45.0831" lon="5.61351">
        <ele>1721</ele>
        <time>2015-06-01T10:26:01Z</time>
      </trkpt>
      <trkpt lat="45.08309" lon="5.61351">
        <ele>1720</ele>
        <time>2015-06-01T10:26:18Z</time>
      </trkpt>
      <trkpt lat="45.08305" lon="5.61349">
        <ele>1720</ele>
        <time>2015-06-01T10:26:21Z</time>
      </trkpt>
      <trkpt lat="45.08296" lon="5.61354">
        <ele>1718</ele>
        <time>2015-06-01T10:26:25Z</time>
      </trkpt>
      <trkpt lat="45.08284" lon="5.6136">
        <ele>1716</ele>
        <time>2015-06-01T10:26:29Z</time>
      </trkpt>
      <trkpt lat="45.08277" lon="5.61353">
        <ele>1717</ele>
        <time>2015-06-01T10:26:33Z</time>
      </trkpt>
      <trkpt lat="45.08265" lon="5.61351">
        <ele>1717</ele>
        <time>2015-06-01T10:26:39Z</time>
      </trkpt>
      <trkpt lat="45.08262" lon="5.61352">
        <ele>1717</ele>
        <time>2015-06-01T10:26:40Z</time>
      </trkpt>
      <trkpt lat="45.08256" lon="5.61352">
        <ele>1717</ele>
        <time>2015-06-01T10:26:43Z</time>
      </trkpt>
      <trkpt lat="45.08254" lon="5.61356">
        <ele>1716</ele>
        <time>2015-06-01T10:26:45Z</time>
      </trkpt>
      <trkpt lat="45.0825" lon="5.61356">
        <ele>1716</ele>
        <time>2015-06-01T10:26:47Z</time>
      </trkpt>
      <trkpt lat="45.08246" lon="5.61355">
        <ele>1708</ele>
        <time>2015-06-01T10:26:49Z</time>
      </trkpt>
      <trkpt lat="45.08235" lon="5.61357">
        <ele>1706</ele>
        <time>2015-06-01T10:26:52Z</time>
      </trkpt>
      <trkpt lat="45.08216" lon="5.61353">
        <ele>1703</ele>
        <time>2015-06-01T10:26:58Z</time>
      </trkpt>
      <trkpt lat="45.08213" lon="5.6135">
        <ele>1703</ele>
        <time>2015-06-01T10:26:59Z</time>
      </trkpt>
      <trkpt lat="45.08209" lon="5.61343">
        <ele>1703</ele>
        <time>2015-06-01T10:27:02Z</time>
      </trkpt>
      <trkpt lat="45.08203" lon="5.61339">
        <ele>1703</ele>
        <time>2015-06-01T10:27:05Z</time>
      </trkpt>
      <trkpt lat="45.08198" lon="5.6134">
        <ele>1703</ele>
        <time>2015-06-01T10:27:09Z</time>
      </trkpt>
      <trkpt lat="45.08191" lon="5.61344">
        <ele>1702</ele>
        <time>2015-06-01T10:27:14Z</time>
      </trkpt>
      <trkpt lat="45.08179" lon="5.61341">
        <ele>1703</ele>
        <time>2015-06-01T10:27:19Z</time>
      </trkpt>
      <trkpt lat="45.0817" lon="5.6134">
        <ele>1704</ele>
        <time>2015-06-01T10:27:23Z</time>
      </trkpt>
      <trkpt lat="45.08158" lon="5.61341">
        <ele>1699</ele>
        <time>2015-06-01T10:27:28Z</time>
      </trkpt>
      <trkpt lat="45.08146" lon="5.61347">
        <ele>1694</ele>
        <time>2015-06-01T10:27:33Z</time>
      </trkpt>
      <trkpt lat="45.08137" lon="5.6135">
        <ele>1692</ele>
        <time>2015-06-01T10:27:36Z</time>
      </trkpt>
      <trkpt lat="45.08132" lon="5.61356">
        <ele>1690</ele>
        <time>2015-06-01T10:27:38Z</time>
      </trkpt>
      <trkpt lat="45.0812" lon="5.61361">
        <ele>1688</ele>
        <time>2015-06-01T10:27:41Z</time>
      </trkpt>
      <trkpt lat="45.08096" lon="5.6137">
        <ele>1686</ele>
        <time>2015-06-01T10:27:51Z</time>
      </trkpt>
      <trkpt lat="45.08089" lon="5.61372">
        <ele>1685</ele>
        <time>2015-06-01T10:27:54Z</time>
      </trkpt>
      <trkpt lat="45.08082" lon="5.61381">
        <ele>1675</ele>
        <time>2015-06-01T10:27:59Z</time>
      </trkpt>
      <trkpt lat="45.08085" lon="5.61385">
        <ele>1680</ele>
        <time>2015-06-01T10:28:01Z</time>
      </trkpt>
      <trkpt lat="45.08095" lon="5.61391">
        <ele>1678</ele>
        <time>2015-06-01T10:28:05Z</time>
      </trkpt>
      <trkpt lat="45.08097" lon="5.61392">
        <ele>1678</ele>
        <time>2015-06-01T10:28:06Z</time>
      </trkpt>
      <trkpt lat="45.08099" lon="5.61395">
        <ele>1677</ele>
        <time>2015-06-01T10:28:08Z</time>
      </trkpt>
      <trkpt lat="45.08094" lon="5.61401">
        <ele>1673</ele>
        <time>2015-06-01T10:28:12Z</time>
      </trkpt>
      <trkpt lat="45.08085" lon="5.61404">
        <ele>1670</ele>
        <time>2015-06-01T10:28:21Z</time>
      </trkpt>
      <trkpt lat="45.0807" lon="5.61409">
        <ele>1666</ele>
        <time>2015-06-01T10:28:30Z</time>
      </trkpt>
      <trkpt lat="45.08054" lon="5.61417">
        <ele>1667</ele>
        <time>2015-06-01T10:28:34Z</time>
      </trkpt>
      <trkpt lat="45.08046" lon="5.61419">
        <ele>1638</ele>
        <time>2015-06-01T10:28:36Z</time>
      </trkpt>
      <trkpt lat="45.08033" lon="5.61424">
        <ele>1636</ele>
        <time>2015-06-01T10:28:40Z</time>
      </trkpt>
      <trkpt lat="45.08029" lon="5.61424">
        <ele>1636</ele>
        <time>2015-06-01T10:28:41Z</time>
      </trkpt>
      <trkpt lat="45.08014" lon="5.61431">
        <ele>1636</ele>
        <time>2015-06-01T10:28:45Z</time>
      </trkpt>
      <trkpt lat="45.07997" lon="5.61443">
        <ele>1631</ele>
        <time>2015-06-01T10:28:49Z</time>
      </trkpt>
      <trkpt lat="45.0798" lon="5.61453">
        <ele>1628</ele>
        <time>2015-06-01T10:28:53Z</time>
      </trkpt>
      <trkpt lat="45.07966" lon="5.61459">
        <ele>1627</ele>
        <time>2015-06-01T10:28:57Z</time>
      </trkpt>
      <trkpt lat="45.07938" lon="5.61461">
        <ele>1627</ele>
        <time>2015-06-01T10:29:05Z</time>
      </trkpt>
      <trkpt lat="45.07936" lon="5.6146">
        <ele>1627</ele>
        <time>2015-06-01T10:29:06Z</time>
      </trkpt>
      <trkpt lat="45.07921" lon="5.61458">
        <ele>1628</ele>
        <time>2015-06-01T10:29:11Z</time>
      </trkpt>
      <trkpt lat="45.07906" lon="5.61457">
        <ele>1624</ele>
        <time>2015-06-01T10:29:16Z</time>
      </trkpt>
      <trkpt lat="45.07904" lon="5.61457">
        <ele>1624</ele>
        <time>2015-06-01T10:29:17Z</time>
      </trkpt>
      <trkpt lat="45.079" lon="5.61463">
        <ele>1622</ele>
        <time>2015-06-01T10:29:22Z</time>
      </trkpt>
      <trkpt lat="45.07911" lon="5.61473">
        <ele>1618</ele>
        <time>2015-06-01T10:29:27Z</time>
      </trkpt>
      <trkpt lat="45.07935" lon="5.61492">
        <ele>1617</ele>
        <time>2015-06-01T10:29:33Z</time>
      </trkpt>
      <trkpt lat="45.07948" lon="5.61501">
        <ele>1597</ele>
        <time>2015-06-01T10:29:36Z</time>
      </trkpt>
      <trkpt lat="45.07971" lon="5.61514">
        <ele>1596</ele>
        <time>2015-06-01T10:29:41Z</time>
      </trkpt>
      <trkpt lat="45.07984" lon="5.61524">
        <ele>1596</ele>
        <time>2015-06-01T10:29:44Z</time>
      </trkpt>
      <trkpt lat="45.08005" lon="5.61527">
        <ele>1600</ele>
        <time>2015-06-01T10:29:48Z</time>
      </trkpt>
      <trkpt lat="45.08036" lon="5.61538">
        <ele>1597</ele>
        <time>2015-06-01T10:29:56Z</time>
      </trkpt>
      <trkpt lat="45.08051" lon="5.61539">
        <ele>1597</ele>
        <time>2015-06-01T10:30:04Z</time>
      </trkpt>
      <trkpt lat="45.08057" lon="5.61539">
        <ele>1597</ele>
        <time>2015-06-01T10:30:08Z</time>
      </trkpt>
      <trkpt lat="45.08065" lon="5.61543">
        <ele>1596</ele>
        <time>2015-06-01T10:30:11Z</time>
      </trkpt>
      <trkpt lat="45.08078" lon="5.6155">
        <ele>1595</ele>
        <time>2015-06-01T10:30:14Z</time>
      </trkpt>
      <trkpt lat="45.08088" lon="5.61563">
        <ele>1594</ele>
        <time>2015-06-01T10:30:20Z</time>
      </trkpt>
      <trkpt lat="45.08096" lon="5.61582">
        <ele>1590</ele>
        <time>2015-06-01T10:30:27Z</time>
      </trkpt>
      <trkpt lat="45.08111" lon="5.61589">
        <ele>1575</ele>
        <time>2015-06-01T10:30:33Z</time>
      </trkpt>
      <trkpt lat="45.0812" lon="5.61594">
        <ele>1574</ele>
        <time>2015-06-01T10:30:36Z</time>
      </trkpt>
      <trkpt lat="45.08125" lon="5.61594">
        <ele>1574</ele>
        <time>2015-06-01T10:30:39Z</time>
      </trkpt>
      <trkpt lat="45.08135" lon="5.61597">
        <ele>1573</ele>
        <time>2015-06-01T10:30:44Z</time>
      </trkpt>
      <trkpt lat="45.08141" lon="5.61598">
        <ele>1574</ele>
        <time>2015-06-01T10:30:46Z</time>
      </trkpt>
      <trkpt lat="45.08145" lon="5.616">
        <ele>1573</ele>
        <time>2015-06-01T10:31:02Z</time>
      </trkpt>
      <trkpt lat="45.0815" lon="5.61601">
        <ele>1574</ele>
        <time>2015-06-01T10:31:23Z</time>
      </trkpt>
      <trkpt lat="45.0815" lon="5.61601">
        <ele>1574</ele>
        <time>2015-06-01T10:31:24Z</time>
      </trkpt>
      <trkpt lat="45.08151" lon="5.6161">
        <ele>1572</ele>
        <time>2015-06-01T10:31:29Z</time>
      </trkpt>
      <trkpt lat="45.08146" lon="5.61615">
        <ele>1571</ele>
        <time>2015-06-01T10:31:34Z</time>
      </trkpt>
      <trkpt lat="45.08147" lon="5.61619">
        <ele>1571</ele>
        <time>2015-06-01T10:31:36Z</time>
      </trkpt>
      <trkpt lat="45.08154" lon="5.61624">
        <ele>1570</ele>
        <time>2015-06-01T10:31:40Z</time>
      </trkpt>
      <trkpt lat="45.08167" lon="5.61629">
        <ele>1563</ele>
        <time>2015-06-01T10:31:45Z</time>
      </trkpt>
      <trkpt lat="45.08188" lon="5.61632">
        <ele>1562</ele>
        <time>2015-06-01T10:31:54Z</time>
      </trkpt>
      <trkpt lat="45.0819" lon="5.61632">
        <ele>1562</ele>
        <time>2015-06-01T10:31:55Z</time>
      </trkpt>
      <trkpt lat="45.08194" lon="5.61633">
        <ele>1562</ele>
        <time>2015-06-01T10:32:01Z</time>
      </trkpt>
      <trkpt lat="45.08196" lon="5.61631">
        <ele>1562</ele>
        <time>2015-06-01T10:32:03Z</time>
      </trkpt>
      <trkpt lat="45.08213" lon="5.61626">
        <ele>1561</ele>
        <time>2015-06-01T10:32:12Z</time>
      </trkpt>
      <trkpt lat="45.08222" lon="5.6163">
        <ele>1560</ele>
        <time>2015-06-01T10:32:16Z</time>
      </trkpt>
      <trkpt lat="45.08231" lon="5.61627">
        <ele>1560</ele>
        <time>2015-06-01T10:32:19Z</time>
      </trkpt>
      <trkpt lat="45.08234" lon="5.61625">
        <ele>1560</ele>
        <time>2015-06-01T10:32:20Z</time>
      </trkpt>
      <trkpt lat="45.08242" lon="5.61617">
        <ele>1562</ele>
        <time>2015-06-01T10:32:31Z</time>
      </trkpt>
      <trkpt lat="45.08242" lon="5.61619">
        <ele>1562</ele>
        <time>2015-06-01T10:32:40Z</time>
      </trkpt>
      <trkpt lat="45.08243" lon="5.61624">
        <ele>1560</ele>
        <time>2015-06-01T10:32:45Z</time>
      </trkpt>
      <trkpt lat="45.08244" lon="5.61624">
        <ele>1560</ele>
        <time>2015-06-01T10:32:46Z</time>
      </trkpt>
      <trkpt lat="45.08249" lon="5.61624">
        <ele>1560</ele>
        <time>2015-06-01T10:32:49Z</time>
      </trkpt>
      <trkpt lat="45.0825" lon="5.61625">
        <ele>1561</ele>
        <time>2015-06-01T10:32:51Z</time>
      </trkpt>
      <trkpt lat="45.0825" lon="5.6163">
        <ele>1559</ele>
        <time>2015-06-01T10:32:54Z</time>
      </trkpt>
      <trkpt lat="45.08253" lon="5.61633">
        <ele>1559</ele>
        <time>2015-06-01T10:32:57Z</time>
      </trkpt>
      <trkpt lat="45.08253" lon="5.61641">
        <ele>1556</ele>
        <time>2015-06-01T10:33:02Z</time>
      </trkpt>
      <trkpt lat="45.08246" lon="5.61648">
        <ele>1553</ele>
        <time>2015-06-01T10:33:08Z</time>
      </trkpt>
      <trkpt lat="45.08248" lon="5.61652">
        <ele>1551</ele>
        <time>2015-06-01T10:33:12Z</time>
      </trkpt>
      <trkpt lat="45.08247" lon="5.61662">
        <ele>1546</ele>
        <time>2015-06-01T10:33:18Z</time>
      </trkpt>
      <trkpt lat="45.08245" lon="5.61667">
        <ele>1540</ele>
        <time>2015-06-01T10:33:20Z</time>
      </trkpt>
      <trkpt lat="45.08241" lon="5.61672">
        <ele>1539</ele>
        <time>2015-06-01T10:33:23Z</time>
      </trkpt>
      <trkpt lat="45.08236" lon="5.61679">
        <ele>1538</ele>
        <time>2015-06-01T10:33:27Z</time>
      </trkpt>
      <trkpt lat="45.08235" lon="5.61686">
        <ele>1536</ele>
        <time>2015-06-01T10:33:32Z</time>
      </trkpt>
      <trkpt lat="45.08231" lon="5.61696">
        <ele>1534</ele>
        <time>2015-06-01T10:33:36Z</time>
      </trkpt>
      <trkpt lat="45.08225" lon="5.6171">
        <ele>1532</ele>
        <time>2015-06-01T10:33:40Z</time>
      </trkpt>
      <trkpt lat="45.08223" lon="5.61714">
        <ele>1531</ele>
        <time>2015-06-01T10:33:42Z</time>
      </trkpt>
      <trkpt lat="45.08217" lon="5.61722">
        <ele>1530</ele>
        <time>2015-06-01T10:33:46Z</time>
      </trkpt>
      <trkpt lat="45.0821" lon="5.61737">
        <ele>1528</ele>
        <time>2015-06-01T10:33:50Z</time>
      </trkpt>
      <trkpt lat="45.08199" lon="5.61752">
        <ele>1508</ele>
        <time>2015-06-01T10:33:55Z</time>
      </trkpt>
      <trkpt lat="45.08195" lon="5.61757">
        <ele>1509</ele>
        <time>2015-06-01T10:33:58Z</time>
      </trkpt>
      <trkpt lat="45.08194" lon="5.61765">
        <ele>1507</ele>
        <time>2015-06-01T10:34:01Z</time>
      </trkpt>
      <trkpt lat="45.08198" lon="5.61767">
        <ele>1506</ele>
        <time>2015-06-01T10:34:03Z</time>
      </trkpt>
      <trkpt lat="45.08198" lon="5.61768">
        <ele>1506</ele>
        <time>2015-06-01T10:34:04Z</time>
      </trkpt>
      <trkpt lat="45.08201" lon="5.6177">
        <ele>1505</ele>
        <time>2015-06-01T10:34:06Z</time>
      </trkpt>
      <trkpt lat="45.08202" lon="5.61772">
        <ele>1505</ele>
        <time>2015-06-01T10:34:08Z</time>
      </trkpt>
      <trkpt lat="45.08192" lon="5.61785">
        <ele>1503</ele>
        <time>2015-06-01T10:34:17Z</time>
      </trkpt>
      <trkpt lat="45.08185" lon="5.61792">
        <ele>1501</ele>
        <time>2015-06-01T10:34:22Z</time>
      </trkpt>
      <trkpt lat="45.08186" lon="5.61791">
        <ele>1501</ele>
        <time>2015-06-01T10:34:25Z</time>
      </trkpt>
      <trkpt lat="45.08195" lon="5.618">
        <ele>1499</ele>
        <time>2015-06-01T10:34:32Z</time>
      </trkpt>
      <trkpt lat="45.08206" lon="5.61801">
        <ele>1498</ele>
        <time>2015-06-01T10:34:38Z</time>
      </trkpt>
      <trkpt lat="45.08211" lon="5.61799">
        <ele>1498</ele>
        <time>2015-06-01T10:34:40Z</time>
      </trkpt>
      <trkpt lat="45.08218" lon="5.61803">
        <ele>1497</ele>
        <time>2015-06-01T10:34:44Z</time>
      </trkpt>
      <trkpt lat="45.08229" lon="5.61803">
        <ele>1496</ele>
        <time>2015-06-01T10:34:48Z</time>
      </trkpt>
      <trkpt lat="45.08231" lon="5.61806">
        <ele>1495</ele>
        <time>2015-06-01T10:34:49Z</time>
      </trkpt>
      <trkpt lat="45.08233" lon="5.61806">
        <ele>1494</ele>
        <time>2015-06-01T10:34:50Z</time>
      </trkpt>
      <trkpt lat="45.08241" lon="5.61813">
        <ele>1491</ele>
        <time>2015-06-01T10:34:54Z</time>
      </trkpt>
      <trkpt lat="45.08249" lon="5.61819">
        <ele>1488</ele>
        <time>2015-06-01T10:34:58Z</time>
      </trkpt>
      <trkpt lat="45.08252" lon="5.6183">
        <ele>1481</ele>
        <time>2015-06-01T10:35:03Z</time>
      </trkpt>
      <trkpt lat="45.0825" lon="5.61833">
        <ele>1479</ele>
        <time>2015-06-01T10:35:05Z</time>
      </trkpt>
      <trkpt lat="45.08251" lon="5.61849">
        <ele>1472</ele>
        <time>2015-06-01T10:35:11Z</time>
      </trkpt>
      <trkpt lat="45.0825" lon="5.6185">
        <ele>1472</ele>
        <time>2015-06-01T10:35:12Z</time>
      </trkpt>
      <trkpt lat="45.08246" lon="5.61853">
        <ele>1470</ele>
        <time>2015-06-01T10:35:14Z</time>
      </trkpt>
      <trkpt lat="45.08244" lon="5.61866">
        <ele>1466</ele>
        <time>2015-06-01T10:35:19Z</time>
      </trkpt>
      <trkpt lat="45.08241" lon="5.6187">
        <ele>1465</ele>
        <time>2015-06-01T10:35:21Z</time>
      </trkpt>
      <trkpt lat="45.08244" lon="5.61873">
        <ele>1464</ele>
        <time>2015-06-01T10:35:24Z</time>
      </trkpt>
      <trkpt lat="45.08254" lon="5.61881">
        <ele>1462</ele>
        <time>2015-06-01T10:35:29Z</time>
      </trkpt>
      <trkpt lat="45.08261" lon="5.61895">
        <ele>1458</ele>
        <time>2015-06-01T10:35:35Z</time>
      </trkpt>
      <trkpt lat="45.08261" lon="5.61897">
        <ele>1458</ele>
        <time>2015-06-01T10:35:37Z</time>
      </trkpt>
      <trkpt lat="45.08263" lon="5.61901">
        <ele>1457</ele>
        <time>2015-06-01T10:35:39Z</time>
      </trkpt>
      <trkpt lat="45.08269" lon="5.61904">
        <ele>1457</ele>
        <time>2015-06-01T10:35:44Z</time>
      </trkpt>
      <trkpt lat="45.08278" lon="5.61915">
        <ele>1458</ele>
        <time>2015-06-01T10:35:47Z</time>
      </trkpt>
      <trkpt lat="45.08283" lon="5.6192">
        <ele>1439</ele>
        <time>2015-06-01T10:35:49Z</time>
      </trkpt>
      <trkpt lat="45.08286" lon="5.61926">
        <ele>1439</ele>
        <time>2015-06-01T10:35:53Z</time>
      </trkpt>
      <trkpt lat="45.08281" lon="5.61933">
        <ele>1438</ele>
        <time>2015-06-01T10:35:58Z</time>
      </trkpt>
      <trkpt lat="45.08275" lon="5.61937">
        <ele>1437</ele>
        <time>2015-06-01T10:36:01Z</time>
      </trkpt>
      <trkpt lat="45.08267" lon="5.6195">
        <ele>1434</ele>
        <time>2015-06-01T10:36:05Z</time>
      </trkpt>
      <trkpt lat="45.08259" lon="5.61955">
        <ele>1433</ele>
        <time>2015-06-01T10:36:09Z</time>
      </trkpt>
      <trkpt lat="45.08251" lon="5.61965">
        <ele>1429</ele>
        <time>2015-06-01T10:36:13Z</time>
      </trkpt>
      <trkpt lat="45.08247" lon="5.61968">
        <ele>1422</ele>
        <time>2015-06-01T10:36:16Z</time>
      </trkpt>
      <trkpt lat="45.08239" lon="5.61975">
        <ele>1420</ele>
        <time>2015-06-01T10:36:20Z</time>
      </trkpt>
      <trkpt lat="45.08237" lon="5.61981">
        <ele>1418</ele>
        <time>2015-06-01T10:36:22Z</time>
      </trkpt>
      <trkpt lat="45.08243" lon="5.61984">
        <ele>1416</ele>
        <time>2015-06-01T10:36:26Z</time>
      </trkpt>
      <trkpt lat="45.08247" lon="5.61999">
        <ele>1407</ele>
        <time>2015-06-01T10:36:33Z</time>
      </trkpt>
      <trkpt lat="45.08244" lon="5.61998">
        <ele>1410</ele>
        <time>2015-06-01T10:36:36Z</time>
      </trkpt>
      <trkpt lat="45.08238" lon="5.62">
        <ele>1413</ele>
        <time>2015-06-01T10:36:39Z</time>
      </trkpt>
      <trkpt lat="45.08231" lon="5.62018">
        <ele>1396</ele>
        <time>2015-06-01T10:36:44Z</time>
      </trkpt>
      <trkpt lat="45.0823" lon="5.62019">
        <ele>1395</ele>
        <time>2015-06-01T10:36:45Z</time>
      </trkpt>
      <trkpt lat="45.08228" lon="5.62035">
        <ele>1392</ele>
        <time>2015-06-01T10:36:53Z</time>
      </trkpt>
      <trkpt lat="45.08224" lon="5.62031">
        <ele>1393</ele>
        <time>2015-06-01T10:37:08Z</time>
      </trkpt>
      <trkpt lat="45.0822" lon="5.6204">
        <ele>1391</ele>
        <time>2015-06-01T10:38:04Z</time>
      </trkpt>
      <trkpt lat="45.08215" lon="5.62041">
        <ele>1391</ele>
        <time>2015-06-01T10:38:09Z</time>
      </trkpt>
      <trkpt lat="45.08212" lon="5.62039">
        <ele>1391</ele>
        <time>2015-06-01T10:38:12Z</time>
      </trkpt>
      <trkpt lat="45.08208" lon="5.62059">
        <ele>1387</ele>
        <time>2015-06-01T10:38:18Z</time>
      </trkpt>
      <trkpt lat="45.08201" lon="5.62056">
        <ele>1387</ele>
        <time>2015-06-01T10:38:23Z</time>
      </trkpt>
      <trkpt lat="45.08199" lon="5.62063">
        <ele>1386</ele>
        <time>2015-06-01T10:38:27Z</time>
      </trkpt>
      <trkpt lat="45.08197" lon="5.62073">
        <ele>1384</ele>
        <time>2015-06-01T10:38:33Z</time>
      </trkpt>
      <trkpt lat="45.08195" lon="5.62083">
        <ele>1364</ele>
        <time>2015-06-01T10:38:42Z</time>
      </trkpt>
      <trkpt lat="45.08188" lon="5.62083">
        <ele>1382</ele>
        <time>2015-06-01T10:38:45Z</time>
      </trkpt>
      <trkpt lat="45.08189" lon="5.6209">
        <ele>1364</ele>
        <time>2015-06-01T10:38:52Z</time>
      </trkpt>
      <trkpt lat="45.08192" lon="5.62096">
        <ele>1363</ele>
        <time>2015-06-01T10:38:54Z</time>
      </trkpt>
      <trkpt lat="45.08195" lon="5.62097">
        <ele>1362</ele>
        <time>2015-06-01T10:38:56Z</time>
      </trkpt>
      <trkpt lat="45.08206" lon="5.62139">
        <ele>1354</ele>
        <time>2015-06-01T10:39:05Z</time>
      </trkpt>
      <trkpt lat="45.08209" lon="5.6215">
        <ele>1352</ele>
        <time>2015-06-01T10:39:09Z</time>
      </trkpt>
      <trkpt lat="45.08217" lon="5.62161">
        <ele>1351</ele>
        <time>2015-06-01T10:39:13Z</time>
      </trkpt>
      <trkpt lat="45.08219" lon="5.62168">
        <ele>1332</ele>
        <time>2015-06-01T10:39:15Z</time>
      </trkpt>
      <trkpt lat="45.08232" lon="5.62186">
        <ele>1332</ele>
        <time>2015-06-01T10:39:21Z</time>
      </trkpt>
      <trkpt lat="45.08233" lon="5.62188">
        <ele>1332</ele>
        <time>2015-06-01T10:39:22Z</time>
      </trkpt>
      <trkpt lat="45.0824" lon="5.622">
        <ele>1330</ele>
        <time>2015-06-01T10:39:27Z</time>
      </trkpt>
      <trkpt lat="45.0824" lon="5.62208">
        <ele>1328</ele>
        <time>2015-06-01T10:39:30Z</time>
      </trkpt>
      <trkpt lat="45.08239" lon="5.62217">
        <ele>1327</ele>
        <time>2015-06-01T10:39:33Z</time>
      </trkpt>
      <trkpt lat="45.08241" lon="5.6223">
        <ele>1325</ele>
        <time>2015-06-01T10:39:36Z</time>
      </trkpt>
      <trkpt lat="45.08237" lon="5.62237">
        <ele>1324</ele>
        <time>2015-06-01T10:39:39Z</time>
      </trkpt>
      <trkpt lat="45.08228" lon="5.62244">
        <ele>1323</ele>
        <time>2015-06-01T10:39:42Z</time>
      </trkpt>
      <trkpt lat="45.08224" lon="5.62267">
        <ele>1305</ele>
        <time>2015-06-01T10:39:47Z</time>
      </trkpt>
      <trkpt lat="45.08227" lon="5.62277">
        <ele>1304</ele>
        <time>2015-06-01T10:39:50Z</time>
      </trkpt>
      <trkpt lat="45.08226" lon="5.62288">
        <ele>1302</ele>
        <time>2015-06-01T10:39:52Z</time>
      </trkpt>
      <trkpt lat="45.08231" lon="5.62315">
        <ele>1300</ele>
        <time>2015-06-01T10:39:56Z</time>
      </trkpt>
      <trkpt lat="45.08233" lon="5.62338">
        <ele>1290</ele>
        <time>2015-06-01T10:39:59Z</time>
      </trkpt>
      <trkpt lat="45.08235" lon="5.62352">
        <ele>1288</ele>
        <time>2015-06-01T10:40:03Z</time>
      </trkpt>
      <trkpt lat="45.08236" lon="5.62357">
        <ele>1287</ele>
        <time>2015-06-01T10:40:04Z</time>
      </trkpt>
      <trkpt lat="45.08233" lon="5.62355">
        <ele>1286</ele>
        <time>2015-06-01T10:40:06Z</time>
      </trkpt>
      <trkpt lat="45.08228" lon="5.62355">
        <ele>1284</ele>
        <time>2015-06-01T10:40:10Z</time>
      </trkpt>
      <trkpt lat="45.08223" lon="5.62358">
        <ele>1283</ele>
        <time>2015-06-01T10:40:12Z</time>
      </trkpt>
      <trkpt lat="45.08225" lon="5.62361">
        <ele>1283</ele>
        <time>2015-06-01T10:40:14Z</time>
      </trkpt>
      <trkpt lat="45.08229" lon="5.62382">
        <ele>1282</ele>
        <time>2015-06-01T10:40:18Z</time>
      </trkpt>
      <trkpt lat="45.08225" lon="5.62414">
        <ele>1281</ele>
        <time>2015-06-01T10:40:22Z</time>
      </trkpt>
      <trkpt lat="45.08221" lon="5.6242">
        <ele>1274</ele>
        <time>2015-06-01T10:40:23Z</time>
      </trkpt>
      <trkpt lat="45.08218" lon="5.6243">
        <ele>1272</ele>
        <time>2015-06-01T10:40:31Z</time>
      </trkpt>
      <trkpt lat="45.08217" lon="5.62449">
        <ele>1270</ele>
        <time>2015-06-01T10:40:39Z</time>
      </trkpt>
      <trkpt lat="45.08211" lon="5.62452">
        <ele>1267</ele>
        <time>2015-06-01T10:40:52Z</time>
      </trkpt>
      <trkpt lat="45.08208" lon="5.62454">
        <ele>1266</ele>
        <time>2015-06-01T10:41:07Z</time>
      </trkpt>
      <trkpt lat="45.08207" lon="5.62453">
        <ele>1266</ele>
        <time>2015-06-01T10:41:26Z</time>
      </trkpt>
      <trkpt lat="45.082" lon="5.6244">
        <ele>1264</ele>
        <time>2015-06-01T10:41:31Z</time>
      </trkpt>
      <trkpt lat="45.082" lon="5.62438">
        <ele>1263</ele>
        <time>2015-06-01T10:41:33Z</time>
      </trkpt>
      <trkpt lat="45.08194" lon="5.62425">
        <ele>1260</ele>
        <time>2015-06-01T10:41:37Z</time>
      </trkpt>
      <trkpt lat="45.08191" lon="5.62428">
        <ele>1259</ele>
        <time>2015-06-01T10:41:43Z</time>
      </trkpt>
      <trkpt lat="45.0819" lon="5.6243">
        <ele>1259</ele>
        <time>2015-06-01T10:41:47Z</time>
      </trkpt>
      <trkpt lat="45.08184" lon="5.62434">
        <ele>1257</ele>
        <time>2015-06-01T10:41:51Z</time>
      </trkpt>
      <trkpt lat="45.08181" lon="5.62441">
        <ele>1257</ele>
        <time>2015-06-01T10:41:55Z</time>
      </trkpt>
      <trkpt lat="45.08183" lon="5.62452">
        <ele>1259</ele>
        <time>2015-06-01T10:41:58Z</time>
      </trkpt>
      <trkpt lat="45.08177" lon="5.62464">
        <ele>1257</ele>
        <time>2015-06-01T10:42:01Z</time>
      </trkpt>
      <trkpt lat="45.08172" lon="5.62469">
        <ele>1256</ele>
        <time>2015-06-01T10:42:05Z</time>
      </trkpt>
      <trkpt lat="45.08168" lon="5.62472">
        <ele>1254</ele>
        <time>2015-06-01T10:42:08Z</time>
      </trkpt>
      <trkpt lat="45.08158" lon="5.62483">
        <ele>1225</ele>
        <time>2015-06-01T10:42:11Z</time>
      </trkpt>
      <trkpt lat="45.08154" lon="5.62495">
        <ele>1227</ele>
        <time>2015-06-01T10:42:15Z</time>
      </trkpt>
      <trkpt lat="45.08149" lon="5.62504">
        <ele>1226</ele>
        <time>2015-06-01T10:42:18Z</time>
      </trkpt>
      <trkpt lat="45.08145" lon="5.62513">
        <ele>1223</ele>
        <time>2015-06-01T10:42:21Z</time>
      </trkpt>
      <trkpt lat="45.08138" lon="5.62523">
        <ele>1220</ele>
        <time>2015-06-01T10:42:24Z</time>
      </trkpt>
      <trkpt lat="45.08131" lon="5.62525">
        <ele>1218</ele>
        <time>2015-06-01T10:42:28Z</time>
      </trkpt>
      <trkpt lat="45.08122" lon="5.62538">
        <ele>1215</ele>
        <time>2015-06-01T10:42:32Z</time>
      </trkpt>
      <trkpt lat="45.08105" lon="5.6255">
        <ele>1211</ele>
        <time>2015-06-01T10:42:36Z</time>
      </trkpt>
      <trkpt lat="45.08088" lon="5.6257">
        <ele>1204</ele>
        <time>2015-06-01T10:42:42Z</time>
      </trkpt>
      <trkpt lat="45.08085" lon="5.62604">
        <ele>1208</ele>
        <time>2015-06-01T10:42:49Z</time>
      </trkpt>
      <trkpt lat="45.08084" lon="5.62609">
        <ele>1209</ele>
        <time>2015-06-01T10:42:50Z</time>
      </trkpt>
      <trkpt lat="45.08084" lon="5.62614">
        <ele>1210</ele>
        <time>2015-06-01T10:42:51Z</time>
      </trkpt>
      <trkpt lat="45.08091" lon="5.62628">
        <ele>1211</ele>
        <time>2015-06-01T10:42:55Z</time>
      </trkpt>
      <trkpt lat="45.08095" lon="5.62634">
        <ele>1211</ele>
        <time>2015-06-01T10:42:57Z</time>
      </trkpt>
      <trkpt lat="45.08102" lon="5.62672">
        <ele>1208</ele>
        <time>2015-06-01T10:43:06Z</time>
      </trkpt>
      <trkpt lat="45.081" lon="5.62686">
        <ele>1210</ele>
        <time>2015-06-01T10:43:11Z</time>
      </trkpt>
      <trkpt lat="45.08092" lon="5.62715">
        <ele>1212</ele>
        <time>2015-06-01T10:43:19Z</time>
      </trkpt>
      <trkpt lat="45.08087" lon="5.62717">
        <ele>1211</ele>
        <time>2015-06-01T10:43:21Z</time>
      </trkpt>
      <trkpt lat="45.08083" lon="5.62715">
        <ele>1189</ele>
        <time>2015-06-01T10:43:31Z</time>
      </trkpt>
      <trkpt lat="45.08083" lon="5.62715">
        <ele>1189</ele>
        <time>2015-06-01T10:43:38Z</time>
      </trkpt>
      <trkpt lat="45.08083" lon="5.62713">
        <ele>1188</ele>
        <time>2015-06-01T10:43:40Z</time>
      </trkpt>
      <trkpt lat="45.08083" lon="5.627">
        <ele>1188</ele>
        <time>2015-06-01T10:43:46Z</time>
      </trkpt>
      <trkpt lat="45.08085" lon="5.62696">
        <ele>1209</ele>
        <time>2015-06-01T10:43:47Z</time>
      </trkpt>
      <trkpt lat="45.08079" lon="5.6268">
        <ele>1190</ele>
        <time>2015-06-01T10:43:52Z</time>
      </trkpt>
      <trkpt lat="45.08084" lon="5.62664">
        <ele>1198</ele>
        <time>2015-06-01T10:44:03Z</time>
      </trkpt>
      <trkpt lat="45.08079" lon="5.62656">
        <ele>1188</ele>
        <time>2015-06-01T10:44:15Z</time>
      </trkpt>
      <trkpt lat="45.0808" lon="5.62661">
        <ele>1191</ele>
        <time>2015-06-01T10:44:18Z</time>
      </trkpt>
      <trkpt lat="45.08077" lon="5.62658">
        <ele>1189</ele>
        <time>2015-06-01T10:44:30Z</time>
      </trkpt>
      <trkpt lat="45.08067" lon="5.62654">
        <ele>1183</ele>
        <time>2015-06-01T10:44:44Z</time>
      </trkpt>
      <trkpt lat="45.08064" lon="5.62664">
        <ele>1184</ele>
        <time>2015-06-01T10:44:58Z</time>
      </trkpt>
      <trkpt lat="45.08061" lon="5.62664">
        <ele>1183</ele>
        <time>2015-06-01T10:45:13Z</time>
      </trkpt>
      <trkpt lat="45.08057" lon="5.62667">
        <ele>1185</ele>
        <time>2015-06-01T10:45:26Z</time>
      </trkpt>
      <trkpt lat="45.08055" lon="5.62674">
        <ele>1184</ele>
        <time>2015-06-01T10:45:30Z</time>
      </trkpt>
      <trkpt lat="45.08054" lon="5.62675">
        <ele>1183</ele>
        <time>2015-06-01T10:45:31Z</time>
      </trkpt>
      <trkpt lat="45.08045" lon="5.62674">
        <ele>1181</ele>
        <time>2015-06-01T10:45:35Z</time>
      </trkpt>
      <trkpt lat="45.08043" lon="5.62673">
        <ele>1180</ele>
        <time>2015-06-01T10:45:38Z</time>
      </trkpt>
      <trkpt lat="45.08043" lon="5.62673">
        <ele>1180</ele>
        <time>2015-06-01T10:45:45Z</time>
      </trkpt>
      <trkpt lat="45.08037" lon="5.62672">
        <ele>1178</ele>
        <time>2015-06-01T10:45:49Z</time>
      </trkpt>
      <trkpt lat="45.08032" lon="5.62665">
        <ele>1172</ele>
        <time>2015-06-01T10:45:52Z</time>
      </trkpt>
      <trkpt lat="45.0803" lon="5.62664">
        <ele>1171</ele>
        <time>2015-06-01T10:45:54Z</time>
      </trkpt>
      <trkpt lat="45.08021" lon="5.62665">
        <ele>1168</ele>
        <time>2015-06-01T10:45:58Z</time>
      </trkpt>
      <trkpt lat="45.08002" lon="5.62656">
        <ele>1164</ele>
        <time>2015-06-01T10:46:04Z</time>
      </trkpt>
      <trkpt lat="45.07995" lon="5.62655">
        <ele>1147</ele>
        <time>2015-06-01T10:46:06Z</time>
      </trkpt>
      <trkpt lat="45.07972" lon="5.62656">
        <ele>1137</ele>
        <time>2015-06-01T10:46:11Z</time>
      </trkpt>
      <trkpt lat="45.07965" lon="5.62669">
        <ele>1142</ele>
        <time>2015-06-01T10:46:18Z</time>
      </trkpt>
      <trkpt lat="45.07963" lon="5.62674">
        <ele>1141</ele>
        <time>2015-06-01T10:46:21Z</time>
      </trkpt>
      <trkpt lat="45.07962" lon="5.62674">
        <ele>1140</ele>
        <time>2015-06-01T10:46:22Z</time>
      </trkpt>
      <trkpt lat="45.07954" lon="5.6268">
        <ele>1138</ele>
        <time>2015-06-01T10:46:27Z</time>
      </trkpt>
      <trkpt lat="45.07949" lon="5.62682">
        <ele>1136</ele>
        <time>2015-06-01T10:46:29Z</time>
      </trkpt>
      <trkpt lat="45.07938" lon="5.62685">
        <ele>1133</ele>
        <time>2015-06-01T10:46:34Z</time>
      </trkpt>
      <trkpt lat="45.07932" lon="5.6269">
        <ele>1132</ele>
        <time>2015-06-01T10:46:37Z</time>
      </trkpt>
      <trkpt lat="45.0793" lon="5.62694">
        <ele>1132</ele>
        <time>2015-06-01T10:46:41Z</time>
      </trkpt>
      <trkpt lat="45.07926" lon="5.62694">
        <ele>1131</ele>
        <time>2015-06-01T10:46:44Z</time>
      </trkpt>
      <trkpt lat="45.07917" lon="5.62697">
        <ele>1131</ele>
        <time>2015-06-01T10:46:50Z</time>
      </trkpt>
      <trkpt lat="45.07915" lon="5.62698">
        <ele>1100</ele>
        <time>2015-06-01T10:46:51Z</time>
      </trkpt>
      <trkpt lat="45.07909" lon="5.62703">
        <ele>1098</ele>
        <time>2015-06-01T10:46:55Z</time>
      </trkpt>
      <trkpt lat="45.07904" lon="5.62703">
        <ele>1097</ele>
        <time>2015-06-01T10:46:58Z</time>
      </trkpt>
      <trkpt lat="45.07899" lon="5.6271">
        <ele>1096</ele>
        <time>2015-06-01T10:47:02Z</time>
      </trkpt>
      <trkpt lat="45.07891" lon="5.62719">
        <ele>1093</ele>
        <time>2015-06-01T10:47:08Z</time>
      </trkpt>
      <trkpt lat="45.07883" lon="5.6272">
        <ele>1090</ele>
        <time>2015-06-01T10:47:11Z</time>
      </trkpt>
      <trkpt lat="45.07857" lon="5.62723">
        <ele>1078</ele>
        <time>2015-06-01T10:47:19Z</time>
      </trkpt>
      <trkpt lat="45.07855" lon="5.62717">
        <ele>1078</ele>
        <time>2015-06-01T10:47:23Z</time>
      </trkpt>
      <trkpt lat="45.07859" lon="5.62717">
        <ele>1080</ele>
        <time>2015-06-01T10:47:28Z</time>
      </trkpt>
      <trkpt lat="45.07859" lon="5.62713">
        <ele>1081</ele>
        <time>2015-06-01T10:47:32Z</time>
      </trkpt>
      <trkpt lat="45.0786" lon="5.62711">
        <ele>1082</ele>
        <time>2015-06-01T10:47:36Z</time>
      </trkpt>
      <trkpt lat="45.07861" lon="5.62699">
        <ele>1084</ele>
        <time>2015-06-01T10:47:42Z</time>
      </trkpt>
      <trkpt lat="45.07861" lon="5.62697">
        <ele>1084</ele>
        <time>2015-06-01T10:47:43Z</time>
      </trkpt>
      <trkpt lat="45.0786" lon="5.62695">
        <ele>1084</ele>
        <time>2015-06-01T10:47:44Z</time>
      </trkpt>
      <trkpt lat="45.07851" lon="5.62688">
        <ele>1081</ele>
        <time>2015-06-01T10:47:48Z</time>
      </trkpt>
      <trkpt lat="45.07861" lon="5.62662">
        <ele>1084</ele>
        <time>2015-06-01T10:48:01Z</time>
      </trkpt>
      <trkpt lat="45.0786" lon="5.6266">
        <ele>1084</ele>
        <time>2015-06-01T10:48:02Z</time>
      </trkpt>
      <trkpt lat="45.07854" lon="5.62653">
        <ele>1082</ele>
        <time>2015-06-01T10:48:05Z</time>
      </trkpt>
      <trkpt lat="45.07854" lon="5.62647">
        <ele>1082</ele>
        <time>2015-06-01T10:48:10Z</time>
      </trkpt>
      <trkpt lat="45.07856" lon="5.62636">
        <ele>1082</ele>
        <time>2015-06-01T10:48:16Z</time>
      </trkpt>
      <trkpt lat="45.0786" lon="5.6263">
        <ele>1083</ele>
        <time>2015-06-01T10:48:21Z</time>
      </trkpt>
      <trkpt lat="45.07859" lon="5.62622">
        <ele>1082</ele>
        <time>2015-06-01T10:48:24Z</time>
      </trkpt>
      <trkpt lat="45.07857" lon="5.62617">
        <ele>1081</ele>
        <time>2015-06-01T10:48:28Z</time>
      </trkpt>
      <trkpt lat="45.07854" lon="5.62611">
        <ele>1079</ele>
        <time>2015-06-01T10:48:33Z</time>
      </trkpt>
      <trkpt lat="45.07846" lon="5.62602">
        <ele>1075</ele>
        <time>2015-06-01T10:48:37Z</time>
      </trkpt>
      <trkpt lat="45.07844" lon="5.62597">
        <ele>1072</ele>
        <time>2015-06-01T10:48:39Z</time>
      </trkpt>
      <trkpt lat="45.07839" lon="5.62595">
        <ele>1070</ele>
        <time>2015-06-01T10:48:41Z</time>
      </trkpt>
      <trkpt lat="45.07838" lon="5.62576">
        <ele>1063</ele>
        <time>2015-06-01T10:48:46Z</time>
      </trkpt>
      <trkpt lat="45.07833" lon="5.62571">
        <ele>1051</ele>
        <time>2015-06-01T10:48:49Z</time>
      </trkpt>
      <trkpt lat="45.07832" lon="5.62568">
        <ele>1049</ele>
        <time>2015-06-01T10:48:51Z</time>
      </trkpt>
      <trkpt lat="45.07831" lon="5.6256">
        <ele>1047</ele>
        <time>2015-06-01T10:48:55Z</time>
      </trkpt>
      <trkpt lat="45.07832" lon="5.6256">
        <ele>1047</ele>
        <time>2015-06-01T10:48:58Z</time>
      </trkpt>
      <trkpt lat="45.0783" lon="5.62557">
        <ele>1046</ele>
        <time>2015-06-01T10:49:00Z</time>
      </trkpt>
      <trkpt lat="45.0783" lon="5.62567">
        <ele>1049</ele>
        <time>2015-06-01T10:49:03Z</time>
      </trkpt>
      <trkpt lat="45.07825" lon="5.62561">
        <ele>1046</ele>
        <time>2015-06-01T10:49:06Z</time>
      </trkpt>
      <trkpt lat="45.07819" lon="5.62553">
        <ele>1043</ele>
        <time>2015-06-01T10:49:10Z</time>
      </trkpt>
      <trkpt lat="45.07818" lon="5.62529">
        <ele>1042</ele>
        <time>2015-06-01T10:49:22Z</time>
      </trkpt>
      <trkpt lat="45.07817" lon="5.62525">
        <ele>1042</ele>
        <time>2015-06-01T10:49:32Z</time>
      </trkpt>
      <trkpt lat="45.07813" lon="5.62514">
        <ele>1042</ele>
        <time>2015-06-01T10:49:52Z</time>
      </trkpt>
      <trkpt lat="45.07813" lon="5.62513">
        <ele>1043</ele>
        <time>2015-06-01T10:50:05Z</time>
      </trkpt>
      <trkpt lat="45.0781" lon="5.62521">
        <ele>1041</ele>
        <time>2015-06-01T10:50:17Z</time>
      </trkpt>
      <trkpt lat="45.07804" lon="5.62521">
        <ele>1040</ele>
        <time>2015-06-01T10:50:20Z</time>
      </trkpt>
      <trkpt lat="45.07802" lon="5.62525">
        <ele>1039</ele>
        <time>2015-06-01T10:50:22Z</time>
      </trkpt>
      <trkpt lat="45.07795" lon="5.62525">
        <ele>1037</ele>
        <time>2015-06-01T10:50:27Z</time>
      </trkpt>
      <trkpt lat="45.0779" lon="5.62525">
        <ele>1036</ele>
        <time>2015-06-01T10:50:31Z</time>
      </trkpt>
      <trkpt lat="45.07785" lon="5.62526">
        <ele>1035</ele>
        <time>2015-06-01T10:50:37Z</time>
      </trkpt>
      <trkpt lat="45.07777" lon="5.62524">
        <ele>1033</ele>
        <time>2015-06-01T10:50:44Z</time>
      </trkpt>
      <trkpt lat="45.07766" lon="5.62511">
        <ele>1029</ele>
        <time>2015-06-01T10:50:49Z</time>
      </trkpt>
      <trkpt lat="45.07755" lon="5.62513">
        <ele>1027</ele>
        <time>2015-06-01T10:50:54Z</time>
      </trkpt>
      <trkpt lat="45.07746" lon="5.62512">
        <ele>1004</ele>
        <time>2015-06-01T10:50:56Z</time>
      </trkpt>
      <trkpt lat="45.07733" lon="5.6252">
        <ele>992</ele>
        <time>2015-06-01T10:51:06Z</time>
      </trkpt>
      <trkpt lat="45.07728" lon="5.62523">
        <ele>988</ele>
        <time>2015-06-01T10:51:10Z</time>
      </trkpt>
      <trkpt lat="45.07719" lon="5.6252">
        <ele>983</ele>
        <time>2015-06-01T10:51:15Z</time>
      </trkpt>
      <trkpt lat="45.07713" lon="5.62511">
        <ele>981</ele>
        <time>2015-06-01T10:51:23Z</time>
      </trkpt>
      <trkpt lat="45.07707" lon="5.62509">
        <ele>977</ele>
        <time>2015-06-01T10:52:12Z</time>
      </trkpt>
      <trkpt lat="45.07704" lon="5.62518">
        <ele>975</ele>
        <time>2015-06-01T10:52:24Z</time>
      </trkpt>
      <trkpt lat="45.07709" lon="5.62532">
        <ele>977</ele>
        <time>2015-06-01T10:52:34Z</time>
      </trkpt>
      <trkpt lat="45.07708" lon="5.62537">
        <ele>976</ele>
        <time>2015-06-01T10:52:46Z</time>
      </trkpt>
      <trkpt lat="45.07705" lon="5.62535">
        <ele>974</ele>
        <time>2015-06-01T10:53:04Z</time>
      </trkpt>
      <trkpt lat="45.07693" lon="5.6253">
        <ele>969</ele>
        <time>2015-06-01T10:53:22Z</time>
      </trkpt>
      <trkpt lat="45.07707" lon="5.62566">
        <ele>973</ele>
        <time>2015-06-01T10:53:39Z</time>
      </trkpt>
      <trkpt lat="45.07707" lon="5.6257">
        <ele>973</ele>
        <time>2015-06-01T10:53:41Z</time>
      </trkpt>
      <trkpt lat="45.07708" lon="5.62568">
        <ele>974</ele>
        <time>2015-06-01T10:53:50Z</time>
      </trkpt>
      <trkpt lat="45.07703" lon="5.62546">
        <ele>973</ele>
        <time>2015-06-01T10:53:56Z</time>
      </trkpt>
      <trkpt lat="45.07701" lon="5.62545">
        <ele>972</ele>
        <time>2015-06-01T10:54:10Z</time>
      </trkpt>
      <trkpt lat="45.07702" lon="5.62566">
        <ele>970</ele>
        <time>2015-06-01T10:54:15Z</time>
      </trkpt>
      <trkpt lat="45.07705" lon="5.62587">
        <ele>962</ele>
        <time>2015-06-01T10:54:20Z</time>
      </trkpt>
      <trkpt lat="45.07706" lon="5.62606">
        <ele>962</ele>
        <time>2015-06-01T10:54:26Z</time>
      </trkpt>
      <trkpt lat="45.07708" lon="5.62622">
        <ele>961</ele>
        <time>2015-06-01T10:54:33Z</time>
      </trkpt>
      <trkpt lat="45.0771" lon="5.62629">
        <ele>961</ele>
        <time>2015-06-01T10:54:36Z</time>
      </trkpt>
      <trkpt lat="45.0771" lon="5.62644">
        <ele>960</ele>
        <time>2015-06-01T10:54:41Z</time>
      </trkpt>
      <trkpt lat="45.07709" lon="5.62651">
        <ele>959</ele>
        <time>2015-06-01T10:54:43Z</time>
      </trkpt>
      <trkpt lat="45.07707" lon="5.62658">
        <ele>958</ele>
        <time>2015-06-01T10:54:45Z</time>
      </trkpt>
      <trkpt lat="45.07704" lon="5.62685">
        <ele>943</ele>
        <time>2015-06-01T10:54:51Z</time>
      </trkpt>
      <trkpt lat="45.07706" lon="5.62708">
        <ele>941</ele>
        <time>2015-06-01T10:54:56Z</time>
      </trkpt>
      <trkpt lat="45.07705" lon="5.62716">
        <ele>939</ele>
        <time>2015-06-01T10:54:58Z</time>
      </trkpt>
      <trkpt lat="45.07707" lon="5.62734">
        <ele>938</ele>
        <time>2015-06-01T10:55:02Z</time>
      </trkpt>
      <trkpt lat="45.07707" lon="5.6274">
        <ele>937</ele>
        <time>2015-06-01T10:55:03Z</time>
      </trkpt>
      <trkpt lat="45.07705" lon="5.62761">
        <ele>919</ele>
        <time>2015-06-01T10:55:07Z</time>
      </trkpt>
      <trkpt lat="45.07706" lon="5.62769">
        <ele>919</ele>
        <time>2015-06-01T10:55:09Z</time>
      </trkpt>
      <trkpt lat="45.07706" lon="5.62793">
        <ele>915</ele>
        <time>2015-06-01T10:55:14Z</time>
      </trkpt>
      <trkpt lat="45.07707" lon="5.62802">
        <ele>914</ele>
        <time>2015-06-01T10:55:16Z</time>
      </trkpt>
      <trkpt lat="45.07709" lon="5.62818">
        <ele>913</ele>
        <time>2015-06-01T10:55:20Z</time>
      </trkpt>
      <trkpt lat="45.07711" lon="5.62828">
        <ele>913</ele>
        <time>2015-06-01T10:55:22Z</time>
      </trkpt>
      <trkpt lat="45.07722" lon="5.62849">
        <ele>898</ele>
        <time>2015-06-01T10:55:28Z</time>
      </trkpt>
      <trkpt lat="45.07731" lon="5.6286">
        <ele>899</ele>
        <time>2015-06-01T10:55:32Z</time>
      </trkpt>
      <trkpt lat="45.07749" lon="5.62878">
        <ele>898</ele>
        <time>2015-06-01T10:55:42Z</time>
      </trkpt>
      <trkpt lat="45.0775" lon="5.62879">
        <ele>897</ele>
        <time>2015-06-01T10:55:43Z</time>
      </trkpt>
      <trkpt lat="45.07759" lon="5.62898">
        <ele>935</ele>
        <time>2015-06-01T10:55:53Z</time>
      </trkpt>
      <trkpt lat="45.07772" lon="5.62936">
        <ele>922</ele>
        <time>2015-06-01T10:56:03Z</time>
      </trkpt>
      <trkpt lat="45.07774" lon="5.62945">
        <ele>922</ele>
        <time>2015-06-01T10:56:05Z</time>
      </trkpt>
      <trkpt lat="45.07777" lon="5.6297">
        <ele>918</ele>
        <time>2015-06-01T10:56:10Z</time>
      </trkpt>
      <trkpt lat="45.07798" lon="5.63014">
        <ele>902</ele>
        <time>2015-06-01T10:56:19Z</time>
      </trkpt>
      <trkpt lat="45.07814" lon="5.63052">
        <ele>899</ele>
        <time>2015-06-01T10:56:26Z</time>
      </trkpt>
      <trkpt lat="45.07827" lon="5.63078">
        <ele>904</ele>
        <time>2015-06-01T10:56:33Z</time>
      </trkpt>
      <trkpt lat="45.07836" lon="5.63101">
        <ele>932</ele>
        <time>2015-06-01T10:56:38Z</time>
      </trkpt>
      <trkpt lat="45.07838" lon="5.63121">
        <ele>936</ele>
        <time>2015-06-01T10:56:43Z</time>
      </trkpt>
      <trkpt lat="45.07838" lon="5.63135">
        <ele>930</ele>
        <time>2015-06-01T10:56:46Z</time>
      </trkpt>
      <trkpt lat="45.07836" lon="5.63155">
        <ele>903</ele>
        <time>2015-06-01T10:56:51Z</time>
      </trkpt>
      <trkpt lat="45.0784" lon="5.63165">
        <ele>890</ele>
        <time>2015-06-01T10:56:55Z</time>
      </trkpt>
      <trkpt lat="45.07842" lon="5.63188">
        <ele>865</ele>
        <time>2015-06-01T10:57:00Z</time>
      </trkpt>
      <trkpt lat="45.07842" lon="5.63196">
        <ele>860</ele>
        <time>2015-06-01T10:57:03Z</time>
      </trkpt>
      <trkpt lat="45.07841" lon="5.63211">
        <ele>847</ele>
        <time>2015-06-01T10:57:08Z</time>
      </trkpt>
      <trkpt lat="45.07838" lon="5.63225">
        <ele>830</ele>
        <time>2015-06-01T10:57:12Z</time>
      </trkpt>
      <trkpt lat="45.07837" lon="5.63242">
        <ele>800</ele>
        <time>2015-06-01T10:57:18Z</time>
      </trkpt>
      <trkpt lat="45.07836" lon="5.63248">
        <ele>787</ele>
        <time>2015-06-01T10:57:20Z</time>
      </trkpt>
      <trkpt lat="45.07841" lon="5.63275">
        <ele>786</ele>
        <time>2015-06-01T10:57:27Z</time>
      </trkpt>
      <trkpt lat="45.07849" lon="5.63293">
        <ele>789</ele>
        <time>2015-06-01T10:57:31Z</time>
      </trkpt>
      <trkpt lat="45.07856" lon="5.63304">
        <ele>791</ele>
        <time>2015-06-01T10:57:36Z</time>
      </trkpt>
      <trkpt lat="45.07853" lon="5.6331">
        <ele>791</ele>
        <time>2015-06-01T10:57:48Z</time>
      </trkpt>
      <trkpt lat="45.07853" lon="5.63313">
        <ele>791</ele>
        <time>2015-06-01T10:58:00Z</time>
      </trkpt>
      <trkpt lat="45.07855" lon="5.63319">
        <ele>792</ele>
        <time>2015-06-01T10:58:04Z</time>
      </trkpt>
      <trkpt lat="45.07866" lon="5.63348">
        <ele>806</ele>
        <time>2015-06-01T10:58:13Z</time>
      </trkpt>
      <trkpt lat="45.07869" lon="5.63352">
        <ele>807</ele>
        <time>2015-06-01T10:58:15Z</time>
      </trkpt>
      <trkpt lat="45.0787" lon="5.63367">
        <ele>809</ele>
        <time>2015-06-01T10:58:20Z</time>
      </trkpt>
      <trkpt lat="45.0787" lon="5.63379">
        <ele>811</ele>
        <time>2015-06-01T10:58:23Z</time>
      </trkpt>
      <trkpt lat="45.07872" lon="5.63392">
        <ele>812</ele>
        <time>2015-06-01T10:58:27Z</time>
      </trkpt>
      <trkpt lat="45.07873" lon="5.63405">
        <ele>814</ele>
        <time>2015-06-01T10:58:30Z</time>
      </trkpt>
      <trkpt lat="45.07876" lon="5.63414">
        <ele>815</ele>
        <time>2015-06-01T10:58:33Z</time>
      </trkpt>
      <trkpt lat="45.07879" lon="5.63424">
        <ele>819</ele>
        <time>2015-06-01T10:58:35Z</time>
      </trkpt>
      <trkpt lat="45.07882" lon="5.63431">
        <ele>820</ele>
        <time>2015-06-01T10:58:37Z</time>
      </trkpt>
      <trkpt lat="45.07883" lon="5.63433">
        <ele>820</ele>
        <time>2015-06-01T10:58:38Z</time>
      </trkpt>
      <trkpt lat="45.07884" lon="5.63449">
        <ele>819</ele>
        <time>2015-06-01T10:58:43Z</time>
      </trkpt>
      <trkpt lat="45.07881" lon="5.63465">
        <ele>817</ele>
        <time>2015-06-01T10:58:48Z</time>
      </trkpt>
      <trkpt lat="45.0788" lon="5.6347">
        <ele>817</ele>
        <time>2015-06-01T10:58:50Z</time>
      </trkpt>
      <trkpt lat="45.07877" lon="5.63468">
        <ele>816</ele>
        <time>2015-06-01T10:58:53Z</time>
      </trkpt>
      <trkpt lat="45.07872" lon="5.63456">
        <ele>816</ele>
        <time>2015-06-01T10:58:57Z</time>
      </trkpt>
      <trkpt lat="45.07868" lon="5.63447">
        <ele>815</ele>
        <time>2015-06-01T10:59:00Z</time>
      </trkpt>
      <trkpt lat="45.07859" lon="5.6344">
        <ele>813</ele>
        <time>2015-06-01T10:59:09Z</time>
      </trkpt>
      <trkpt lat="45.07857" lon="5.63439">
        <ele>813</ele>
        <time>2015-06-01T10:59:10Z</time>
      </trkpt>
      <trkpt lat="45.07845" lon="5.63435">
        <ele>810</ele>
        <time>2015-06-01T10:59:14Z</time>
      </trkpt>
      <trkpt lat="45.07838" lon="5.63431">
        <ele>808</ele>
        <time>2015-06-01T10:59:16Z</time>
      </trkpt>
      <trkpt lat="45.07826" lon="5.63433">
        <ele>786</ele>
        <time>2015-06-01T10:59:21Z</time>
      </trkpt>
      <trkpt lat="45.07823" lon="5.63425">
        <ele>788</ele>
        <time>2015-06-01T10:59:24Z</time>
      </trkpt>
      <trkpt lat="45.07823" lon="5.6342">
        <ele>791</ele>
        <time>2015-06-01T10:59:26Z</time>
      </trkpt>
      <trkpt lat="45.07827" lon="5.63411">
        <ele>793</ele>
        <time>2015-06-01T10:59:29Z</time>
      </trkpt>
      <trkpt lat="45.07827" lon="5.63408">
        <ele>791</ele>
        <time>2015-06-01T10:59:30Z</time>
      </trkpt>
      <trkpt lat="45.07822" lon="5.634">
        <ele>785</ele>
        <time>2015-06-01T10:59:34Z</time>
      </trkpt>
      <trkpt lat="45.07814" lon="5.63398">
        <ele>782</ele>
        <time>2015-06-01T10:59:41Z</time>
      </trkpt>
      <trkpt lat="45.07811" lon="5.63403">
        <ele>781</ele>
        <time>2015-06-01T10:59:43Z</time>
      </trkpt>
      <trkpt lat="45.07796" lon="5.6341">
        <ele>774</ele>
        <time>2015-06-01T10:59:48Z</time>
      </trkpt>
      <trkpt lat="45.07783" lon="5.63422">
        <ele>767</ele>
        <time>2015-06-01T10:59:53Z</time>
      </trkpt>
      <trkpt lat="45.0778" lon="5.63436">
        <ele>766</ele>
        <time>2015-06-01T10:59:57Z</time>
      </trkpt>
      <trkpt lat="45.07777" lon="5.63442">
        <ele>765</ele>
        <time>2015-06-01T10:59:59Z</time>
      </trkpt>
      <trkpt lat="45.07776" lon="5.6346">
        <ele>765</ele>
        <time>2015-06-01T11:00:04Z</time>
      </trkpt>
      <trkpt lat="45.07775" lon="5.63463">
        <ele>765</ele>
        <time>2015-06-01T11:00:05Z</time>
      </trkpt>
      <trkpt lat="45.07779" lon="5.63475">
        <ele>765</ele>
        <time>2015-06-01T11:00:08Z</time>
      </trkpt>
      <trkpt lat="45.07779" lon="5.63485">
        <ele>763</ele>
        <time>2015-06-01T11:00:11Z</time>
      </trkpt>
      <trkpt lat="45.07774" lon="5.63485">
        <ele>762</ele>
        <time>2015-06-01T11:00:15Z</time>
      </trkpt>
      <trkpt lat="45.07766" lon="5.63484">
        <ele>758</ele>
        <time>2015-06-01T11:00:19Z</time>
      </trkpt>
      <trkpt lat="45.07762" lon="5.63478">
        <ele>759</ele>
        <time>2015-06-01T11:00:24Z</time>
      </trkpt>
      <trkpt lat="45.07763" lon="5.63479">
        <ele>758</ele>
        <time>2015-06-01T11:00:56Z</time>
      </trkpt>
      <trkpt lat="45.07762" lon="5.63478">
        <ele>759</ele>
        <time>2015-06-01T11:02:00Z</time>
      </trkpt>
      <trkpt lat="45.07761" lon="5.63475">
        <ele>759</ele>
        <time>2015-06-01T11:02:02Z</time>
      </trkpt>
      <trkpt lat="45.07755" lon="5.63467">
        <ele>760</ele>
        <time>2015-06-01T11:02:06Z</time>
      </trkpt>
      <trkpt lat="45.07751" lon="5.6347">
        <ele>759</ele>
        <time>2015-06-01T11:02:15Z</time>
      </trkpt>
      <trkpt lat="45.07752" lon="5.63476">
        <ele>757</ele>
        <time>2015-06-01T11:02:17Z</time>
      </trkpt>
      <trkpt lat="45.07749" lon="5.63493">
        <ele>737</ele>
        <time>2015-06-01T11:02:22Z</time>
      </trkpt>
      <trkpt lat="45.07742" lon="5.63503">
        <ele>732</ele>
        <time>2015-06-01T11:02:26Z</time>
      </trkpt>
      <trkpt lat="45.07741" lon="5.63529">
        <ele>719</ele>
        <time>2015-06-01T11:02:32Z</time>
      </trkpt>
      <trkpt lat="45.07733" lon="5.63532">
        <ele>716</ele>
        <time>2015-06-01T11:02:37Z</time>
      </trkpt>
      <trkpt lat="45.07726" lon="5.63532">
        <ele>714</ele>
        <time>2015-06-01T11:02:40Z</time>
      </trkpt>
      <trkpt lat="45.07723" lon="5.63524">
        <ele>715</ele>
        <time>2015-06-01T11:02:44Z</time>
      </trkpt>
      <trkpt lat="45.07724" lon="5.6352">
        <ele>716</ele>
        <time>2015-06-01T11:02:46Z</time>
      </trkpt>
      <trkpt lat="45.07724" lon="5.635">
        <ele>719</ele>
        <time>2015-06-01T11:02:52Z</time>
      </trkpt>
      <trkpt lat="45.07723" lon="5.63497">
        <ele>725</ele>
        <time>2015-06-01T11:02:53Z</time>
      </trkpt>
      <trkpt lat="45.0772" lon="5.63496">
        <ele>723</ele>
        <time>2015-06-01T11:02:57Z</time>
      </trkpt>
      <trkpt lat="45.07718" lon="5.63498">
        <ele>723</ele>
        <time>2015-06-01T11:02:59Z</time>
      </trkpt>
      <trkpt lat="45.07712" lon="5.63493">
        <ele>720</ele>
        <time>2015-06-01T11:03:02Z</time>
      </trkpt>
      <trkpt lat="45.07707" lon="5.63482">
        <ele>717</ele>
        <time>2015-06-01T11:03:06Z</time>
      </trkpt>
      <trkpt lat="45.077" lon="5.63478">
        <ele>715</ele>
        <time>2015-06-01T11:03:09Z</time>
      </trkpt>
      <trkpt lat="45.07691" lon="5.63463">
        <ele>713</ele>
        <time>2015-06-01T11:03:14Z</time>
      </trkpt>
      <trkpt lat="45.07686" lon="5.63455">
        <ele>712</ele>
        <time>2015-06-01T11:03:17Z</time>
      </trkpt>
      <trkpt lat="45.07681" lon="5.63448">
        <ele>711</ele>
        <time>2015-06-01T11:03:21Z</time>
      </trkpt>
      <trkpt lat="45.07679" lon="5.63435">
        <ele>708</ele>
        <time>2015-06-01T11:03:25Z</time>
      </trkpt>
      <trkpt lat="45.07674" lon="5.63438">
        <ele>707</ele>
        <time>2015-06-01T11:03:28Z</time>
      </trkpt>
      <trkpt lat="45.07664" lon="5.63426">
        <ele>686</ele>
        <time>2015-06-01T11:03:34Z</time>
      </trkpt>
      <trkpt lat="45.07664" lon="5.63424">
        <ele>687</ele>
        <time>2015-06-01T11:03:35Z</time>
      </trkpt>
      <trkpt lat="45.07657" lon="5.63426">
        <ele>683</ele>
        <time>2015-06-01T11:03:40Z</time>
      </trkpt>
      <trkpt lat="45.07652" lon="5.63424">
        <ele>681</ele>
        <time>2015-06-01T11:03:43Z</time>
      </trkpt>
      <trkpt lat="45.07646" lon="5.63416">
        <ele>678</ele>
        <time>2015-06-01T11:03:46Z</time>
      </trkpt>
      <trkpt lat="45.07638" lon="5.63406">
        <ele>673</ele>
        <time>2015-06-01T11:03:50Z</time>
      </trkpt>
      <trkpt lat="45.07634" lon="5.63397">
        <ele>670</ele>
        <time>2015-06-01T11:03:53Z</time>
      </trkpt>
      <trkpt lat="45.07626" lon="5.63387">
        <ele>667</ele>
        <time>2015-06-01T11:03:58Z</time>
      </trkpt>
      <trkpt lat="45.0762" lon="5.63391">
        <ele>665</ele>
        <time>2015-06-01T11:04:02Z</time>
      </trkpt>
      <trkpt lat="45.07615" lon="5.63393">
        <ele>663</ele>
        <time>2015-06-01T11:04:04Z</time>
      </trkpt>
      <trkpt lat="45.07609" lon="5.63393">
        <ele>661</ele>
        <time>2015-06-01T11:04:08Z</time>
      </trkpt>
      <trkpt lat="45.07607" lon="5.63391">
        <ele>660</ele>
        <time>2015-06-01T11:04:09Z</time>
      </trkpt>
      <trkpt lat="45.07602" lon="5.6339">
        <ele>659</ele>
        <time>2015-06-01T11:04:11Z</time>
      </trkpt>
      <trkpt lat="45.07602" lon="5.63394">
        <ele>658</ele>
        <time>2015-06-01T11:04:13Z</time>
      </trkpt>
      <trkpt lat="45.07598" lon="5.63406">
        <ele>654</ele>
        <time>2015-06-01T11:04:17Z</time>
      </trkpt>
      <trkpt lat="45.07592" lon="5.63426">
        <ele>651</ele>
        <time>2015-06-01T11:04:22Z</time>
      </trkpt>
      <trkpt lat="45.07588" lon="5.63442">
        <ele>656</ele>
        <time>2015-06-01T11:04:26Z</time>
      </trkpt>
      <trkpt lat="45.07583" lon="5.63458">
        <ele>629</ele>
        <time>2015-06-01T11:04:29Z</time>
      </trkpt>
      <trkpt lat="45.07579" lon="5.63474">
        <ele>631</ele>
        <time>2015-06-01T11:04:32Z</time>
      </trkpt>
      <trkpt lat="45.07573" lon="5.63497">
        <ele>637</ele>
        <time>2015-06-01T11:04:36Z</time>
      </trkpt>
      <trkpt lat="45.07567" lon="5.63515">
        <ele>627</ele>
        <time>2015-06-01T11:04:39Z</time>
      </trkpt>
      <trkpt lat="45.07567" lon="5.63522">
        <ele>625</ele>
        <time>2015-06-01T11:04:40Z</time>
      </trkpt>
      <trkpt lat="45.07567" lon="5.63539">
        <ele>621</ele>
        <time>2015-06-01T11:04:43Z</time>
      </trkpt>
      <trkpt lat="45.07563" lon="5.63563">
        <ele>619</ele>
        <time>2015-06-01T11:04:47Z</time>
      </trkpt>
      <trkpt lat="45.07564" lon="5.63583">
        <ele>620</ele>
        <time>2015-06-01T11:04:51Z</time>
      </trkpt>
      <trkpt lat="45.07565" lon="5.63599">
        <ele>609</ele>
        <time>2015-06-01T11:04:54Z</time>
      </trkpt>
      <trkpt lat="45.07563" lon="5.63617">
        <ele>604</ele>
        <time>2015-06-01T11:04:57Z</time>
      </trkpt>
      <trkpt lat="45.07561" lon="5.63638">
        <ele>601</ele>
        <time>2015-06-01T11:05:01Z</time>
      </trkpt>
      <trkpt lat="45.07561" lon="5.63643">
        <ele>601</ele>
        <time>2015-06-01T11:05:02Z</time>
      </trkpt>
      <trkpt lat="45.07558" lon="5.63667">
        <ele>599</ele>
        <time>2015-06-01T11:05:07Z</time>
      </trkpt>
      <trkpt lat="45.07557" lon="5.63672">
        <ele>588</ele>
        <time>2015-06-01T11:05:08Z</time>
      </trkpt>
      <trkpt lat="45.07553" lon="5.63683">
        <ele>585</ele>
        <time>2015-06-01T11:05:11Z</time>
      </trkpt>
      <trkpt lat="45.07551" lon="5.63701">
        <ele>582</ele>
        <time>2015-06-01T11:05:15Z</time>
      </trkpt>
      <trkpt lat="45.07551" lon="5.63717">
        <ele>580</ele>
        <time>2015-06-01T11:05:19Z</time>
      </trkpt>
      <trkpt lat="45.07553" lon="5.63714">
        <ele>581</ele>
        <time>2015-06-01T11:06:27Z</time>
      </trkpt>
      <trkpt lat="45.07541" lon="5.63708">
        <ele>579</ele>
        <time>2015-06-01T11:06:34Z</time>
      </trkpt>
      <trkpt lat="45.07531" lon="5.63704">
        <ele>578</ele>
        <time>2015-06-01T11:06:38Z</time>
      </trkpt>
      <trkpt lat="45.07519" lon="5.63697">
        <ele>576</ele>
        <time>2015-06-01T11:06:42Z</time>
      </trkpt>
      <trkpt lat="45.07512" lon="5.63718">
        <ele>572</ele>
        <time>2015-06-01T11:06:47Z</time>
      </trkpt>
      <trkpt lat="45.07504" lon="5.63738">
        <ele>564</ele>
        <time>2015-06-01T11:06:51Z</time>
      </trkpt>
      <trkpt lat="45.07499" lon="5.63752">
        <ele>552</ele>
        <time>2015-06-01T11:06:54Z</time>
      </trkpt>
      <trkpt lat="45.07494" lon="5.63775">
        <ele>534</ele>
        <time>2015-06-01T11:06:58Z</time>
      </trkpt>
      <trkpt lat="45.07495" lon="5.63788">
        <ele>530</ele>
        <time>2015-06-01T11:06:59Z</time>
      </trkpt>
      <trkpt lat="45.07494" lon="5.63807">
        <ele>527</ele>
        <time>2015-06-01T11:07:02Z</time>
      </trkpt>
      <trkpt lat="45.07484" lon="5.63818">
        <ele>526</ele>
        <time>2015-06-01T11:07:06Z</time>
      </trkpt>
      <trkpt lat="45.07473" lon="5.63805">
        <ele>524</ele>
        <time>2015-06-01T11:07:11Z</time>
      </trkpt>
      <trkpt lat="45.07464" lon="5.63795">
        <ele>523</ele>
        <time>2015-06-01T11:07:15Z</time>
      </trkpt>
      <trkpt lat="45.07457" lon="5.63782">
        <ele>523</ele>
        <time>2015-06-01T11:07:20Z</time>
      </trkpt>
      <trkpt lat="45.07455" lon="5.63779">
        <ele>523</ele>
        <time>2015-06-01T11:07:21Z</time>
      </trkpt>
      <trkpt lat="45.07453" lon="5.63774">
        <ele>523</ele>
        <time>2015-06-01T11:07:23Z</time>
      </trkpt>
      <trkpt lat="45.07448" lon="5.63765">
        <ele>521</ele>
        <time>2015-06-01T11:07:27Z</time>
      </trkpt>
      <trkpt lat="45.07434" lon="5.63756">
        <ele>517</ele>
        <time>2015-06-01T11:07:32Z</time>
      </trkpt>
      <trkpt lat="45.07425" lon="5.63747">
        <ele>518</ele>
        <time>2015-06-01T11:07:36Z</time>
      </trkpt>
      <trkpt lat="45.07422" lon="5.63739">
        <ele>520</ele>
        <time>2015-06-01T11:07:38Z</time>
      </trkpt>
      <trkpt lat="45.07419" lon="5.63731">
        <ele>525</ele>
        <time>2015-06-01T11:07:41Z</time>
      </trkpt>
      <trkpt lat="45.07411" lon="5.63721">
        <ele>501</ele>
        <time>2015-06-01T11:07:47Z</time>
      </trkpt>
      <trkpt lat="45.074" lon="5.63703">
        <ele>501</ele>
        <time>2015-06-01T11:07:53Z</time>
      </trkpt>
      <trkpt lat="45.07396" lon="5.637">
        <ele>501</ele>
        <time>2015-06-01T11:07:56Z</time>
      </trkpt>
      <trkpt lat="45.07388" lon="5.63698">
        <ele>499</ele>
        <time>2015-06-01T11:08:00Z</time>
      </trkpt>
      <trkpt lat="45.07375" lon="5.63696">
        <ele>495</ele>
        <time>2015-06-01T11:08:05Z</time>
      </trkpt>
      <trkpt lat="45.0737" lon="5.63696">
        <ele>494</ele>
        <time>2015-06-01T11:08:07Z</time>
      </trkpt>
      <trkpt lat="45.07356" lon="5.63685">
        <ele>490</ele>
        <time>2015-06-01T11:08:13Z</time>
      </trkpt>
      <trkpt lat="45.07349" lon="5.63671">
        <ele>486</ele>
        <time>2015-06-01T11:08:17Z</time>
      </trkpt>
      <trkpt lat="45.0734" lon="5.63654">
        <ele>491</ele>
        <time>2015-06-01T11:08:21Z</time>
      </trkpt>
      <trkpt lat="45.07335" lon="5.63632">
        <ele>499</ele>
        <time>2015-06-01T11:08:25Z</time>
      </trkpt>
      <trkpt lat="45.07325" lon="5.63615">
        <ele>478</ele>
        <time>2015-06-01T11:08:29Z</time>
      </trkpt>
      <trkpt lat="45.07319" lon="5.63607">
        <ele>480</ele>
        <time>2015-06-01T11:08:32Z</time>
      </trkpt>
      <trkpt lat="45.07311" lon="5.63591">
        <ele>481</ele>
        <time>2015-06-01T11:08:36Z</time>
      </trkpt>
      <trkpt lat="45.073" lon="5.63589">
        <ele>477</ele>
        <time>2015-06-01T11:08:40Z</time>
      </trkpt>
      <trkpt lat="45.07295" lon="5.636">
        <ele>475</ele>
        <time>2015-06-01T11:08:43Z</time>
      </trkpt>
      <trkpt lat="45.07289" lon="5.63612">
        <ele>473</ele>
        <time>2015-06-01T11:08:45Z</time>
      </trkpt>
      <trkpt lat="45.07272" lon="5.6362">
        <ele>470</ele>
        <time>2015-06-01T11:08:50Z</time>
      </trkpt>
      <trkpt lat="45.0727" lon="5.63622">
        <ele>469</ele>
        <time>2015-06-01T11:08:51Z</time>
      </trkpt>
      <trkpt lat="45.07261" lon="5.63629">
        <ele>467</ele>
        <time>2015-06-01T11:08:54Z</time>
      </trkpt>
      <trkpt lat="45.07254" lon="5.63622">
        <ele>468</ele>
        <time>2015-06-01T11:09:04Z</time>
      </trkpt>
      <trkpt lat="45.07253" lon="5.63624">
        <ele>468</ele>
        <time>2015-06-01T11:09:07Z</time>
      </trkpt>
      <trkpt lat="45.07244" lon="5.63627">
        <ele>456</ele>
        <time>2015-06-01T11:09:11Z</time>
      </trkpt>
      <trkpt lat="45.07228" lon="5.63645">
        <ele>454</ele>
        <time>2015-06-01T11:09:18Z</time>
      </trkpt>
      <trkpt lat="45.07221" lon="5.63654">
        <ele>453</ele>
        <time>2015-06-01T11:09:22Z</time>
      </trkpt>
      <trkpt lat="45.07214" lon="5.63654">
        <ele>453</ele>
        <time>2015-06-01T11:09:26Z</time>
      </trkpt>
      <trkpt lat="45.0721" lon="5.63659">
        <ele>453</ele>
        <time>2015-06-01T11:09:29Z</time>
      </trkpt>
      <trkpt lat="45.07202" lon="5.63694">
        <ele>444</ele>
        <time>2015-06-01T11:09:41Z</time>
      </trkpt>
      <trkpt lat="45.07188" lon="5.6372">
        <ele>441</ele>
        <time>2015-06-01T11:09:49Z</time>
      </trkpt>
      <trkpt lat="45.07183" lon="5.63731">
        <ele>440</ele>
        <time>2015-06-01T11:09:52Z</time>
      </trkpt>
      <trkpt lat="45.07184" lon="5.63754">
        <ele>434</ele>
        <time>2015-06-01T11:09:57Z</time>
      </trkpt>
      <trkpt lat="45.07185" lon="5.63758">
        <ele>434</ele>
        <time>2015-06-01T11:09:58Z</time>
      </trkpt>
      <trkpt lat="45.07188" lon="5.63773">
        <ele>432</ele>
        <time>2015-06-01T11:10:02Z</time>
      </trkpt>
      <trkpt lat="45.07186" lon="5.63787">
        <ele>431</ele>
        <time>2015-06-01T11:10:11Z</time>
      </trkpt>
      <trkpt lat="45.07148" lon="5.63792">
        <ele>427</ele>
        <time>2015-06-01T11:10:20Z</time>
      </trkpt>
      <trkpt lat="45.07142" lon="5.63793">
        <ele>426</ele>
        <time>2015-06-01T11:10:22Z</time>
      </trkpt>
      <trkpt lat="45.07138" lon="5.63795">
        <ele>426</ele>
        <time>2015-06-01T11:10:27Z</time>
      </trkpt>
      <trkpt lat="45.07142" lon="5.63799">
        <ele>426</ele>
        <time>2015-06-01T11:10:36Z</time>
      </trkpt>
      <trkpt lat="45.07143" lon="5.63796">
        <ele>426</ele>
        <time>2015-06-01T11:10:40Z</time>
      </trkpt>
      <trkpt lat="45.07132" lon="5.63793">
        <ele>426</ele>
        <time>2015-06-01T11:10:46Z</time>
      </trkpt>
      <trkpt lat="45.07093" lon="5.63778">
        <ele>425</ele>
        <time>2015-06-01T11:10:58Z</time>
      </trkpt>
      <trkpt lat="45.07068" lon="5.63767">
        <ele>422</ele>
        <time>2015-06-01T11:11:04Z</time>
      </trkpt>
      <trkpt lat="45.07018" lon="5.63731">
        <ele>424</ele>
        <time>2015-06-01T11:11:17Z</time>
      </trkpt>
      <trkpt lat="45.06987" lon="5.63736">
        <ele>421</ele>
        <time>2015-06-01T11:11:26Z</time>
      </trkpt>
      <trkpt lat="45.06993" lon="5.63755">
        <ele>418</ele>
        <time>2015-06-01T11:11:31Z</time>
      </trkpt>
      <trkpt lat="45.07023" lon="5.63797">
        <ele>418</ele>
        <time>2015-06-01T11:11:41Z</time>
      </trkpt>
      <trkpt lat="45.07035" lon="5.6381">
        <ele>418</ele>
        <time>2015-06-01T11:11:44Z</time>
      </trkpt>
      <trkpt lat="45.07051" lon="5.63829">
        <ele>418</ele>
        <time>2015-06-01T11:11:48Z</time>
      </trkpt>
      <trkpt lat="45.071" lon="5.63857">
        <ele>416</ele>
        <time>2015-06-01T11:11:58Z</time>
      </trkpt>
      <trkpt lat="45.07112" lon="5.63868">
        <ele>416</ele>
        <time>2015-06-01T11:12:01Z</time>
      </trkpt>
      <trkpt lat="45.07131" lon="5.63891">
        <ele>415</ele>
        <time>2015-06-01T11:12:06Z</time>
      </trkpt>
      <trkpt lat="45.07141" lon="5.63918">
        <ele>409</ele>
        <time>2015-06-01T11:12:10Z</time>
      </trkpt>
      <trkpt lat="45.07142" lon="5.63928">
        <ele>409</ele>
        <time>2015-06-01T11:12:12Z</time>
      </trkpt>
      <trkpt lat="45.07143" lon="5.6394">
        <ele>408</ele>
        <time>2015-06-01T11:12:14Z</time>
      </trkpt>
      <trkpt lat="45.07143" lon="5.63954">
        <ele>407</ele>
        <time>2015-06-01T11:12:16Z</time>
      </trkpt>
      <trkpt lat="45.07153" lon="5.64001">
        <ele>401</ele>
        <time>2015-06-01T11:12:22Z</time>
      </trkpt>
      <trkpt lat="45.07165" lon="5.64023">
        <ele>400</ele>
        <time>2015-06-01T11:12:25Z</time>
      </trkpt>
      <trkpt lat="45.0717" lon="5.64054">
        <ele>399</ele>
        <time>2015-06-01T11:12:29Z</time>
      </trkpt>
      <trkpt lat="45.07163" lon="5.64088">
        <ele>395</ele>
        <time>2015-06-01T11:12:33Z</time>
      </trkpt>
      <trkpt lat="45.07168" lon="5.64144">
        <ele>394</ele>
        <time>2015-06-01T11:12:38Z</time>
      </trkpt>
      <trkpt lat="45.07169" lon="5.64154">
        <ele>393</ele>
        <time>2015-06-01T11:12:39Z</time>
      </trkpt>
      <trkpt lat="45.07167" lon="5.64209">
        <ele>388</ele>
        <time>2015-06-01T11:12:44Z</time>
      </trkpt>
      <trkpt lat="45.07165" lon="5.64217">
        <ele>388</ele>
        <time>2015-06-01T11:12:45Z</time>
      </trkpt>
      <trkpt lat="45.07163" lon="5.64223">
        <ele>387</ele>
        <time>2015-06-01T11:12:46Z</time>
      </trkpt>
      <trkpt lat="45.0716" lon="5.64238">
        <ele>387</ele>
        <time>2015-06-01T11:12:49Z</time>
      </trkpt>
      <trkpt lat="45.07153" lon="5.64261">
        <ele>384</ele>
        <time>2015-06-01T11:12:53Z</time>
      </trkpt>
      <trkpt lat="45.0712" lon="5.64323">
        <ele>382</ele>
        <time>2015-06-01T11:13:01Z</time>
      </trkpt>
      <trkpt lat="45.07092" lon="5.64381">
        <ele>377</ele>
        <time>2015-06-01T11:13:07Z</time>
      </trkpt>
      <trkpt lat="45.07085" lon="5.64401">
        <ele>376</ele>
        <time>2015-06-01T11:13:09Z</time>
      </trkpt>
      <trkpt lat="45.07064" lon="5.64455">
        <ele>373</ele>
        <time>2015-06-01T11:13:15Z</time>
      </trkpt>
      <trkpt lat="45.07052" lon="5.64514">
        <ele>370</ele>
        <time>2015-06-01T11:13:20Z</time>
      </trkpt>
      <trkpt lat="45.07042" lon="5.64577">
        <ele>369</ele>
        <time>2015-06-01T11:13:25Z</time>
      </trkpt>
      <trkpt lat="45.07033" lon="5.6464">
        <ele>367</ele>
        <time>2015-06-01T11:13:30Z</time>
      </trkpt>
      <trkpt lat="45.07031" lon="5.6473">
        <ele>364</ele>
        <time>2015-06-01T11:13:37Z</time>
      </trkpt>
      <trkpt lat="45.07034" lon="5.64843">
        <ele>359</ele>
        <time>2015-06-01T11:13:46Z</time>
      </trkpt>
      <trkpt lat="45.07041" lon="5.6497">
        <ele>356</ele>
        <time>2015-06-01T11:13:57Z</time>
      </trkpt>
      <trkpt lat="45.07047" lon="5.65077">
        <ele>354</ele>
        <time>2015-06-01T11:14:07Z</time>
      </trkpt>
      <trkpt lat="45.07061" lon="5.65175">
        <ele>350</ele>
        <time>2015-06-01T11:14:17Z</time>
      </trkpt>
      <trkpt lat="45.07071" lon="5.65225">
        <ele>350</ele>
        <time>2015-06-01T11:14:22Z</time>
      </trkpt>
      <trkpt lat="45.07084" lon="5.65263">
        <ele>348</ele>
        <time>2015-06-01T11:14:26Z</time>
      </trkpt>
      <trkpt lat="45.07103" lon="5.65298">
        <ele>348</ele>
        <time>2015-06-01T11:14:30Z</time>
      </trkpt>
      <trkpt lat="45.07145" lon="5.65385">
        <ele>345</ele>
        <time>2015-06-01T11:14:39Z</time>
      </trkpt>
      <trkpt lat="45.07149" lon="5.65396">
        <ele>345</ele>
        <time>2015-06-01T11:14:40Z</time>
      </trkpt>
      <trkpt lat="45.07184" lon="5.65511">
        <ele>339</ele>
        <time>2015-06-01T11:14:51Z</time>
      </trkpt>
      <trkpt lat="45.0719" lon="5.65533">
        <ele>339</ele>
        <time>2015-06-01T11:14:53Z</time>
      </trkpt>
      <trkpt lat="45.07208" lon="5.65572">
        <ele>339</ele>
        <time>2015-06-01T11:14:57Z</time>
      </trkpt>
      <trkpt lat="45.07235" lon="5.65641">
        <ele>336</ele>
        <time>2015-06-01T11:15:04Z</time>
      </trkpt>
      <trkpt lat="45.0726" lon="5.65684">
        <ele>333</ele>
        <time>2015-06-01T11:15:09Z</time>
      </trkpt>
      <trkpt lat="45.07319" lon="5.65745">
        <ele>331</ele>
        <time>2015-06-01T11:15:19Z</time>
      </trkpt>
      <trkpt lat="45.0734" lon="5.6577">
        <ele>329</ele>
        <time>2015-06-01T11:15:23Z</time>
      </trkpt>
      <trkpt lat="45.07358" lon="5.65802">
        <ele>328</ele>
        <time>2015-06-01T11:15:27Z</time>
      </trkpt>
      <trkpt lat="45.07391" lon="5.65921">
        <ele>325</ele>
        <time>2015-06-01T11:15:40Z</time>
      </trkpt>
      <trkpt lat="45.07401" lon="5.65947">
        <ele>325</ele>
        <time>2015-06-01T11:15:43Z</time>
      </trkpt>
      <trkpt lat="45.07452" lon="5.66023">
        <ele>321</ele>
        <time>2015-06-01T11:15:54Z</time>
      </trkpt>
      <trkpt lat="45.07474" lon="5.66038">
        <ele>320</ele>
        <time>2015-06-01T11:15:58Z</time>
      </trkpt>
      <trkpt lat="45.07543" lon="5.66092">
        <ele>317</ele>
        <time>2015-06-01T11:16:11Z</time>
      </trkpt>
      <trkpt lat="45.07617" lon="5.66175">
        <ele>314</ele>
        <time>2015-06-01T11:16:26Z</time>
      </trkpt>
      <trkpt lat="45.07655" lon="5.66218">
        <ele>314</ele>
        <time>2015-06-01T11:16:33Z</time>
      </trkpt>
      <trkpt lat="45.07736" lon="5.66249">
        <ele>311</ele>
        <time>2015-06-01T11:16:44Z</time>
      </trkpt>
      <trkpt lat="45.07854" lon="5.66273">
        <ele>308</ele>
        <time>2015-06-01T11:17:01Z</time>
      </trkpt>
      <trkpt lat="45.07947" lon="5.66289">
        <ele>307</ele>
        <time>2015-06-01T11:17:14Z</time>
      </trkpt>
      <trkpt lat="45.07985" lon="5.66317">
        <ele>306</ele>
        <time>2015-06-01T11:17:20Z</time>
      </trkpt>
      <trkpt lat="45.08004" lon="5.66369">
        <ele>303</ele>
        <time>2015-06-01T11:17:26Z</time>
      </trkpt>
      <trkpt lat="45.08004" lon="5.6638">
        <ele>303</ele>
        <time>2015-06-01T11:17:27Z</time>
      </trkpt>
      <trkpt lat="45.07982" lon="5.66561">
        <ele>302</ele>
        <time>2015-06-01T11:17:45Z</time>
      </trkpt>
      <trkpt lat="45.07965" lon="5.66625">
        <ele>302</ele>
        <time>2015-06-01T11:17:52Z</time>
      </trkpt>
      <trkpt lat="45.07961" lon="5.66709">
        <ele>301</ele>
        <time>2015-06-01T11:18:01Z</time>
      </trkpt>
      <trkpt lat="45.07974" lon="5.66754">
        <ele>299</ele>
        <time>2015-06-01T11:18:06Z</time>
      </trkpt>
      <trkpt lat="45.08072" lon="5.66936">
        <ele>298</ele>
        <time>2015-06-01T11:18:28Z</time>
      </trkpt>
      <trkpt lat="45.08145" lon="5.67063">
        <ele>298</ele>
        <time>2015-06-01T11:18:43Z</time>
      </trkpt>
      <trkpt lat="45.08202" lon="5.67185">
        <ele>293</ele>
        <time>2015-06-01T11:18:56Z</time>
      </trkpt>
      <trkpt lat="45.08283" lon="5.6735">
        <ele>288</ele>
        <time>2015-06-01T11:19:15Z</time>
      </trkpt>
      <trkpt lat="45.08315" lon="5.67474">
        <ele>289</ele>
        <time>2015-06-01T11:19:31Z</time>
      </trkpt>
      <trkpt lat="45.08375" lon="5.67582">
        <ele>295</ele>
        <time>2015-06-01T11:19:49Z</time>
      </trkpt>
      <trkpt lat="45.08387" lon="5.67594">
        <ele>310</ele>
        <time>2015-06-01T11:19:52Z</time>
      </trkpt>
      <trkpt lat="45.08477" lon="5.6765">
        <ele>303</ele>
        <time>2015-06-01T11:20:10Z</time>
      </trkpt>
      <trkpt lat="45.08532" lon="5.67695">
        <ele>308</ele>
        <time>2015-06-01T11:20:19Z</time>
      </trkpt>
      <trkpt lat="45.08573" lon="5.67735">
        <ele>307</ele>
        <time>2015-06-01T11:20:25Z</time>
      </trkpt>
      <trkpt lat="45.08594" lon="5.67755">
        <ele>301</ele>
        <time>2015-06-01T11:20:28Z</time>
      </trkpt>
      <trkpt lat="45.0862" lon="5.67778">
        <ele>297</ele>
        <time>2015-06-01T11:20:32Z</time>
      </trkpt>
      <trkpt lat="45.08635" lon="5.678">
        <ele>295</ele>
        <time>2015-06-01T11:20:35Z</time>
      </trkpt>
      <trkpt lat="45.08667" lon="5.6783">
        <ele>288</ele>
        <time>2015-06-01T11:20:42Z</time>
      </trkpt>
      <trkpt lat="45.08683" lon="5.67826">
        <ele>287</ele>
        <time>2015-06-01T11:20:45Z</time>
      </trkpt>
      <trkpt lat="45.08695" lon="5.67817">
        <ele>286</ele>
        <time>2015-06-01T11:20:48Z</time>
      </trkpt>
      <trkpt lat="45.08691" lon="5.67821">
        <ele>286</ele>
        <time>2015-06-01T11:20:54Z</time>
      </trkpt>
      <trkpt lat="45.08708" lon="5.67835">
        <ele>289</ele>
        <time>2015-06-01T11:21:00Z</time>
      </trkpt>
      <trkpt lat="45.08717" lon="5.67837">
        <ele>288</ele>
        <time>2015-06-01T11:21:02Z</time>
      </trkpt>
      <trkpt lat="45.08732" lon="5.67852">
        <ele>288</ele>
        <time>2015-06-01T11:21:06Z</time>
      </trkpt>
      <trkpt lat="45.08743" lon="5.67866">
        <ele>288</ele>
        <time>2015-06-01T11:21:09Z</time>
      </trkpt>
      <trkpt lat="45.08771" lon="5.67904">
        <ele>283</ele>
        <time>2015-06-01T11:21:18Z</time>
      </trkpt>
      <trkpt lat="45.08792" lon="5.67931">
        <ele>281</ele>
        <time>2015-06-01T11:21:23Z</time>
      </trkpt>
      <trkpt lat="45.08803" lon="5.67962">
        <ele>280</ele>
        <time>2015-06-01T11:21:29Z</time>
      </trkpt>
      <trkpt lat="45.08796" lon="5.67978">
        <ele>280</ele>
        <time>2015-06-01T11:21:32Z</time>
      </trkpt>
      <trkpt lat="45.08781" lon="5.68005">
        <ele>278</ele>
        <time>2015-06-01T11:21:37Z</time>
      </trkpt>
      <trkpt lat="45.08742" lon="5.68084">
        <ele>277</ele>
        <time>2015-06-01T11:21:49Z</time>
      </trkpt>
      <trkpt lat="45.08705" lon="5.68161">
        <ele>275</ele>
        <time>2015-06-01T11:22:00Z</time>
      </trkpt>
      <trkpt lat="45.08702" lon="5.68168">
        <ele>275</ele>
        <time>2015-06-01T11:22:01Z</time>
      </trkpt>
      <trkpt lat="45.0868" lon="5.68259">
        <ele>276</ele>
        <time>2015-06-01T11:22:14Z</time>
      </trkpt>
      <trkpt lat="45.08666" lon="5.68301">
        <ele>276</ele>
        <time>2015-06-01T11:22:24Z</time>
      </trkpt>
      <trkpt lat="45.08663" lon="5.68303">
        <ele>276</ele>
        <time>2015-06-01T11:22:34Z</time>
      </trkpt>
      <trkpt lat="45.0866" lon="5.68303">
        <ele>276</ele>
        <time>2015-06-01T11:22:37Z</time>
      </trkpt>
      <trkpt lat="45.08659" lon="5.68312">
        <ele>276</ele>
        <time>2015-06-01T11:22:41Z</time>
      </trkpt>
      <trkpt lat="45.08656" lon="5.68358">
        <ele>275</ele>
        <time>2015-06-01T11:22:55Z</time>
      </trkpt>
      <trkpt lat="45.08655" lon="5.68377">
        <ele>275</ele>
        <time>2015-06-01T11:23:06Z</time>
      </trkpt>
      <trkpt lat="45.08655" lon="5.68378">
        <ele>275</ele>
        <time>2015-06-01T11:23:07Z</time>
      </trkpt>
      <trkpt lat="45.08634" lon="5.68418">
        <ele>274</ele>
        <time>2015-06-01T11:23:16Z</time>
      </trkpt>
      <trkpt lat="45.08616" lon="5.68497">
        <ele>274</ele>
        <time>2015-06-01T11:23:26Z</time>
      </trkpt>
      <trkpt lat="45.08582" lon="5.68651">
        <ele>273</ele>
        <time>2015-06-01T11:23:47Z</time>
      </trkpt>
      <trkpt lat="45.08569" lon="5.6872">
        <ele>272</ele>
        <time>2015-06-01T11:23:59Z</time>
      </trkpt>
      <trkpt lat="45.086" lon="5.68742">
        <ele>272</ele>
        <time>2015-06-01T11:24:10Z</time>
      </trkpt>
      <trkpt lat="45.08613" lon="5.68749">
        <ele>272</ele>
        <time>2015-06-01T11:24:14Z</time>
      </trkpt>
      <trkpt lat="45.08683" lon="5.6879">
        <ele>273</ele>
        <time>2015-06-01T11:24:29Z</time>
      </trkpt>
      <trkpt lat="45.08718" lon="5.68807">
        <ele>273</ele>
        <time>2015-06-01T11:24:39Z</time>
      </trkpt>
      <trkpt lat="45.08771" lon="5.68842">
        <ele>273</ele>
        <time>2015-06-01T11:24:49Z</time>
      </trkpt>
      <trkpt lat="45.08859" lon="5.68914">
        <ele>271</ele>
        <time>2015-06-01T11:25:05Z</time>
      </trkpt>
      <trkpt lat="45.08887" lon="5.68939">
        <ele>270</ele>
        <time>2015-06-01T11:25:10Z</time>
      </trkpt>
      <trkpt lat="45.08994" lon="5.69029">
        <ele>267</ele>
        <time>2015-06-01T11:25:29Z</time>
      </trkpt>
      <trkpt lat="45.09109" lon="5.69121">
        <ele>266</ele>
        <time>2015-06-01T11:25:50Z</time>
      </trkpt>
      <trkpt lat="45.09198" lon="5.69197">
        <ele>265</ele>
        <time>2015-06-01T11:26:07Z</time>
      </trkpt>
      <trkpt lat="45.09208" lon="5.69208">
        <ele>265</ele>
        <time>2015-06-01T11:26:09Z</time>
      </trkpt>
      <trkpt lat="45.09224" lon="5.69223">
        <ele>265</ele>
        <time>2015-06-01T11:26:12Z</time>
      </trkpt>
      <trkpt lat="45.0932" lon="5.69298">
        <ele>264</ele>
        <time>2015-06-01T11:26:28Z</time>
      </trkpt>
      <trkpt lat="45.09331" lon="5.69308">
        <ele>263</ele>
        <time>2015-06-01T11:26:30Z</time>
      </trkpt>
      <trkpt lat="45.09453" lon="5.6941">
        <ele>262</ele>
        <time>2015-06-01T11:26:52Z</time>
      </trkpt>
      <trkpt lat="45.09569" lon="5.69524">
        <ele>262</ele>
        <time>2015-06-01T11:27:14Z</time>
      </trkpt>
      <trkpt lat="45.0967" lon="5.69634">
        <ele>260</ele>
        <time>2015-06-01T11:27:33Z</time>
      </trkpt>
      <trkpt lat="45.09686" lon="5.69651">
        <ele>259</ele>
        <time>2015-06-01T11:27:36Z</time>
      </trkpt>
      <trkpt lat="45.09775" lon="5.69721">
        <ele>260</ele>
        <time>2015-06-01T11:27:51Z</time>
      </trkpt>
      <trkpt lat="45.09827" lon="5.69758">
        <ele>260</ele>
        <time>2015-06-01T11:28:00Z</time>
      </trkpt>
      <trkpt lat="45.09839" lon="5.69764">
        <ele>259</ele>
        <time>2015-06-01T11:28:03Z</time>
      </trkpt>
      <trkpt lat="45.09843" lon="5.69772">
        <ele>259</ele>
        <time>2015-06-01T11:28:07Z</time>
      </trkpt>
      <trkpt lat="45.0989" lon="5.69803">
        <ele>258</ele>
        <time>2015-06-01T11:28:18Z</time>
      </trkpt>
      <trkpt lat="45.09929" lon="5.69825">
        <ele>257</ele>
        <time>2015-06-01T11:28:30Z</time>
      </trkpt>
      <trkpt lat="45.0994" lon="5.6984">
        <ele>257</ele>
        <time>2015-06-01T11:28:34Z</time>
      </trkpt>
      <trkpt lat="45.09957" lon="5.69857">
        <ele>257</ele>
        <time>2015-06-01T11:28:38Z</time>
      </trkpt>
      <trkpt lat="45.09999" lon="5.6989">
        <ele>257</ele>
        <time>2015-06-01T11:28:46Z</time>
      </trkpt>
      <trkpt lat="45.10094" lon="5.6996">
        <ele>251</ele>
        <time>2015-06-01T11:29:02Z</time>
      </trkpt>
      <trkpt lat="45.102" lon="5.70024">
        <ele>253</ele>
        <time>2015-06-01T11:29:19Z</time>
      </trkpt>
      <trkpt lat="45.10223" lon="5.70026">
        <ele>254</ele>
        <time>2015-06-01T11:29:22Z</time>
      </trkpt>
      <trkpt lat="45.1029" lon="5.70011">
        <ele>255</ele>
        <time>2015-06-01T11:29:32Z</time>
      </trkpt>
      <trkpt lat="45.10347" lon="5.69966">
        <ele>254</ele>
        <time>2015-06-01T11:29:41Z</time>
      </trkpt>
      <trkpt lat="45.10438" lon="5.69869">
        <ele>252</ele>
        <time>2015-06-01T11:29:57Z</time>
      </trkpt>
      <trkpt lat="45.10521" lon="5.69777">
        <ele>250</ele>
        <time>2015-06-01T11:30:12Z</time>
      </trkpt>
      <trkpt lat="45.10575" lon="5.69715">
        <ele>252</ele>
        <time>2015-06-01T11:30:22Z</time>
      </trkpt>
      <trkpt lat="45.10654" lon="5.69629">
        <ele>252</ele>
        <time>2015-06-01T11:30:36Z</time>
      </trkpt>
      <trkpt lat="45.10667" lon="5.69618">
        <ele>250</ele>
        <time>2015-06-01T11:30:38Z</time>
      </trkpt>
      <trkpt lat="45.1071" lon="5.69567">
        <ele>250</ele>
        <time>2015-06-01T11:30:46Z</time>
      </trkpt>
      <trkpt lat="45.1075" lon="5.69527">
        <ele>249</ele>
        <time>2015-06-01T11:30:53Z</time>
      </trkpt>
      <trkpt lat="45.10799" lon="5.69471">
        <ele>250</ele>
        <time>2015-06-01T11:31:02Z</time>
      </trkpt>
      <trkpt lat="45.10851" lon="5.69417">
        <ele>252</ele>
        <time>2015-06-01T11:31:12Z</time>
      </trkpt>
      <trkpt lat="45.10868" lon="5.69397">
        <ele>266</ele>
        <time>2015-06-01T11:31:15Z</time>
      </trkpt>
      <trkpt lat="45.109" lon="5.69385">
        <ele>269</ele>
        <time>2015-06-01T11:31:21Z</time>
      </trkpt>
      <trkpt lat="45.10929" lon="5.69399">
        <ele>269</ele>
        <time>2015-06-01T11:31:26Z</time>
      </trkpt>
      <trkpt lat="45.10946" lon="5.69408">
        <ele>271</ele>
        <time>2015-06-01T11:31:29Z</time>
      </trkpt>
      <trkpt lat="45.10976" lon="5.69417">
        <ele>256</ele>
        <time>2015-06-01T11:31:34Z</time>
      </trkpt>
      <trkpt lat="45.11013" lon="5.6944">
        <ele>264</ele>
        <time>2015-06-01T11:31:39Z</time>
      </trkpt>
      <trkpt lat="45.11029" lon="5.69455">
        <ele>265</ele>
        <time>2015-06-01T11:31:42Z</time>
      </trkpt>
      <trkpt lat="45.11041" lon="5.69462">
        <ele>266</ele>
        <time>2015-06-01T11:31:44Z</time>
      </trkpt>
      <trkpt lat="45.11097" lon="5.69509">
        <ele>257</ele>
        <time>2015-06-01T11:31:53Z</time>
      </trkpt>
      <trkpt lat="45.11108" lon="5.69518">
        <ele>257</ele>
        <time>2015-06-01T11:31:55Z</time>
      </trkpt>
      <trkpt lat="45.1113" lon="5.69522">
        <ele>257</ele>
        <time>2015-06-01T11:31:59Z</time>
      </trkpt>
      <trkpt lat="45.11148" lon="5.69521">
        <ele>258</ele>
        <time>2015-06-01T11:32:02Z</time>
      </trkpt>
      <trkpt lat="45.11197" lon="5.69509">
        <ele>258</ele>
        <time>2015-06-01T11:32:10Z</time>
      </trkpt>
      <trkpt lat="45.11246" lon="5.69517">
        <ele>258</ele>
        <time>2015-06-01T11:32:18Z</time>
      </trkpt>
      <trkpt lat="45.11272" lon="5.69517">
        <ele>259</ele>
        <time>2015-06-01T11:32:21Z</time>
      </trkpt>
      <trkpt lat="45.11303" lon="5.6952">
        <ele>261</ele>
        <time>2015-06-01T11:32:25Z</time>
      </trkpt>
      <trkpt lat="45.11325" lon="5.69531">
        <ele>261</ele>
        <time>2015-06-01T11:32:28Z</time>
      </trkpt>
      <trkpt lat="45.11344" lon="5.69545">
        <ele>263</ele>
        <time>2015-06-01T11:32:31Z</time>
      </trkpt>
      <trkpt lat="45.11384" lon="5.69552">
        <ele>264</ele>
        <time>2015-06-01T11:32:37Z</time>
      </trkpt>
      <trkpt lat="45.11416" lon="5.69565">
        <ele>261</ele>
        <time>2015-06-01T11:32:42Z</time>
      </trkpt>
      <trkpt lat="45.11429" lon="5.69574">
        <ele>263</ele>
        <time>2015-06-01T11:32:44Z</time>
      </trkpt>
      <trkpt lat="45.11452" lon="5.69595">
        <ele>256</ele>
        <time>2015-06-01T11:32:48Z</time>
      </trkpt>
      <trkpt lat="45.11463" lon="5.69602">
        <ele>256</ele>
        <time>2015-06-01T11:32:50Z</time>
      </trkpt>
      <trkpt lat="45.11495" lon="5.69613">
        <ele>257</ele>
        <time>2015-06-01T11:32:55Z</time>
      </trkpt>
      <trkpt lat="45.11529" lon="5.69633">
        <ele>256</ele>
        <time>2015-06-01T11:33:00Z</time>
      </trkpt>
      <trkpt lat="45.11563" lon="5.69643">
        <ele>255</ele>
        <time>2015-06-01T11:33:05Z</time>
      </trkpt>
      <trkpt lat="45.11627" lon="5.69644">
        <ele>253</ele>
        <time>2015-06-01T11:33:14Z</time>
      </trkpt>
      <trkpt lat="45.1166" lon="5.6963">
        <ele>253</ele>
        <time>2015-06-01T11:33:19Z</time>
      </trkpt>
      <trkpt lat="45.11671" lon="5.69618">
        <ele>251</ele>
        <time>2015-06-01T11:33:21Z</time>
      </trkpt>
      <trkpt lat="45.11742" lon="5.69592">
        <ele>249</ele>
        <time>2015-06-01T11:33:31Z</time>
      </trkpt>
      <trkpt lat="45.11784" lon="5.69581">
        <ele>253</ele>
        <time>2015-06-01T11:33:37Z</time>
      </trkpt>
      <trkpt lat="45.11809" lon="5.69587">
        <ele>252</ele>
        <time>2015-06-01T11:33:41Z</time>
      </trkpt>
      <trkpt lat="45.11822" lon="5.69596">
        <ele>253</ele>
        <time>2015-06-01T11:33:43Z</time>
      </trkpt>
      <trkpt lat="45.1185" lon="5.69634">
        <ele>252</ele>
        <time>2015-06-01T11:33:49Z</time>
      </trkpt>
      <trkpt lat="45.11865" lon="5.69654">
        <ele>251</ele>
        <time>2015-06-01T11:33:52Z</time>
      </trkpt>
      <trkpt lat="45.1189" lon="5.6966">
        <ele>251</ele>
        <time>2015-06-01T11:33:57Z</time>
      </trkpt>
      <trkpt lat="45.11901" lon="5.69652">
        <ele>252</ele>
        <time>2015-06-01T11:34:00Z</time>
      </trkpt>
      <trkpt lat="45.11915" lon="5.69651">
        <ele>252</ele>
        <time>2015-06-01T11:34:04Z</time>
      </trkpt>
      <trkpt lat="45.11922" lon="5.69701">
        <ele>249</ele>
        <time>2015-06-01T11:34:17Z</time>
      </trkpt>
      <trkpt lat="45.11925" lon="5.69745">
        <ele>247</ele>
        <time>2015-06-01T11:34:31Z</time>
      </trkpt>
      <trkpt lat="45.11926" lon="5.69748">
        <ele>247</ele>
        <time>2015-06-01T11:34:35Z</time>
      </trkpt>
      <trkpt lat="45.11932" lon="5.69746">
        <ele>247</ele>
        <time>2015-06-01T11:34:39Z</time>
      </trkpt>
      <trkpt lat="45.11939" lon="5.69739">
        <ele>248</ele>
        <time>2015-06-01T11:34:53Z</time>
      </trkpt>
      <trkpt lat="45.11939" lon="5.69741">
        <ele>248</ele>
        <time>2015-06-01T11:37:15Z</time>
      </trkpt>
      <trkpt lat="45.11939" lon="5.6974">
        <ele>248</ele>
        <time>2015-06-01T11:37:36Z</time>
      </trkpt>
      <trkpt lat="45.11941" lon="5.69736">
        <ele>248</ele>
        <time>2015-06-01T11:37:38Z</time>
      </trkpt>
      <trkpt lat="45.11969" lon="5.69723">
        <ele>248</ele>
        <time>2015-06-01T11:37:48Z</time>
      </trkpt>
      <trkpt lat="45.12009" lon="5.69725">
        <ele>249</ele>
        <time>2015-06-01T11:38:00Z</time>
      </trkpt>
      <trkpt lat="45.12035" lon="5.69727">
        <ele>250</ele>
        <time>2015-06-01T11:38:09Z</time>
      </trkpt>
      <trkpt lat="45.12054" lon="5.69713">
        <ele>250</ele>
        <time>2015-06-01T11:38:19Z</time>
      </trkpt>
      <trkpt lat="45.12079" lon="5.69694">
        <ele>248</ele>
        <time>2015-06-01T11:38:31Z</time>
      </trkpt>
      <trkpt lat="45.12082" lon="5.69693">
        <ele>248</ele>
        <time>2015-06-01T11:38:32Z</time>
      </trkpt>
      <trkpt lat="45.12088" lon="5.69683">
        <ele>247</ele>
        <time>2015-06-01T11:38:42Z</time>
      </trkpt>
      <trkpt lat="45.12077" lon="5.69661">
        <ele>245</ele>
        <time>2015-06-01T11:40:00Z</time>
      </trkpt>
      <trkpt lat="45.12071" lon="5.69646">
        <ele>245</ele>
        <time>2015-06-01T11:40:14Z</time>
      </trkpt>
      <trkpt lat="45.12069" lon="5.6965">
        <ele>245</ele>
        <time>2015-06-01T11:40:29Z</time>
      </trkpt>
      <trkpt lat="45.12077" lon="5.6966">
        <ele>245</ele>
        <time>2015-06-01T11:40:35Z</time>
      </trkpt>
      <trkpt lat="45.12089" lon="5.69677">
        <ele>246</ele>
        <time>2015-06-01T11:40:41Z</time>
      </trkpt>
      <trkpt lat="45.12085" lon="5.69691">
        <ele>248</ele>
        <time>2015-06-01T11:40:45Z</time>
      </trkpt>
      <trkpt lat="45.12071" lon="5.69702">
        <ele>249</ele>
        <time>2015-06-01T11:40:49Z</time>
      </trkpt>
      <trkpt lat="45.12042" lon="5.69722">
        <ele>250</ele>
        <time>2015-06-01T11:40:57Z</time>
      </trkpt>
      <trkpt lat="45.12039" lon="5.69739">
        <ele>250</ele>
        <time>2015-06-01T11:41:01Z</time>
      </trkpt>
      <trkpt lat="45.1204" lon="5.6975">
        <ele>251</ele>
        <time>2015-06-01T11:41:03Z</time>
      </trkpt>
      <trkpt lat="45.12035" lon="5.69775">
        <ele>250</ele>
        <time>2015-06-01T11:41:08Z</time>
      </trkpt>
      <trkpt lat="45.12029" lon="5.69789">
        <ele>250</ele>
        <time>2015-06-01T11:41:11Z</time>
      </trkpt>
      <trkpt lat="45.12007" lon="5.69795">
        <ele>250</ele>
        <time>2015-06-01T11:41:16Z</time>
      </trkpt>
      <trkpt lat="45.11984" lon="5.69792">
        <ele>248</ele>
        <time>2015-06-01T11:41:20Z</time>
      </trkpt>
      <trkpt lat="45.11966" lon="5.69787">
        <ele>248</ele>
        <time>2015-06-01T11:41:23Z</time>
      </trkpt>
      <trkpt lat="45.11955" lon="5.69786">
        <ele>248</ele>
        <time>2015-06-01T11:41:25Z</time>
      </trkpt>
      <trkpt lat="45.11945" lon="5.69803">
        <ele>249</ele>
        <time>2015-06-01T11:41:31Z</time>
      </trkpt>
      <trkpt lat="45.1195" lon="5.6981">
        <ele>249</ele>
        <time>2015-06-01T11:41:33Z</time>
      </trkpt>
      <trkpt lat="45.1196" lon="5.69824">
        <ele>249</ele>
        <time>2015-06-01T11:41:36Z</time>
      </trkpt>
      <trkpt lat="45.1198" lon="5.69836">
        <ele>249</ele>
        <time>2015-06-01T11:41:40Z</time>
      </trkpt>
      <trkpt lat="45.11997" lon="5.69842">
        <ele>248</ele>
        <time>2015-06-01T11:41:43Z</time>
      </trkpt>
      <trkpt lat="45.12019" lon="5.69879">
        <ele>247</ele>
        <time>2015-06-01T11:41:50Z</time>
      </trkpt>
      <trkpt lat="45.1202" lon="5.69899">
        <ele>247</ele>
        <time>2015-06-01T11:41:53Z</time>
      </trkpt>
      <trkpt lat="45.12067" lon="5.70018">
        <ele>246</ele>
        <time>2015-06-01T11:42:12Z</time>
      </trkpt>
      <trkpt lat="45.12048" lon="5.70047">
        <ele>246</ele>
        <time>2015-06-01T11:42:19Z</time>
      </trkpt>
      <trkpt lat="45.11984" lon="5.70096">
        <ele>246</ele>
        <time>2015-06-01T11:42:32Z</time>
      </trkpt>
      <trkpt lat="45.11921" lon="5.70149">
        <ele>246</ele>
        <time>2015-06-01T11:42:45Z</time>
      </trkpt>
      <trkpt lat="45.11797" lon="5.70247">
        <ele>247</ele>
        <time>2015-06-01T11:43:07Z</time>
      </trkpt>
      <trkpt lat="45.11678" lon="5.70345">
        <ele>247</ele>
        <time>2015-06-01T11:43:26Z</time>
      </trkpt>
      <trkpt lat="45.11535" lon="5.70458">
        <ele>249</ele>
        <time>2015-06-01T11:43:50Z</time>
      </trkpt>
      <trkpt lat="45.11461" lon="5.70519">
        <ele>250</ele>
        <time>2015-06-01T11:44:03Z</time>
      </trkpt>
      <trkpt lat="45.11423" lon="5.70547">
        <ele>250</ele>
        <time>2015-06-01T11:44:11Z</time>
      </trkpt>
      <trkpt lat="45.11441" lon="5.70578">
        <ele>250</ele>
        <time>2015-06-01T11:44:16Z</time>
      </trkpt>
      <trkpt lat="45.11444" lon="5.70619">
        <ele>250</ele>
        <time>2015-06-01T11:44:22Z</time>
      </trkpt>
      <trkpt lat="45.11391" lon="5.70702">
        <ele>251</ele>
        <time>2015-06-01T11:44:36Z</time>
      </trkpt>
      <trkpt lat="45.11383" lon="5.70713">
        <ele>252</ele>
        <time>2015-06-01T11:44:38Z</time>
      </trkpt>
      <trkpt lat="45.11356" lon="5.70737">
        <ele>252</ele>
        <time>2015-06-01T11:44:44Z</time>
      </trkpt>
      <trkpt lat="45.11338" lon="5.70771">
        <ele>255</ele>
        <time>2015-06-01T11:44:50Z</time>
      </trkpt>
      <trkpt lat="45.1135" lon="5.70809">
        <ele>258</ele>
        <time>2015-06-01T11:44:58Z</time>
      </trkpt>
      <trkpt lat="45.11365" lon="5.7081">
        <ele>257</ele>
        <time>2015-06-01T11:45:01Z</time>
      </trkpt>
      <trkpt lat="45.11444" lon="5.70801">
        <ele>256</ele>
        <time>2015-06-01T11:45:14Z</time>
      </trkpt>
      <trkpt lat="45.11517" lon="5.70798">
        <ele>254</ele>
        <time>2015-06-01T11:45:25Z</time>
      </trkpt>
      <trkpt lat="45.11576" lon="5.70799">
        <ele>253</ele>
        <time>2015-06-01T11:45:35Z</time>
      </trkpt>
      <trkpt lat="45.11609" lon="5.70813">
        <ele>253</ele>
        <time>2015-06-01T11:45:41Z</time>
      </trkpt>
      <trkpt lat="45.1165" lon="5.7084">
        <ele>259</ele>
        <time>2015-06-01T11:45:53Z</time>
      </trkpt>
      <trkpt lat="45.11664" lon="5.7085">
        <ele>259</ele>
        <time>2015-06-01T11:45:59Z</time>
      </trkpt>
      <trkpt lat="45.11667" lon="5.70851">
        <ele>258</ele>
        <time>2015-06-01T11:46:01Z</time>
      </trkpt>
      <trkpt lat="45.11689" lon="5.70862">
        <ele>258</ele>
        <time>2015-06-01T11:46:13Z</time>
      </trkpt>
      <trkpt lat="45.11703" lon="5.70874">
        <ele>258</ele>
        <time>2015-06-01T11:46:21Z</time>
      </trkpt>
      <trkpt lat="45.11719" lon="5.70896">
        <ele>258</ele>
        <time>2015-06-01T11:46:33Z</time>
      </trkpt>
      <trkpt lat="45.11736" lon="5.70928">
        <ele>262</ele>
        <time>2015-06-01T11:46:48Z</time>
      </trkpt>
      <trkpt lat="45.11744" lon="5.70943">
        <ele>264</ele>
        <time>2015-06-01T11:46:56Z</time>
      </trkpt>
      <trkpt lat="45.11748" lon="5.70949">
        <ele>265</ele>
        <time>2015-06-01T11:46:59Z</time>
      </trkpt>
      <trkpt lat="45.11754" lon="5.70975">
        <ele>264</ele>
        <time>2015-06-01T11:47:10Z</time>
      </trkpt>
      <trkpt lat="45.11754" lon="5.70986">
        <ele>267</ele>
        <time>2015-06-01T11:47:14Z</time>
      </trkpt>
      <trkpt lat="45.11752" lon="5.71021">
        <ele>272</ele>
        <time>2015-06-01T11:47:28Z</time>
      </trkpt>
      <trkpt lat="45.11744" lon="5.71057">
        <ele>278</ele>
        <time>2015-06-01T11:47:40Z</time>
      </trkpt>
      <trkpt lat="45.11732" lon="5.71107">
        <ele>288</ele>
        <time>2015-06-01T11:47:57Z</time>
      </trkpt>
      <trkpt lat="45.11732" lon="5.7111">
        <ele>289</ele>
        <time>2015-06-01T11:47:58Z</time>
      </trkpt>
      <trkpt lat="45.11731" lon="5.71112">
        <ele>289</ele>
        <time>2015-06-01T11:48:12Z</time>
      </trkpt>
      <trkpt lat="45.11732" lon="5.71112">
        <ele>289</ele>
        <time>2015-06-01T11:48:44Z</time>
      </trkpt>
      <trkpt lat="45.11733" lon="5.71121">
        <ele>290</ele>
        <time>2015-06-01T11:48:49Z</time>
      </trkpt>
      <trkpt lat="45.11737" lon="5.71126">
        <ele>290</ele>
        <time>2015-06-01T11:48:56Z</time>
      </trkpt>
      <trkpt lat="45.11735" lon="5.71115">
        <ele>289</ele>
        <time>2015-06-01T11:49:02Z</time>
      </trkpt>
      <trkpt lat="45.11732" lon="5.71113">
        <ele>289</ele>
        <time>2015-06-01T11:49:04Z</time>
      </trkpt>
      <trkpt lat="45.11727" lon="5.71115">
        <ele>290</ele>
        <time>2015-06-01T11:49:08Z</time>
      </trkpt>
      <trkpt lat="45.11714" lon="5.71127">
        <ele>292</ele>
        <time>2015-06-01T11:49:20Z</time>
      </trkpt>
      <trkpt lat="45.11711" lon="5.71127">
        <ele>292</ele>
        <time>2015-06-01T11:49:23Z</time>
      </trkpt>
      <trkpt lat="45.11693" lon="5.71132">
        <ele>294</ele>
        <time>2015-06-01T11:49:35Z</time>
      </trkpt>
      <trkpt lat="45.1168" lon="5.71132">
        <ele>295</ele>
        <time>2015-06-01T11:49:43Z</time>
      </trkpt>
      <trkpt lat="45.11672" lon="5.71133">
        <ele>295</ele>
        <time>2015-06-01T11:49:48Z</time>
      </trkpt>
      <trkpt lat="45.11659" lon="5.71132">
        <ele>302</ele>
        <time>2015-06-01T11:49:55Z</time>
      </trkpt>
      <trkpt lat="45.11654" lon="5.71133">
        <ele>302</ele>
        <time>2015-06-01T11:49:59Z</time>
      </trkpt>
      <trkpt lat="45.11648" lon="5.71132">
        <ele>302</ele>
        <time>2015-06-01T11:50:06Z</time>
      </trkpt>
      <trkpt lat="45.11633" lon="5.71135">
        <ele>303</ele>
        <time>2015-06-01T11:50:14Z</time>
      </trkpt>
      <trkpt lat="45.11621" lon="5.71138">
        <ele>305</ele>
        <time>2015-06-01T11:50:24Z</time>
      </trkpt>
      <trkpt lat="45.11603" lon="5.71146">
        <ele>308</ele>
        <time>2015-06-01T11:50:35Z</time>
      </trkpt>
      <trkpt lat="45.11595" lon="5.71152">
        <ele>311</ele>
        <time>2015-06-01T11:50:44Z</time>
      </trkpt>
      <trkpt lat="45.11595" lon="5.71152">
        <ele>311</ele>
        <time>2015-06-01T11:50:45Z</time>
      </trkpt>
      <trkpt lat="45.11583" lon="5.71164">
        <ele>320</ele>
        <time>2015-06-01T11:50:57Z</time>
      </trkpt>
      <trkpt lat="45.1158" lon="5.71167">
        <ele>323</ele>
        <time>2015-06-01T11:51:00Z</time>
      </trkpt>
      <trkpt lat="45.1156" lon="5.71176">
        <ele>332</ele>
        <time>2015-06-01T11:51:13Z</time>
      </trkpt>
      <trkpt lat="45.1155" lon="5.71181">
        <ele>335</ele>
        <time>2015-06-01T11:51:19Z</time>
      </trkpt>
      <trkpt lat="45.11537" lon="5.71182">
        <ele>336</ele>
        <time>2015-06-01T11:51:30Z</time>
      </trkpt>
      <trkpt lat="45.11527" lon="5.71192">
        <ele>338</ele>
        <time>2015-06-01T11:51:43Z</time>
      </trkpt>
      <trkpt lat="45.11525" lon="5.71194">
        <ele>338</ele>
        <time>2015-06-01T11:51:45Z</time>
      </trkpt>
      <trkpt lat="45.11512" lon="5.712">
        <ele>339</ele>
        <time>2015-06-01T11:51:56Z</time>
      </trkpt>
      <trkpt lat="45.11508" lon="5.71202">
        <ele>340</ele>
        <time>2015-06-01T11:52:02Z</time>
      </trkpt>
      <trkpt lat="45.11499" lon="5.71211">
        <ele>347</ele>
        <time>2015-06-01T11:52:13Z</time>
      </trkpt>
      <trkpt lat="45.11493" lon="5.71214">
        <ele>348</ele>
        <time>2015-06-01T11:52:19Z</time>
      </trkpt>
      <trkpt lat="45.11484" lon="5.71218">
        <ele>349</ele>
        <time>2015-06-01T11:52:25Z</time>
      </trkpt>
      <trkpt lat="45.11477" lon="5.71217">
        <ele>348</ele>
        <time>2015-06-01T11:52:28Z</time>
      </trkpt>
      <trkpt lat="45.11457" lon="5.71221">
        <ele>350</ele>
        <time>2015-06-01T11:52:42Z</time>
      </trkpt>
      <trkpt lat="45.11456" lon="5.71221">
        <ele>350</ele>
        <time>2015-06-01T11:52:43Z</time>
      </trkpt>
      <trkpt lat="45.11454" lon="5.71222">
        <ele>350</ele>
        <time>2015-06-01T11:52:45Z</time>
      </trkpt>
      <trkpt lat="45.11443" lon="5.71225">
        <ele>351</ele>
        <time>2015-06-01T11:52:52Z</time>
      </trkpt>
      <trkpt lat="45.11439" lon="5.71231">
        <ele>352</ele>
        <time>2015-06-01T11:53:10Z</time>
      </trkpt>
      <trkpt lat="45.11443" lon="5.71234">
        <ele>352</ele>
        <time>2015-06-01T11:55:09Z</time>
      </trkpt>
      <trkpt lat="45.11448" lon="5.71243">
        <ele>353</ele>
        <time>2015-06-01T11:55:16Z</time>
      </trkpt>
      <trkpt lat="45.11453" lon="5.71245">
        <ele>352</ele>
        <time>2015-06-01T11:55:19Z</time>
      </trkpt>
      <trkpt lat="45.11458" lon="5.71248">
        <ele>352</ele>
        <time>2015-06-01T11:55:23Z</time>
      </trkpt>
      <trkpt lat="45.11462" lon="5.7125">
        <ele>352</ele>
        <time>2015-06-01T11:55:25Z</time>
      </trkpt>
      <trkpt lat="45.11466" lon="5.71254">
        <ele>368</ele>
        <time>2015-06-01T11:55:28Z</time>
      </trkpt>
      <trkpt lat="45.11479" lon="5.71264">
        <ele>367</ele>
        <time>2015-06-01T11:55:39Z</time>
      </trkpt>
      <trkpt lat="45.11481" lon="5.71266">
        <ele>367</ele>
        <time>2015-06-01T11:55:42Z</time>
      </trkpt>
      <trkpt lat="45.11485" lon="5.71269">
        <ele>367</ele>
        <time>2015-06-01T11:55:46Z</time>
      </trkpt>
      <trkpt lat="45.11502" lon="5.71283">
        <ele>365</ele>
        <time>2015-06-01T11:56:00Z</time>
      </trkpt>
      <trkpt lat="45.11508" lon="5.71294">
        <ele>368</ele>
        <time>2015-06-01T11:56:12Z</time>
      </trkpt>
      <trkpt lat="45.11512" lon="5.71303">
        <ele>370</ele>
        <time>2015-06-01T11:56:22Z</time>
      </trkpt>
      <trkpt lat="45.11526" lon="5.71316">
        <ele>371</ele>
        <time>2015-06-01T11:56:38Z</time>
      </trkpt>
      <trkpt lat="45.11539" lon="5.71328">
        <ele>371</ele>
        <time>2015-06-01T11:56:53Z</time>
      </trkpt>
      <trkpt lat="45.11554" lon="5.71337">
        <ele>383</ele>
        <time>2015-06-01T11:57:08Z</time>
      </trkpt>
      <trkpt lat="45.11562" lon="5.71343">
        <ele>381</ele>
        <time>2015-06-01T11:57:16Z</time>
      </trkpt>
      <trkpt lat="45.11581" lon="5.71348">
        <ele>379</ele>
        <time>2015-06-01T11:57:29Z</time>
      </trkpt>
      <trkpt lat="45.11598" lon="5.71359">
        <ele>374</ele>
        <time>2015-06-01T11:57:40Z</time>
      </trkpt>
      <trkpt lat="45.11598" lon="5.71364">
        <ele>375</ele>
        <time>2015-06-01T11:57:43Z</time>
      </trkpt>
      <trkpt lat="45.11601" lon="5.71368">
        <ele>375</ele>
        <time>2015-06-01T11:57:46Z</time>
      </trkpt>
      <trkpt lat="45.11608" lon="5.71382">
        <ele>376</ele>
        <time>2015-06-01T11:57:56Z</time>
      </trkpt>
      <trkpt lat="45.11614" lon="5.71393">
        <ele>377</ele>
        <time>2015-06-01T11:58:04Z</time>
      </trkpt>
      <trkpt lat="45.11628" lon="5.71409">
        <ele>377</ele>
        <time>2015-06-01T11:58:11Z</time>
      </trkpt>
      <trkpt lat="45.11632" lon="5.71417">
        <ele>384</ele>
        <time>2015-06-01T11:58:15Z</time>
      </trkpt>
      <trkpt lat="45.11635" lon="5.71426">
        <ele>384</ele>
        <time>2015-06-01T11:58:19Z</time>
      </trkpt>
      <trkpt lat="45.11648" lon="5.7145">
        <ele>384</ele>
        <time>2015-06-01T11:58:27Z</time>
      </trkpt>
      <trkpt lat="45.11651" lon="5.71455">
        <ele>385</ele>
        <time>2015-06-01T11:58:29Z</time>
      </trkpt>
      <trkpt lat="45.11651" lon="5.71482">
        <ele>386</ele>
        <time>2015-06-01T11:58:41Z</time>
      </trkpt>
      <trkpt lat="45.11647" lon="5.71495">
        <ele>386</ele>
        <time>2015-06-01T11:58:47Z</time>
      </trkpt>
      <trkpt lat="45.11645" lon="5.71533">
        <ele>389</ele>
        <time>2015-06-01T11:59:02Z</time>
      </trkpt>
      <trkpt lat="45.11629" lon="5.71588">
        <ele>392</ele>
        <time>2015-06-01T11:59:22Z</time>
      </trkpt>
      <trkpt lat="45.11608" lon="5.7165">
        <ele>393</ele>
        <time>2015-06-01T11:59:37Z</time>
      </trkpt>
      <trkpt lat="45.11584" lon="5.71728">
        <ele>393</ele>
        <time>2015-06-01T11:59:48Z</time>
      </trkpt>
      <trkpt lat="45.1158" lon="5.71754">
        <ele>391</ele>
        <time>2015-06-01T11:59:51Z</time>
      </trkpt>
      <trkpt lat="45.11577" lon="5.71839">
        <ele>388</ele>
        <time>2015-06-01T12:00:00Z</time>
      </trkpt>
      <trkpt lat="45.11573" lon="5.71909">
        <ele>388</ele>
        <time>2015-06-01T12:00:10Z</time>
      </trkpt>
      <trkpt lat="45.11571" lon="5.7195">
        <ele>386</ele>
        <time>2015-06-01T12:00:20Z</time>
      </trkpt>
      <trkpt lat="45.11571" lon="5.7196">
        <ele>386</ele>
        <time>2015-06-01T12:00:23Z</time>
      </trkpt>
      <trkpt lat="45.11568" lon="5.71981">
        <ele>386</ele>
        <time>2015-06-01T12:00:30Z</time>
      </trkpt>
      <trkpt lat="45.11567" lon="5.71992">
        <ele>386</ele>
        <time>2015-06-01T12:00:32Z</time>
      </trkpt>
      <trkpt lat="45.11561" lon="5.72089">
        <ele>385</ele>
        <time>2015-06-01T12:00:47Z</time>
      </trkpt>
      <trkpt lat="45.11531" lon="5.72241">
        <ele>387</ele>
        <time>2015-06-01T12:01:10Z</time>
      </trkpt>
      <trkpt lat="45.11515" lon="5.72323">
        <ele>387</ele>
        <time>2015-06-01T12:01:22Z</time>
      </trkpt>
      <trkpt lat="45.11507" lon="5.72357">
        <ele>386</ele>
        <time>2015-06-01T12:01:27Z</time>
      </trkpt>
      <trkpt lat="45.11479" lon="5.72493">
        <ele>384</ele>
        <time>2015-06-01T12:01:44Z</time>
      </trkpt>
      <trkpt lat="45.11458" lon="5.72602">
        <ele>381</ele>
        <time>2015-06-01T12:01:58Z</time>
      </trkpt>
      <trkpt lat="45.11411" lon="5.72705">
        <ele>378</ele>
        <time>2015-06-01T12:02:12Z</time>
      </trkpt>
      <trkpt lat="45.11394" lon="5.72768">
        <ele>376</ele>
        <time>2015-06-01T12:02:19Z</time>
      </trkpt>
      <trkpt lat="45.11388" lon="5.72786">
        <ele>376</ele>
        <time>2015-06-01T12:02:21Z</time>
      </trkpt>
      <trkpt lat="45.11386" lon="5.72795">
        <ele>376</ele>
        <time>2015-06-01T12:02:22Z</time>
      </trkpt>
      <trkpt lat="45.11376" lon="5.72833">
        <ele>375</ele>
        <time>2015-06-01T12:02:26Z</time>
      </trkpt>
      <trkpt lat="45.11374" lon="5.72842">
        <ele>375</ele>
        <time>2015-06-01T12:02:27Z</time>
      </trkpt>
      <trkpt lat="45.1138" lon="5.72917">
        <ele>375</ele>
        <time>2015-06-01T12:02:35Z</time>
      </trkpt>
      <trkpt lat="45.11392" lon="5.72946">
        <ele>375</ele>
        <time>2015-06-01T12:02:40Z</time>
      </trkpt>
      <trkpt lat="45.11432" lon="5.72984">
        <ele>376</ele>
        <time>2015-06-01T12:02:51Z</time>
      </trkpt>
      <trkpt lat="45.11427" lon="5.73028">
        <ele>376</ele>
        <time>2015-06-01T12:02:59Z</time>
      </trkpt>
      <trkpt lat="45.11424" lon="5.73065">
        <ele>376</ele>
        <time>2015-06-01T12:03:04Z</time>
      </trkpt>
      <trkpt lat="45.11421" lon="5.73095">
        <ele>377</ele>
        <time>2015-06-01T12:03:08Z</time>
      </trkpt>
      <trkpt lat="45.11411" lon="5.73161">
        <ele>381</ele>
        <time>2015-06-01T12:03:20Z</time>
      </trkpt>
      <trkpt lat="45.11405" lon="5.73196">
        <ele>384</ele>
        <time>2015-06-01T12:03:30Z</time>
      </trkpt>
      <trkpt lat="45.11402" lon="5.73236">
        <ele>386</ele>
        <time>2015-06-01T12:03:42Z</time>
      </trkpt>
      <trkpt lat="45.11406" lon="5.73285">
        <ele>390</ele>
        <time>2015-06-01T12:03:55Z</time>
      </trkpt>
      <trkpt lat="45.11439" lon="5.73317">
        <ele>388</ele>
        <time>2015-06-01T12:04:08Z</time>
      </trkpt>
      <trkpt lat="45.11482" lon="5.73358">
        <ele>388</ele>
        <time>2015-06-01T12:04:20Z</time>
      </trkpt>
      <trkpt lat="45.11501" lon="5.73379">
        <ele>386</ele>
        <time>2015-06-01T12:04:25Z</time>
      </trkpt>
      <trkpt lat="45.1151" lon="5.73394">
        <ele>387</ele>
        <time>2015-06-01T12:04:28Z</time>
      </trkpt>
      <trkpt lat="45.11515" lon="5.73425">
        <ele>389</ele>
        <time>2015-06-01T12:04:34Z</time>
      </trkpt>
      <trkpt lat="45.11482" lon="5.73516">
        <ele>393</ele>
        <time>2015-06-01T12:04:53Z</time>
      </trkpt>
      <trkpt lat="45.11431" lon="5.7362">
        <ele>395</ele>
        <time>2015-06-01T12:05:13Z</time>
      </trkpt>
      <trkpt lat="45.11403" lon="5.73718">
        <ele>401</ele>
        <time>2015-06-01T12:05:31Z</time>
      </trkpt>
      <trkpt lat="45.11393" lon="5.7378">
        <ele>403</ele>
        <time>2015-06-01T12:05:44Z</time>
      </trkpt>
      <trkpt lat="45.11385" lon="5.73827">
        <ele>404</ele>
        <time>2015-06-01T12:05:57Z</time>
      </trkpt>
      <trkpt lat="45.11398" lon="5.73889">
        <ele>409</ele>
        <time>2015-06-01T12:06:13Z</time>
      </trkpt>
      <trkpt lat="45.11399" lon="5.73893">
        <ele>409</ele>
        <time>2015-06-01T12:06:14Z</time>
      </trkpt>
      <trkpt lat="45.11408" lon="5.7393">
        <ele>412</ele>
        <time>2015-06-01T12:06:27Z</time>
      </trkpt>
      <trkpt lat="45.11416" lon="5.73966">
        <ele>414</ele>
        <time>2015-06-01T12:06:39Z</time>
      </trkpt>
      <trkpt lat="45.11414" lon="5.74039">
        <ele>416</ele>
        <time>2015-06-01T12:06:56Z</time>
      </trkpt>
      <trkpt lat="45.11411" lon="5.74134">
        <ele>417</ele>
        <time>2015-06-01T12:07:15Z</time>
      </trkpt>
      <trkpt lat="45.11398" lon="5.74208">
        <ele>415</ele>
        <time>2015-06-01T12:07:26Z</time>
      </trkpt>
      <trkpt lat="45.11389" lon="5.74245">
        <ele>414</ele>
        <time>2015-06-01T12:07:31Z</time>
      </trkpt>
      <trkpt lat="45.11386" lon="5.74289">
        <ele>410</ele>
        <time>2015-06-01T12:07:36Z</time>
      </trkpt>
      <trkpt lat="45.11385" lon="5.74342">
        <ele>406</ele>
        <time>2015-06-01T12:07:42Z</time>
      </trkpt>
      <trkpt lat="45.11381" lon="5.74389">
        <ele>405</ele>
        <time>2015-06-01T12:07:48Z</time>
      </trkpt>
      <trkpt lat="45.11378" lon="5.74427">
        <ele>403</ele>
        <time>2015-06-01T12:07:53Z</time>
      </trkpt>
      <trkpt lat="45.114" lon="5.74478">
        <ele>402</ele>
        <time>2015-06-01T12:08:02Z</time>
      </trkpt>
      <trkpt lat="45.1141" lon="5.74504">
        <ele>400</ele>
        <time>2015-06-01T12:08:06Z</time>
      </trkpt>
      <trkpt lat="45.11419" lon="5.74535">
        <ele>398</ele>
        <time>2015-06-01T12:08:10Z</time>
      </trkpt>
      <trkpt lat="45.11424" lon="5.74597">
        <ele>395</ele>
        <time>2015-06-01T12:08:17Z</time>
      </trkpt>
      <trkpt lat="45.11422" lon="5.74617">
        <ele>394</ele>
        <time>2015-06-01T12:08:20Z</time>
      </trkpt>
      <trkpt lat="45.11421" lon="5.74626">
        <ele>394</ele>
        <time>2015-06-01T12:08:22Z</time>
      </trkpt>
      <trkpt lat="45.11417" lon="5.74633">
        <ele>394</ele>
        <time>2015-06-01T12:08:32Z</time>
      </trkpt>
      <trkpt lat="45.11417" lon="5.74632">
        <ele>394</ele>
        <time>2015-06-01T12:10:13Z</time>
      </trkpt>
      <trkpt lat="45.11411" lon="5.74631">
        <ele>394</ele>
        <time>2015-06-01T12:10:17Z</time>
      </trkpt>
      <trkpt lat="45.11355" lon="5.74596">
        <ele>395</ele>
        <time>2015-06-01T12:10:33Z</time>
      </trkpt>
      <trkpt lat="45.11328" lon="5.74582">
        <ele>397</ele>
        <time>2015-06-01T12:10:40Z</time>
      </trkpt>
      <trkpt lat="45.11307" lon="5.74569">
        <ele>397</ele>
        <time>2015-06-01T12:10:45Z</time>
      </trkpt>
      <trkpt lat="45.11265" lon="5.7454">
        <ele>396</ele>
        <time>2015-06-01T12:10:56Z</time>
      </trkpt>
      <trkpt lat="45.11222" lon="5.74514">
        <ele>394</ele>
        <time>2015-06-01T12:11:06Z</time>
      </trkpt>
      <trkpt lat="45.11206" lon="5.74505">
        <ele>394</ele>
        <time>2015-06-01T12:11:10Z</time>
      </trkpt>
      <trkpt lat="45.11135" lon="5.74491">
        <ele>393</ele>
        <time>2015-06-01T12:11:22Z</time>
      </trkpt>
      <trkpt lat="45.11047" lon="5.74458">
        <ele>390</ele>
        <time>2015-06-01T12:11:38Z</time>
      </trkpt>
      <trkpt lat="45.10968" lon="5.74418">
        <ele>389</ele>
        <time>2015-06-01T12:11:53Z</time>
      </trkpt>
      <trkpt lat="45.10925" lon="5.74404">
        <ele>392</ele>
        <time>2015-06-01T12:12:01Z</time>
      </trkpt>
      <trkpt lat="45.10919" lon="5.7441">
        <ele>391</ele>
        <time>2015-06-01T12:12:05Z</time>
      </trkpt>
      <trkpt lat="45.10922" lon="5.7449">
        <ele>386</ele>
        <time>2015-06-01T12:12:19Z</time>
      </trkpt>
      <trkpt lat="45.10924" lon="5.74542">
        <ele>386</ele>
        <time>2015-06-01T12:12:26Z</time>
      </trkpt>
      <trkpt lat="45.10936" lon="5.74594">
        <ele>386</ele>
        <time>2015-06-01T12:12:33Z</time>
      </trkpt>
      <trkpt lat="45.10947" lon="5.74617">
        <ele>387</ele>
        <time>2015-06-01T12:12:37Z</time>
      </trkpt>
      <trkpt lat="45.11013" lon="5.74695">
        <ele>385</ele>
        <time>2015-06-01T12:12:52Z</time>
      </trkpt>
      <trkpt lat="45.11034" lon="5.74727">
        <ele>383</ele>
        <time>2015-06-01T12:12:57Z</time>
      </trkpt>
      <trkpt lat="45.11065" lon="5.74814">
        <ele>377</ele>
        <time>2015-06-01T12:13:07Z</time>
      </trkpt>
      <trkpt lat="45.11067" lon="5.74824">
        <ele>377</ele>
        <time>2015-06-01T12:13:08Z</time>
      </trkpt>
      <trkpt lat="45.11068" lon="5.74868">
        <ele>373</ele>
        <time>2015-06-01T12:13:13Z</time>
      </trkpt>
      <trkpt lat="45.11039" lon="5.74924">
        <ele>367</ele>
        <time>2015-06-01T12:13:20Z</time>
      </trkpt>
      <trkpt lat="45.11018" lon="5.74957">
        <ele>366</ele>
        <time>2015-06-01T12:13:24Z</time>
      </trkpt>
      <trkpt lat="45.11012" lon="5.74965">
        <ele>365</ele>
        <time>2015-06-01T12:13:25Z</time>
      </trkpt>
      <trkpt lat="45.10983" lon="5.75003">
        <ele>359</ele>
        <time>2015-06-01T12:13:30Z</time>
      </trkpt>
      <trkpt lat="45.1096" lon="5.75031">
        <ele>357</ele>
        <time>2015-06-01T12:13:34Z</time>
      </trkpt>
      <trkpt lat="45.10941" lon="5.75052">
        <ele>356</ele>
        <time>2015-06-01T12:13:37Z</time>
      </trkpt>
      <trkpt lat="45.10906" lon="5.75105">
        <ele>351</ele>
        <time>2015-06-01T12:13:44Z</time>
      </trkpt>
      <trkpt lat="45.10879" lon="5.75144">
        <ele>349</ele>
        <time>2015-06-01T12:13:55Z</time>
      </trkpt>
      <trkpt lat="45.10881" lon="5.75155">
        <ele>349</ele>
        <time>2015-06-01T12:14:00Z</time>
      </trkpt>
      <trkpt lat="45.1092" lon="5.75171">
        <ele>351</ele>
        <time>2015-06-01T12:14:12Z</time>
      </trkpt>
      <trkpt lat="45.10974" lon="5.75225">
        <ele>353</ele>
        <time>2015-06-01T12:14:29Z</time>
      </trkpt>
      <trkpt lat="45.11014" lon="5.75296">
        <ele>357</ele>
        <time>2015-06-01T12:14:47Z</time>
      </trkpt>
      <trkpt lat="45.11039" lon="5.75347">
        <ele>361</ele>
        <time>2015-06-01T12:15:00Z</time>
      </trkpt>
      <trkpt lat="45.11096" lon="5.75381">
        <ele>365</ele>
        <time>2015-06-01T12:15:19Z</time>
      </trkpt>
      <trkpt lat="45.11151" lon="5.75413">
        <ele>366</ele>
        <time>2015-06-01T12:15:37Z</time>
      </trkpt>
      <trkpt lat="45.11186" lon="5.75435">
        <ele>372</ele>
        <time>2015-06-01T12:15:51Z</time>
      </trkpt>
      <trkpt lat="45.11214" lon="5.75452">
        <ele>374</ele>
        <time>2015-06-01T12:16:02Z</time>
      </trkpt>
      <trkpt lat="45.11238" lon="5.75467">
        <ele>376</ele>
        <time>2015-06-01T12:16:12Z</time>
      </trkpt>
      <trkpt lat="45.11259" lon="5.75483">
        <ele>380</ele>
        <time>2015-06-01T12:16:21Z</time>
      </trkpt>
      <trkpt lat="45.11287" lon="5.755">
        <ele>385</ele>
        <time>2015-06-01T12:16:33Z</time>
      </trkpt>
      <trkpt lat="45.11327" lon="5.75524">
        <ele>386</ele>
        <time>2015-06-01T12:16:50Z</time>
      </trkpt>
      <trkpt lat="45.11353" lon="5.75556">
        <ele>390</ele>
        <time>2015-06-01T12:17:05Z</time>
      </trkpt>
      <trkpt lat="45.11358" lon="5.75588">
        <ele>393</ele>
        <time>2015-06-01T12:17:16Z</time>
      </trkpt>
      <trkpt lat="45.11364" lon="5.75615">
        <ele>394</ele>
        <time>2015-06-01T12:17:26Z</time>
      </trkpt>
      <trkpt lat="45.11399" lon="5.75657">
        <ele>395</ele>
        <time>2015-06-01T12:17:43Z</time>
      </trkpt>
      <trkpt lat="45.11413" lon="5.75681">
        <ele>396</ele>
        <time>2015-06-01T12:17:48Z</time>
      </trkpt>
      <trkpt lat="45.1148" lon="5.75725">
        <ele>396</ele>
        <time>2015-06-01T12:18:02Z</time>
      </trkpt>
      <trkpt lat="45.11576" lon="5.75784">
        <ele>395</ele>
        <time>2015-06-01T12:18:20Z</time>
      </trkpt>
      <trkpt lat="45.11593" lon="5.75802">
        <ele>394</ele>
        <time>2015-06-01T12:18:24Z</time>
      </trkpt>
      <trkpt lat="45.11601" lon="5.75828">
        <ele>394</ele>
        <time>2015-06-01T12:18:28Z</time>
      </trkpt>
      <trkpt lat="45.11601" lon="5.75894">
        <ele>394</ele>
        <time>2015-06-01T12:18:37Z</time>
      </trkpt>
      <trkpt lat="45.11596" lon="5.75919">
        <ele>394</ele>
        <time>2015-06-01T12:18:41Z</time>
      </trkpt>
      <trkpt lat="45.11588" lon="5.75945">
        <ele>394</ele>
        <time>2015-06-01T12:18:45Z</time>
      </trkpt>
      <trkpt lat="45.11604" lon="5.75993">
        <ele>395</ele>
        <time>2015-06-01T12:18:54Z</time>
      </trkpt>
      <trkpt lat="45.11614" lon="5.75995">
        <ele>395</ele>
        <time>2015-06-01T12:18:56Z</time>
      </trkpt>
      <trkpt lat="45.11658" lon="5.7599">
        <ele>394</ele>
        <time>2015-06-01T12:19:03Z</time>
      </trkpt>
      <trkpt lat="45.11682" lon="5.75993">
        <ele>393</ele>
        <time>2015-06-01T12:19:07Z</time>
      </trkpt>
      <trkpt lat="45.11729" lon="5.76012">
        <ele>393</ele>
        <time>2015-06-01T12:19:15Z</time>
      </trkpt>
      <trkpt lat="45.11776" lon="5.76022">
        <ele>393</ele>
        <time>2015-06-01T12:19:23Z</time>
      </trkpt>
      <trkpt lat="45.11863" lon="5.76019">
        <ele>393</ele>
        <time>2015-06-01T12:19:38Z</time>
      </trkpt>
      <trkpt lat="45.11968" lon="5.75986">
        <ele>389</ele>
        <time>2015-06-01T12:19:55Z</time>
      </trkpt>
      <trkpt lat="45.12081" lon="5.7596">
        <ele>389</ele>
        <time>2015-06-01T12:20:12Z</time>
      </trkpt>
      <trkpt lat="45.12124" lon="5.75965">
        <ele>387</ele>
        <time>2015-06-01T12:20:18Z</time>
      </trkpt>
      <trkpt lat="45.12145" lon="5.75971">
        <ele>387</ele>
        <time>2015-06-01T12:20:21Z</time>
      </trkpt>
      <trkpt lat="45.12173" lon="5.7597">
        <ele>385</ele>
        <time>2015-06-01T12:20:25Z</time>
      </trkpt>
      <trkpt lat="45.12191" lon="5.75965">
        <ele>384</ele>
        <time>2015-06-01T12:20:28Z</time>
      </trkpt>
      <trkpt lat="45.12219" lon="5.75963">
        <ele>384</ele>
        <time>2015-06-01T12:20:32Z</time>
      </trkpt>
      <trkpt lat="45.12252" lon="5.75974">
        <ele>384</ele>
        <time>2015-06-01T12:20:36Z</time>
      </trkpt>
      <trkpt lat="45.1227" lon="5.75976">
        <ele>384</ele>
        <time>2015-06-01T12:20:38Z</time>
      </trkpt>
      <trkpt lat="45.12304" lon="5.75981">
        <ele>383</ele>
        <time>2015-06-01T12:20:42Z</time>
      </trkpt>
      <trkpt lat="45.12334" lon="5.75977">
        <ele>383</ele>
        <time>2015-06-01T12:20:46Z</time>
      </trkpt>
      <trkpt lat="45.12412" lon="5.75993">
        <ele>382</ele>
        <time>2015-06-01T12:20:58Z</time>
      </trkpt>
      <trkpt lat="45.12523" lon="5.76058">
        <ele>381</ele>
        <time>2015-06-01T12:21:14Z</time>
      </trkpt>
      <trkpt lat="45.12594" lon="5.76091">
        <ele>378</ele>
        <time>2015-06-01T12:21:24Z</time>
      </trkpt>
      <trkpt lat="45.12619" lon="5.76104">
        <ele>376</ele>
        <time>2015-06-01T12:21:28Z</time>
      </trkpt>
      <trkpt lat="45.12702" lon="5.76177">
        <ele>371</ele>
        <time>2015-06-01T12:21:38Z</time>
      </trkpt>
      <trkpt lat="45.12742" lon="5.76213">
        <ele>371</ele>
        <time>2015-06-01T12:21:43Z</time>
      </trkpt>
      <trkpt lat="45.12829" lon="5.76312">
        <ele>371</ele>
        <time>2015-06-01T12:21:58Z</time>
      </trkpt>
      <trkpt lat="45.12914" lon="5.76405">
        <ele>370</ele>
        <time>2015-06-01T12:22:15Z</time>
      </trkpt>
      <trkpt lat="45.13017" lon="5.76498">
        <ele>375</ele>
        <time>2015-06-01T12:22:36Z</time>
      </trkpt>
      <trkpt lat="45.13139" lon="5.76586">
        <ele>374</ele>
        <time>2015-06-01T12:22:59Z</time>
      </trkpt>
      <trkpt lat="45.13251" lon="5.76678">
        <ele>373</ele>
        <time>2015-06-01T12:23:23Z</time>
      </trkpt>
      <trkpt lat="45.13319" lon="5.76758">
        <ele>371</ele>
        <time>2015-06-01T12:23:37Z</time>
      </trkpt>
      <trkpt lat="45.13346" lon="5.7683">
        <ele>367</ele>
        <time>2015-06-01T12:23:44Z</time>
      </trkpt>
      <trkpt lat="45.1336" lon="5.7688">
        <ele>364</ele>
        <time>2015-06-01T12:23:48Z</time>
      </trkpt>
      <trkpt lat="45.13378" lon="5.76947">
        <ele>362</ele>
        <time>2015-06-01T12:23:53Z</time>
      </trkpt>
      <trkpt lat="45.13425" lon="5.77039">
        <ele>359</ele>
        <time>2015-06-01T12:24:02Z</time>
      </trkpt>
      <trkpt lat="45.13468" lon="5.77095">
        <ele>360</ele>
        <time>2015-06-01T12:24:10Z</time>
      </trkpt>
      <trkpt lat="45.13478" lon="5.77106">
        <ele>360</ele>
        <time>2015-06-01T12:24:12Z</time>
      </trkpt>
      <trkpt lat="45.13515" lon="5.7713">
        <ele>360</ele>
        <time>2015-06-01T12:24:19Z</time>
      </trkpt>
      <trkpt lat="45.13523" lon="5.7714">
        <ele>360</ele>
        <time>2015-06-01T12:24:21Z</time>
      </trkpt>
      <trkpt lat="45.1353" lon="5.77168">
        <ele>362</ele>
        <time>2015-06-01T12:24:26Z</time>
      </trkpt>
      <trkpt lat="45.13531" lon="5.77181">
        <ele>362</ele>
        <time>2015-06-01T12:24:28Z</time>
      </trkpt>
      <trkpt lat="45.1356" lon="5.77192">
        <ele>362</ele>
        <time>2015-06-01T12:24:36Z</time>
      </trkpt>
      <trkpt lat="45.13565" lon="5.77164">
        <ele>360</ele>
        <time>2015-06-01T12:24:40Z</time>
      </trkpt>
      <trkpt lat="45.13564" lon="5.77147">
        <ele>360</ele>
        <time>2015-06-01T12:24:42Z</time>
      </trkpt>
      <trkpt lat="45.13575" lon="5.77111">
        <ele>359</ele>
        <time>2015-06-01T12:24:47Z</time>
      </trkpt>
      <trkpt lat="45.13633" lon="5.7702">
        <ele>357</ele>
        <time>2015-06-01T12:25:02Z</time>
      </trkpt>
      <trkpt lat="45.13658" lon="5.76986">
        <ele>357</ele>
        <time>2015-06-01T12:25:12Z</time>
      </trkpt>
      <trkpt lat="45.13673" lon="5.76978">
        <ele>357</ele>
        <time>2015-06-01T12:25:16Z</time>
      </trkpt>
      <trkpt lat="45.1375" lon="5.76969">
        <ele>356</ele>
        <time>2015-06-01T12:25:32Z</time>
      </trkpt>
      <trkpt lat="45.13768" lon="5.76969">
        <ele>356</ele>
        <time>2015-06-01T12:25:42Z</time>
      </trkpt>
      <trkpt lat="45.13773" lon="5.76965">
        <ele>356</ele>
        <time>2015-06-01T12:25:46Z</time>
      </trkpt>
      <trkpt lat="45.13768" lon="5.76963">
        <ele>356</ele>
        <time>2015-06-01T12:25:48Z</time>
      </trkpt>
      <trkpt lat="45.1372" lon="5.76969">
        <ele>357</ele>
        <time>2015-06-01T12:25:59Z</time>
      </trkpt>
      <trkpt lat="45.13713" lon="5.76984">
        <ele>357</ele>
        <time>2015-06-01T12:26:03Z</time>
      </trkpt>
      <trkpt lat="45.13711" lon="5.76995">
        <ele>356</ele>
        <time>2015-06-01T12:26:05Z</time>
      </trkpt>
      <trkpt lat="45.137" lon="5.77031">
        <ele>356</ele>
        <time>2015-06-01T12:26:11Z</time>
      </trkpt>
      <trkpt lat="45.13706" lon="5.77051">
        <ele>356</ele>
        <time>2015-06-01T12:26:16Z</time>
      </trkpt>
      <trkpt lat="45.13729" lon="5.77046">
        <ele>356</ele>
        <time>2015-06-01T12:26:21Z</time>
      </trkpt>
      <trkpt lat="45.1375" lon="5.77049">
        <ele>356</ele>
        <time>2015-06-01T12:26:25Z</time>
      </trkpt>
      <trkpt lat="45.1376" lon="5.77055">
        <ele>355</ele>
        <time>2015-06-01T12:26:27Z</time>
      </trkpt>
      <trkpt lat="45.13776" lon="5.77068">
        <ele>355</ele>
        <time>2015-06-01T12:26:31Z</time>
      </trkpt>
      <trkpt lat="45.13795" lon="5.77076">
        <ele>354</ele>
        <time>2015-06-01T12:26:35Z</time>
      </trkpt>
      <trkpt lat="45.13832" lon="5.77068">
        <ele>353</ele>
        <time>2015-06-01T12:26:42Z</time>
      </trkpt>
      <trkpt lat="45.13934" lon="5.77093">
        <ele>355</ele>
        <time>2015-06-01T12:26:58Z</time>
      </trkpt>
      <trkpt lat="45.1396" lon="5.77096">
        <ele>357</ele>
        <time>2015-06-01T12:27:02Z</time>
      </trkpt>
      <trkpt lat="45.1402" lon="5.77076">
        <ele>352</ele>
        <time>2015-06-01T12:27:14Z</time>
      </trkpt>
      <trkpt lat="45.14051" lon="5.7706">
        <ele>352</ele>
        <time>2015-06-01T12:27:20Z</time>
      </trkpt>
      <trkpt lat="45.14083" lon="5.77062">
        <ele>353</ele>
        <time>2015-06-01T12:27:27Z</time>
      </trkpt>
      <trkpt lat="45.14123" lon="5.77048">
        <ele>353</ele>
        <time>2015-06-01T12:27:38Z</time>
      </trkpt>
      <trkpt lat="45.14159" lon="5.77029">
        <ele>353</ele>
        <time>2015-06-01T12:27:49Z</time>
      </trkpt>
      <trkpt lat="45.142" lon="5.77031">
        <ele>355</ele>
        <time>2015-06-01T12:28:02Z</time>
      </trkpt>
      <trkpt lat="45.1422" lon="5.7703">
        <ele>355</ele>
        <time>2015-06-01T12:28:09Z</time>
      </trkpt>
      <trkpt lat="45.14254" lon="5.7705">
        <ele>356</ele>
        <time>2015-06-01T12:28:20Z</time>
      </trkpt>
      <trkpt lat="45.14276" lon="5.77068">
        <ele>357</ele>
        <time>2015-06-01T12:28:27Z</time>
      </trkpt>
      <trkpt lat="45.14298" lon="5.77087">
        <ele>365</ele>
        <time>2015-06-01T12:28:33Z</time>
      </trkpt>
      <trkpt lat="45.14322" lon="5.77089">
        <ele>362</ele>
        <time>2015-06-01T12:28:38Z</time>
      </trkpt>
      <trkpt lat="45.14342" lon="5.77082">
        <ele>357</ele>
        <time>2015-06-01T12:28:42Z</time>
      </trkpt>
      <trkpt lat="45.14353" lon="5.77081">
        <ele>356</ele>
        <time>2015-06-01T12:28:44Z</time>
      </trkpt>
      <trkpt lat="45.1437" lon="5.77078">
        <ele>355</ele>
        <time>2015-06-01T12:28:47Z</time>
      </trkpt>
      <trkpt lat="45.14403" lon="5.77071">
        <ele>356</ele>
        <time>2015-06-01T12:28:52Z</time>
      </trkpt>
      <trkpt lat="45.14434" lon="5.77033">
        <ele>357</ele>
        <time>2015-06-01T12:29:01Z</time>
      </trkpt>
      <trkpt lat="45.14465" lon="5.77002">
        <ele>357</ele>
        <time>2015-06-01T12:29:10Z</time>
      </trkpt>
      <trkpt lat="45.1448" lon="5.76985">
        <ele>351</ele>
        <time>2015-06-01T12:29:14Z</time>
      </trkpt>
      <trkpt lat="45.14504" lon="5.76962">
        <ele>361</ele>
        <time>2015-06-01T12:29:20Z</time>
      </trkpt>
      <trkpt lat="45.14533" lon="5.76913">
        <ele>351</ele>
        <time>2015-06-01T12:29:28Z</time>
      </trkpt>
      <trkpt lat="45.14555" lon="5.76877">
        <ele>352</ele>
        <time>2015-06-01T12:29:34Z</time>
      </trkpt>
      <trkpt lat="45.14574" lon="5.76813">
        <ele>343</ele>
        <time>2015-06-01T12:29:44Z</time>
      </trkpt>
      <trkpt lat="45.14602" lon="5.76777">
        <ele>348</ele>
        <time>2015-06-01T12:29:51Z</time>
      </trkpt>
      <trkpt lat="45.14606" lon="5.7677">
        <ele>347</ele>
        <time>2015-06-01T12:29:52Z</time>
      </trkpt>
      <trkpt lat="45.14612" lon="5.76755">
        <ele>347</ele>
        <time>2015-06-01T12:29:54Z</time>
      </trkpt>
      <trkpt lat="45.14616" lon="5.76737">
        <ele>340</ele>
        <time>2015-06-01T12:29:56Z</time>
      </trkpt>
      <trkpt lat="45.14623" lon="5.76697">
        <ele>339</ele>
        <time>2015-06-01T12:30:00Z</time>
      </trkpt>
      <trkpt lat="45.14631" lon="5.76661">
        <ele>333</ele>
        <time>2015-06-01T12:30:03Z</time>
      </trkpt>
      <trkpt lat="45.1464" lon="5.7663">
        <ele>332</ele>
        <time>2015-06-01T12:30:06Z</time>
      </trkpt>
      <trkpt lat="45.14644" lon="5.76618">
        <ele>331</ele>
        <time>2015-06-01T12:30:07Z</time>
      </trkpt>
      <trkpt lat="45.14659" lon="5.76587">
        <ele>329</ele>
        <time>2015-06-01T12:30:11Z</time>
      </trkpt>
      <trkpt lat="45.14683" lon="5.7658">
        <ele>330</ele>
        <time>2015-06-01T12:30:15Z</time>
      </trkpt>
      <trkpt lat="45.14706" lon="5.76568">
        <ele>331</ele>
        <time>2015-06-01T12:30:19Z</time>
      </trkpt>
      <trkpt lat="45.1472" lon="5.76545">
        <ele>331</ele>
        <time>2015-06-01T12:30:22Z</time>
      </trkpt>
      <trkpt lat="45.14753" lon="5.76483">
        <ele>329</ele>
        <time>2015-06-01T12:30:29Z</time>
      </trkpt>
      <trkpt lat="45.14772" lon="5.76461">
        <ele>330</ele>
        <time>2015-06-01T12:30:34Z</time>
      </trkpt>
      <trkpt lat="45.14815" lon="5.76415">
        <ele>327</ele>
        <time>2015-06-01T12:30:46Z</time>
      </trkpt>
      <trkpt lat="45.1482" lon="5.76408">
        <ele>327</ele>
        <time>2015-06-01T12:30:48Z</time>
      </trkpt>
      <trkpt lat="45.1483" lon="5.76391">
        <ele>325</ele>
        <time>2015-06-01T12:30:51Z</time>
      </trkpt>
      <trkpt lat="45.14841" lon="5.76379">
        <ele>338</ele>
        <time>2015-06-01T12:30:54Z</time>
      </trkpt>
      <trkpt lat="45.14852" lon="5.76366">
        <ele>338</ele>
        <time>2015-06-01T12:30:57Z</time>
      </trkpt>
      <trkpt lat="45.14871" lon="5.76338">
        <ele>339</ele>
        <time>2015-06-01T12:31:02Z</time>
      </trkpt>
      <trkpt lat="45.14887" lon="5.76286">
        <ele>332</ele>
        <time>2015-06-01T12:31:12Z</time>
      </trkpt>
      <trkpt lat="45.14895" lon="5.76231">
        <ele>326</ele>
        <time>2015-06-01T12:31:25Z</time>
      </trkpt>
      <trkpt lat="45.14904" lon="5.7617">
        <ele>327</ele>
        <time>2015-06-01T12:31:41Z</time>
      </trkpt>
      <trkpt lat="45.14923" lon="5.7616">
        <ele>329</ele>
        <time>2015-06-01T12:31:53Z</time>
      </trkpt>
      <trkpt lat="45.14927" lon="5.76159">
        <ele>328</ele>
        <time>2015-06-01T12:31:54Z</time>
      </trkpt>
      <trkpt lat="45.14956" lon="5.76159">
        <ele>326</ele>
        <time>2015-06-01T12:32:00Z</time>
      </trkpt>
      <trkpt lat="45.14985" lon="5.76158">
        <ele>326</ele>
        <time>2015-06-01T12:32:05Z</time>
      </trkpt>
      <trkpt lat="45.1501" lon="5.76155">
        <ele>323</ele>
        <time>2015-06-01T12:32:10Z</time>
      </trkpt>
      <trkpt lat="45.15014" lon="5.76154">
        <ele>322</ele>
        <time>2015-06-01T12:32:11Z</time>
      </trkpt>
      <trkpt lat="45.15043" lon="5.76162">
        <ele>318</ele>
        <time>2015-06-01T12:32:16Z</time>
      </trkpt>
      <trkpt lat="45.15055" lon="5.76171">
        <ele>326</ele>
        <time>2015-06-01T12:32:18Z</time>
      </trkpt>
      <trkpt lat="45.15086" lon="5.76186">
        <ele>318</ele>
        <time>2015-06-01T12:32:22Z</time>
      </trkpt>
      <trkpt lat="45.15128" lon="5.76199">
        <ele>317</ele>
        <time>2015-06-01T12:32:27Z</time>
      </trkpt>
      <trkpt lat="45.15147" lon="5.76204">
        <ele>316</ele>
        <time>2015-06-01T12:32:30Z</time>
      </trkpt>
      <trkpt lat="45.15181" lon="5.76194">
        <ele>303</ele>
        <time>2015-06-01T12:32:36Z</time>
      </trkpt>
      <trkpt lat="45.15202" lon="5.76178">
        <ele>301</ele>
        <time>2015-06-01T12:32:39Z</time>
      </trkpt>
      <trkpt lat="45.15219" lon="5.76162">
        <ele>298</ele>
        <time>2015-06-01T12:32:42Z</time>
      </trkpt>
      <trkpt lat="45.15235" lon="5.76151">
        <ele>297</ele>
        <time>2015-06-01T12:32:45Z</time>
      </trkpt>
      <trkpt lat="45.15244" lon="5.76146">
        <ele>297</ele>
        <time>2015-06-01T12:32:47Z</time>
      </trkpt>
      <trkpt lat="45.1526" lon="5.76121">
        <ele>286</ele>
        <time>2015-06-01T12:32:52Z</time>
      </trkpt>
      <trkpt lat="45.15273" lon="5.76124">
        <ele>284</ele>
        <time>2015-06-01T12:32:56Z</time>
      </trkpt>
      <trkpt lat="45.1528" lon="5.76133">
        <ele>283</ele>
        <time>2015-06-01T12:32:58Z</time>
      </trkpt>
      <trkpt lat="45.15286" lon="5.76144">
        <ele>283</ele>
        <time>2015-06-01T12:33:00Z</time>
      </trkpt>
      <trkpt lat="45.15305" lon="5.76162">
        <ele>280</ele>
        <time>2015-06-01T12:33:04Z</time>
      </trkpt>
      <trkpt lat="45.15331" lon="5.76176">
        <ele>278</ele>
        <time>2015-06-01T12:33:08Z</time>
      </trkpt>
      <trkpt lat="45.15366" lon="5.7619">
        <ele>269</ele>
        <time>2015-06-01T12:33:12Z</time>
      </trkpt>
      <trkpt lat="45.15375" lon="5.76195">
        <ele>269</ele>
        <time>2015-06-01T12:33:13Z</time>
      </trkpt>
      <trkpt lat="45.15428" lon="5.7623">
        <ele>257</ele>
        <time>2015-06-01T12:33:20Z</time>
      </trkpt>
      <trkpt lat="45.15444" lon="5.76246">
        <ele>256</ele>
        <time>2015-06-01T12:33:23Z</time>
      </trkpt>
      <trkpt lat="45.1547" lon="5.76296">
        <ele>263</ele>
        <time>2015-06-01T12:33:29Z</time>
      </trkpt>
      <trkpt lat="45.15478" lon="5.76308">
        <ele>263</ele>
        <time>2015-06-01T12:33:30Z</time>
      </trkpt>
      <trkpt lat="45.15548" lon="5.76389">
        <ele>258</ele>
        <time>2015-06-01T12:33:40Z</time>
      </trkpt>
      <trkpt lat="45.15586" lon="5.76429">
        <ele>252</ele>
        <time>2015-06-01T12:33:47Z</time>
      </trkpt>
      <trkpt lat="45.15617" lon="5.76449">
        <ele>251</ele>
        <time>2015-06-01T12:33:52Z</time>
      </trkpt>
      <trkpt lat="45.15647" lon="5.76453">
        <ele>250</ele>
        <time>2015-06-01T12:33:56Z</time>
      </trkpt>
      <trkpt lat="45.1568" lon="5.76445">
        <ele>242</ele>
        <time>2015-06-01T12:34:01Z</time>
      </trkpt>
      <trkpt lat="45.15705" lon="5.7642">
        <ele>241</ele>
        <time>2015-06-01T12:34:06Z</time>
      </trkpt>
      <trkpt lat="45.15722" lon="5.76394">
        <ele>235</ele>
        <time>2015-06-01T12:34:10Z</time>
      </trkpt>
      <trkpt lat="45.15727" lon="5.76383">
        <ele>235</ele>
        <time>2015-06-01T12:34:12Z</time>
      </trkpt>
      <trkpt lat="45.15734" lon="5.7637">
        <ele>234</ele>
        <time>2015-06-01T12:34:15Z</time>
      </trkpt>
      <trkpt lat="45.15756" lon="5.7638">
        <ele>228</ele>
        <time>2015-06-01T12:34:20Z</time>
      </trkpt>
      <trkpt lat="45.15822" lon="5.765">
        <ele>228</ele>
        <time>2015-06-01T12:34:35Z</time>
      </trkpt>
      <trkpt lat="45.15914" lon="5.76578">
        <ele>224</ele>
        <time>2015-06-01T12:34:49Z</time>
      </trkpt>
      <trkpt lat="45.16028" lon="5.76642">
        <ele>222</ele>
        <time>2015-06-01T12:35:06Z</time>
      </trkpt>
      <trkpt lat="45.16075" lon="5.76674">
        <ele>225</ele>
        <time>2015-06-01T12:35:14Z</time>
      </trkpt>
      <trkpt lat="45.16144" lon="5.76728">
        <ele>228</ele>
        <time>2015-06-01T12:35:27Z</time>
      </trkpt>
      <trkpt lat="45.1621" lon="5.76769">
        <ele>234</ele>
        <time>2015-06-01T12:35:40Z</time>
      </trkpt>
      <trkpt lat="45.16249" lon="5.76801">
        <ele>236</ele>
        <time>2015-06-01T12:35:47Z</time>
      </trkpt>
      <trkpt lat="45.16327" lon="5.76816">
        <ele>231</ele>
        <time>2015-06-01T12:36:00Z</time>
      </trkpt>
      <trkpt lat="45.16378" lon="5.76814">
        <ele>230</ele>
        <time>2015-06-01T12:36:09Z</time>
      </trkpt>
      <trkpt lat="45.16395" lon="5.76807">
        <ele>230</ele>
        <time>2015-06-01T12:36:13Z</time>
      </trkpt>
      <trkpt lat="45.16418" lon="5.76806">
        <ele>230</ele>
        <time>2015-06-01T12:36:19Z</time>
      </trkpt>
      <trkpt lat="45.16466" lon="5.7683">
        <ele>230</ele>
        <time>2015-06-01T12:36:33Z</time>
      </trkpt>
      <trkpt lat="45.16531" lon="5.76846">
        <ele>232</ele>
        <time>2015-06-01T12:36:46Z</time>
      </trkpt>
      <trkpt lat="45.16618" lon="5.76857">
        <ele>230</ele>
        <time>2015-06-01T12:37:00Z</time>
      </trkpt>
      <trkpt lat="45.16684" lon="5.76865">
        <ele>230</ele>
        <time>2015-06-01T12:37:09Z</time>
      </trkpt>
      <trkpt lat="45.16766" lon="5.76858">
        <ele>227</ele>
        <time>2015-06-01T12:37:20Z</time>
      </trkpt>
      <trkpt lat="45.16822" lon="5.76821">
        <ele>220</ele>
        <time>2015-06-01T12:37:29Z</time>
      </trkpt>
      <trkpt lat="45.16835" lon="5.76826">
        <ele>220</ele>
        <time>2015-06-01T12:37:31Z</time>
      </trkpt>
      <trkpt lat="45.16957" lon="5.76861">
        <ele>224</ele>
        <time>2015-06-01T12:37:48Z</time>
      </trkpt>
      <trkpt lat="45.17126" lon="5.76869">
        <ele>226</ele>
        <time>2015-06-01T12:38:11Z</time>
      </trkpt>
      <trkpt lat="45.17235" lon="5.76891">
        <ele>222</ele>
        <time>2015-06-01T12:38:26Z</time>
      </trkpt>
      <trkpt lat="45.17242" lon="5.76893">
        <ele>221</ele>
        <time>2015-06-01T12:38:27Z</time>
      </trkpt>
      <trkpt lat="45.17308" lon="5.76942">
        <ele>222</ele>
        <time>2015-06-01T12:38:37Z</time>
      </trkpt>
      <trkpt lat="45.17323" lon="5.76965">
        <ele>223</ele>
        <time>2015-06-01T12:38:40Z</time>
      </trkpt>
      <trkpt lat="45.17417" lon="5.77083">
        <ele>220</ele>
        <time>2015-06-01T12:38:56Z</time>
      </trkpt>
      <trkpt lat="45.17474" lon="5.77148">
        <ele>219</ele>
        <time>2015-06-01T12:39:06Z</time>
      </trkpt>
      <trkpt lat="45.17495" lon="5.77189">
        <ele>225</ele>
        <time>2015-06-01T12:39:11Z</time>
      </trkpt>
      <trkpt lat="45.17503" lon="5.77211">
        <ele>222</ele>
        <time>2015-06-01T12:39:14Z</time>
      </trkpt>
      <trkpt lat="45.17572" lon="5.77297">
        <ele>228</ele>
        <time>2015-06-01T12:39:27Z</time>
      </trkpt>
      <trkpt lat="45.17631" lon="5.77396">
        <ele>225</ele>
        <time>2015-06-01T12:39:40Z</time>
      </trkpt>
      <trkpt lat="45.17656" lon="5.77465">
        <ele>225</ele>
        <time>2015-06-01T12:39:48Z</time>
      </trkpt>
      <trkpt lat="45.17661" lon="5.77511">
        <ele>225</ele>
        <time>2015-06-01T12:39:53Z</time>
      </trkpt>
      <trkpt lat="45.17669" lon="5.77537">
        <ele>219</ele>
        <time>2015-06-01T12:39:56Z</time>
      </trkpt>
      <trkpt lat="45.17755" lon="5.7771">
        <ele>216</ele>
        <time>2015-06-01T12:40:17Z</time>
      </trkpt>
      <trkpt lat="45.17768" lon="5.77735">
        <ele>217</ele>
        <time>2015-06-01T12:40:21Z</time>
      </trkpt>
      <trkpt lat="45.17776" lon="5.77764">
        <ele>219</ele>
        <time>2015-06-01T12:40:25Z</time>
      </trkpt>
      <trkpt lat="45.1783" lon="5.77929">
        <ele>218</ele>
        <time>2015-06-01T12:40:45Z</time>
      </trkpt>
      <trkpt lat="45.17909" lon="5.78142">
        <ele>216</ele>
        <time>2015-06-01T12:41:11Z</time>
      </trkpt>
      <trkpt lat="45.17981" lon="5.78333">
        <ele>218</ele>
        <time>2015-06-01T12:41:34Z</time>
      </trkpt>
      <trkpt lat="45.18022" lon="5.78443">
        <ele>220</ele>
        <time>2015-06-01T12:41:50Z</time>
      </trkpt>
      <trkpt lat="45.18064" lon="5.7856">
        <ele>223</ele>
        <time>2015-06-01T12:42:10Z</time>
      </trkpt>
      <trkpt lat="45.18092" lon="5.7863">
        <ele>224</ele>
        <time>2015-06-01T12:42:22Z</time>
      </trkpt>
      <trkpt lat="45.18118" lon="5.78676">
        <ele>225</ele>
        <time>2015-06-01T12:42:31Z</time>
      </trkpt>
      <trkpt lat="45.18125" lon="5.78686">
        <ele>225</ele>
        <time>2015-06-01T12:42:33Z</time>
      </trkpt>
      <trkpt lat="45.18137" lon="5.78716">
        <ele>226</ele>
        <time>2015-06-01T12:42:38Z</time>
      </trkpt>
      <trkpt lat="45.18137" lon="5.78731">
        <ele>226</ele>
        <time>2015-06-01T12:42:40Z</time>
      </trkpt>
      <trkpt lat="45.18141" lon="5.78745">
        <ele>226</ele>
        <time>2015-06-01T12:42:42Z</time>
      </trkpt>
      <trkpt lat="45.18147" lon="5.78794">
        <ele>227</ele>
        <time>2015-06-01T12:42:53Z</time>
      </trkpt>
      <trkpt lat="45.18147" lon="5.78793">
        <ele>227</ele>
        <time>2015-06-01T12:42:55Z</time>
      </trkpt>
      <trkpt lat="45.18158" lon="5.78807">
        <ele>227</ele>
        <time>2015-06-01T12:43:02Z</time>
      </trkpt>
      <trkpt lat="45.18219" lon="5.78815">
        <ele>226</ele>
        <time>2015-06-01T12:43:13Z</time>
      </trkpt>
      <trkpt lat="45.18257" lon="5.78821">
        <ele>224</ele>
        <time>2015-06-01T12:43:19Z</time>
      </trkpt>
      <trkpt lat="45.18279" lon="5.78835">
        <ele>225</ele>
        <time>2015-06-01T12:43:23Z</time>
      </trkpt>
      <trkpt lat="45.18306" lon="5.78846">
        <ele>225</ele>
        <time>2015-06-01T12:43:28Z</time>
      </trkpt>
      <trkpt lat="45.18333" lon="5.78834">
        <ele>224</ele>
        <time>2015-06-01T12:43:33Z</time>
      </trkpt>
      <trkpt lat="45.18409" lon="5.78775">
        <ele>223</ele>
        <time>2015-06-01T12:43:48Z</time>
      </trkpt>
      <trkpt lat="45.18425" lon="5.78758">
        <ele>222</ele>
        <time>2015-06-01T12:43:52Z</time>
      </trkpt>
      <trkpt lat="45.18457" lon="5.78705">
        <ele>219</ele>
        <time>2015-06-01T12:44:00Z</time>
      </trkpt>
      <trkpt lat="45.18497" lon="5.78589">
        <ele>216</ele>
        <time>2015-06-01T12:44:15Z</time>
      </trkpt>
      <trkpt lat="45.18498" lon="5.78549">
        <ele>216</ele>
        <time>2015-06-01T12:44:20Z</time>
      </trkpt>
      <trkpt lat="45.18487" lon="5.78517">
        <ele>216</ele>
        <time>2015-06-01T12:44:24Z</time>
      </trkpt>
      <trkpt lat="45.18473" lon="5.78489">
        <ele>216</ele>
        <time>2015-06-01T12:44:28Z</time>
      </trkpt>
      <trkpt lat="45.1845" lon="5.78408">
        <ele>217</ele>
        <time>2015-06-01T12:44:38Z</time>
      </trkpt>
      <trkpt lat="45.18448" lon="5.78399">
        <ele>217</ele>
        <time>2015-06-01T12:44:39Z</time>
      </trkpt>
      <trkpt lat="45.18453" lon="5.78367">
        <ele>217</ele>
        <time>2015-06-01T12:44:43Z</time>
      </trkpt>
      <trkpt lat="45.18458" lon="5.78367">
        <ele>217</ele>
        <time>2015-06-01T12:44:44Z</time>
      </trkpt>
      <trkpt lat="45.18466" lon="5.78368">
        <ele>217</ele>
        <time>2015-06-01T12:44:47Z</time>
      </trkpt>
      <trkpt lat="45.18477" lon="5.78381">
        <ele>217</ele>
        <time>2015-06-01T12:44:52Z</time>
      </trkpt>
      <trkpt lat="45.18531" lon="5.78465">
        <ele>216</ele>
        <time>2015-06-01T12:45:04Z</time>
      </trkpt>
      <trkpt lat="45.18558" lon="5.78507">
        <ele>216</ele>
        <time>2015-06-01T12:45:16Z</time>
      </trkpt>
      <trkpt lat="45.18578" lon="5.78479">
        <ele>216</ele>
        <time>2015-06-01T12:45:25Z</time>
      </trkpt>
      <trkpt lat="45.18631" lon="5.78399">
        <ele>215</ele>
        <time>2015-06-01T12:45:42Z</time>
      </trkpt>
      <trkpt lat="45.18634" lon="5.78393">
        <ele>215</ele>
        <time>2015-06-01T12:45:43Z</time>
      </trkpt>
      <trkpt lat="45.18682" lon="5.7835">
        <ele>214</ele>
        <time>2015-06-01T12:45:53Z</time>
      </trkpt>
      <trkpt lat="45.18693" lon="5.78337">
        <ele>215</ele>
        <time>2015-06-01T12:45:56Z</time>
      </trkpt>
      <trkpt lat="45.18709" lon="5.78325">
        <ele>214</ele>
        <time>2015-06-01T12:46:00Z</time>
      </trkpt>
      <trkpt lat="45.18745" lon="5.78291">
        <ele>214</ele>
        <time>2015-06-01T12:46:12Z</time>
      </trkpt>
      <trkpt lat="45.1875" lon="5.78285">
        <ele>214</ele>
        <time>2015-06-01T12:46:16Z</time>
      </trkpt>
      <trkpt lat="45.18747" lon="5.78262">
        <ele>214</ele>
        <time>2015-06-01T12:46:21Z</time>
      </trkpt>
      <trkpt lat="45.18742" lon="5.78232">
        <ele>215</ele>
        <time>2015-06-01T12:46:25Z</time>
      </trkpt>
      <trkpt lat="45.18743" lon="5.78197">
        <ele>216</ele>
        <time>2015-06-01T12:46:29Z</time>
      </trkpt>
      <trkpt lat="45.18746" lon="5.78172">
        <ele>216</ele>
        <time>2015-06-01T12:46:32Z</time>
      </trkpt>
      <trkpt lat="45.18756" lon="5.78059">
        <ele>215</ele>
        <time>2015-06-01T12:46:44Z</time>
      </trkpt>
      <trkpt lat="45.1877" lon="5.78019">
        <ele>214</ele>
        <time>2015-06-01T12:46:49Z</time>
      </trkpt>
      <trkpt lat="45.18771" lon="5.77975">
        <ele>214</ele>
        <time>2015-06-01T12:46:54Z</time>
      </trkpt>
      <trkpt lat="45.18789" lon="5.77926">
        <ele>214</ele>
        <time>2015-06-01T12:47:00Z</time>
      </trkpt>
      <trkpt lat="45.18851" lon="5.77853">
        <ele>216</ele>
        <time>2015-06-01T12:47:12Z</time>
      </trkpt>
      <trkpt lat="45.18877" lon="5.77847">
        <ele>216</ele>
        <time>2015-06-01T12:47:16Z</time>
      </trkpt>
      <trkpt lat="45.18911" lon="5.77826">
        <ele>216</ele>
        <time>2015-06-01T12:47:22Z</time>
      </trkpt>
      <trkpt lat="45.18944" lon="5.77818">
        <ele>215</ele>
        <time>2015-06-01T12:47:27Z</time>
      </trkpt>
      <trkpt lat="45.19098" lon="5.77843">
        <ele>215</ele>
        <time>2015-06-01T12:47:49Z</time>
      </trkpt>
      <trkpt lat="45.19164" lon="5.77817">
        <ele>215</ele>
        <time>2015-06-01T12:47:59Z</time>
      </trkpt>
      <trkpt lat="45.19188" lon="5.77785">
        <ele>216</ele>
        <time>2015-06-01T12:48:04Z</time>
      </trkpt>
      <trkpt lat="45.19202" lon="5.7775">
        <ele>216</ele>
        <time>2015-06-01T12:48:08Z</time>
      </trkpt>
      <trkpt lat="45.19211" lon="5.77701">
        <ele>216</ele>
        <time>2015-06-01T12:48:13Z</time>
      </trkpt>
      <trkpt lat="45.19211" lon="5.77619">
        <ele>217</ele>
        <time>2015-06-01T12:48:21Z</time>
      </trkpt>
      <trkpt lat="45.19237" lon="5.77585">
        <ele>217</ele>
        <time>2015-06-01T12:48:27Z</time>
      </trkpt>
      <trkpt lat="45.19244" lon="5.77584">
        <ele>217</ele>
        <time>2015-06-01T12:48:28Z</time>
      </trkpt>
      <trkpt lat="45.19265" lon="5.77582">
        <ele>217</ele>
        <time>2015-06-01T12:48:31Z</time>
      </trkpt>
      <trkpt lat="45.19333" lon="5.77578">
        <ele>218</ele>
        <time>2015-06-01T12:48:40Z</time>
      </trkpt>
      <trkpt lat="45.19424" lon="5.77561">
        <ele>220</ele>
        <time>2015-06-01T12:48:53Z</time>
      </trkpt>
      <trkpt lat="45.19437" lon="5.77559">
        <ele>220</ele>
        <time>2015-06-01T12:48:55Z</time>
      </trkpt>
      <trkpt lat="45.19458" lon="5.77523">
        <ele>219</ele>
        <time>2015-06-01T12:49:01Z</time>
      </trkpt>
      <trkpt lat="45.19477" lon="5.77486">
        <ele>218</ele>
        <time>2015-06-01T12:49:07Z</time>
      </trkpt>
      <trkpt lat="45.19489" lon="5.77485">
        <ele>218</ele>
        <time>2015-06-01T12:49:09Z</time>
      </trkpt>
      <trkpt lat="45.19599" lon="5.77473">
        <ele>220</ele>
        <time>2015-06-01T12:49:25Z</time>
      </trkpt>
      <trkpt lat="45.19667" lon="5.77464">
        <ele>220</ele>
        <time>2015-06-01T12:49:34Z</time>
      </trkpt>
      <trkpt lat="45.19768" lon="5.77452">
        <ele>218</ele>
        <time>2015-06-01T12:49:48Z</time>
      </trkpt>
      <trkpt lat="45.19789" lon="5.77447">
        <ele>218</ele>
        <time>2015-06-01T12:49:51Z</time>
      </trkpt>
      <trkpt lat="45.19807" lon="5.7742">
        <ele>218</ele>
        <time>2015-06-01T12:49:56Z</time>
      </trkpt>
      <trkpt lat="45.198" lon="5.77365">
        <ele>220</ele>
        <time>2015-06-01T12:50:02Z</time>
      </trkpt>
      <trkpt lat="45.1978" lon="5.77293">
        <ele>221</ele>
        <time>2015-06-01T12:50:10Z</time>
      </trkpt>
      <trkpt lat="45.19774" lon="5.77277">
        <ele>220</ele>
        <time>2015-06-01T12:50:12Z</time>
      </trkpt>
      <trkpt lat="45.19734" lon="5.77191">
        <ele>219</ele>
        <time>2015-06-01T12:50:22Z</time>
      </trkpt>
      <trkpt lat="45.19737" lon="5.77171">
        <ele>218</ele>
        <time>2015-06-01T12:50:27Z</time>
      </trkpt>
      <trkpt lat="45.19743" lon="5.77124">
        <ele>217</ele>
        <time>2015-06-01T12:50:38Z</time>
      </trkpt>
      <trkpt lat="45.19745" lon="5.77118">
        <ele>217</ele>
        <time>2015-06-01T12:50:41Z</time>
      </trkpt>
      <trkpt lat="45.19767" lon="5.77107">
        <ele>217</ele>
        <time>2015-06-01T12:50:54Z</time>
      </trkpt>
      <trkpt lat="45.19783" lon="5.77091">
        <ele>218</ele>
        <time>2015-06-01T12:50:58Z</time>
      </trkpt>
      <trkpt lat="45.19787" lon="5.77064">
        <ele>217</ele>
        <time>2015-06-01T12:51:05Z</time>
      </trkpt>
      <trkpt lat="45.19803" lon="5.77049">
        <ele>217</ele>
        <time>2015-06-01T12:51:12Z</time>
      </trkpt>
      <trkpt lat="45.19809" lon="5.77052">
        <ele>217</ele>
        <time>2015-06-01T12:51:14Z</time>
      </trkpt>
      <trkpt lat="45.19825" lon="5.77042">
        <ele>217</ele>
        <time>2015-06-01T12:51:20Z</time>
      </trkpt>
      <trkpt lat="45.19866" lon="5.76974">
        <ele>216</ele>
        <time>2015-06-01T12:51:36Z</time>
      </trkpt>
      <trkpt lat="45.19886" lon="5.76939">
        <ele>216</ele>
        <time>2015-06-01T12:51:43Z</time>
      </trkpt>
      <trkpt lat="45.19897" lon="5.76927">
        <ele>216</ele>
        <time>2015-06-01T12:51:47Z</time>
      </trkpt>
      <trkpt lat="45.19901" lon="5.76928">
        <ele>216</ele>
        <time>2015-06-01T12:51:50Z</time>
      </trkpt>
      <trkpt lat="45.19919" lon="5.76962">
        <ele>216</ele>
        <time>2015-06-01T12:52:00Z</time>
      </trkpt>
      <trkpt lat="45.19929" lon="5.76982">
        <ele>215</ele>
        <time>2015-06-01T12:52:03Z</time>
      </trkpt>
      <trkpt lat="45.19947" lon="5.77007">
        <ele>216</ele>
        <time>2015-06-01T12:52:07Z</time>
      </trkpt>
      <trkpt lat="45.19963" lon="5.77021">
        <ele>216</ele>
        <time>2015-06-01T12:52:10Z</time>
      </trkpt>
      <trkpt lat="45.20002" lon="5.77049">
        <ele>216</ele>
        <time>2015-06-01T12:52:17Z</time>
      </trkpt>
      <trkpt lat="45.20033" lon="5.77082">
        <ele>216</ele>
        <time>2015-06-01T12:52:23Z</time>
      </trkpt>
      <trkpt lat="45.20075" lon="5.77138">
        <ele>215</ele>
        <time>2015-06-01T12:52:32Z</time>
      </trkpt>
      <trkpt lat="45.20107" lon="5.77206">
        <ele>213</ele>
        <time>2015-06-01T12:52:41Z</time>
      </trkpt>
      <trkpt lat="45.20155" lon="5.77329">
        <ele>212</ele>
        <time>2015-06-01T12:52:56Z</time>
      </trkpt>
      <trkpt lat="45.20168" lon="5.77476">
        <ele>213</ele>
        <time>2015-06-01T12:53:12Z</time>
      </trkpt>
      <trkpt lat="45.20161" lon="5.77569">
        <ele>213</ele>
        <time>2015-06-01T12:53:22Z</time>
      </trkpt>
      <trkpt lat="45.20157" lon="5.77605">
        <ele>213</ele>
        <time>2015-06-01T12:53:26Z</time>
      </trkpt>
      <trkpt lat="45.2015" lon="5.77678">
        <ele>213</ele>
        <time>2015-06-01T12:53:35Z</time>
      </trkpt>
      <trkpt lat="45.20146" lon="5.77796">
        <ele>214</ele>
        <time>2015-06-01T12:53:46Z</time>
      </trkpt>
      <trkpt lat="45.20134" lon="5.77882">
        <ele>214</ele>
        <time>2015-06-01T12:53:56Z</time>
      </trkpt>
      <trkpt lat="45.2012" lon="5.77915">
        <ele>215</ele>
        <time>2015-06-01T12:53:59Z</time>
      </trkpt>
      <trkpt lat="45.20088" lon="5.77985">
        <ele>217</ele>
        <time>2015-06-01T12:54:07Z</time>
      </trkpt>
      <trkpt lat="45.20085" lon="5.78032">
        <ele>216</ele>
        <time>2015-06-01T12:54:12Z</time>
      </trkpt>
      <trkpt lat="45.20106" lon="5.78094">
        <ele>214</ele>
        <time>2015-06-01T12:54:19Z</time>
      </trkpt>
      <trkpt lat="45.20127" lon="5.78118">
        <ele>213</ele>
        <time>2015-06-01T12:54:23Z</time>
      </trkpt>
      <trkpt lat="45.20242" lon="5.78177">
        <ele>211</ele>
        <time>2015-06-01T12:54:42Z</time>
      </trkpt>
      <trkpt lat="45.20264" lon="5.78173">
        <ele>211</ele>
        <time>2015-06-01T12:54:46Z</time>
      </trkpt>
      <trkpt lat="45.20299" lon="5.78195">
        <ele>213</ele>
        <time>2015-06-01T12:54:54Z</time>
      </trkpt>
      <trkpt lat="45.20299" lon="5.78211">
        <ele>213</ele>
        <time>2015-06-01T12:54:56Z</time>
      </trkpt>
      <trkpt lat="45.20295" lon="5.78235">
        <ele>214</ele>
        <time>2015-06-01T12:54:59Z</time>
      </trkpt>
      <trkpt lat="45.20279" lon="5.78292">
        <ele>214</ele>
        <time>2015-06-01T12:55:07Z</time>
      </trkpt>
      <trkpt lat="45.20292" lon="5.78307">
        <ele>214</ele>
        <time>2015-06-01T12:55:11Z</time>
      </trkpt>
      <trkpt lat="45.203" lon="5.78309">
        <ele>214</ele>
        <time>2015-06-01T12:55:13Z</time>
      </trkpt>
      <trkpt lat="45.2033" lon="5.78313">
        <ele>215</ele>
        <time>2015-06-01T12:55:20Z</time>
      </trkpt>
      <trkpt lat="45.20362" lon="5.78339">
        <ele>215</ele>
        <time>2015-06-01T12:55:26Z</time>
      </trkpt>
      <trkpt lat="45.20417" lon="5.78456">
        <ele>214</ele>
        <time>2015-06-01T12:55:41Z</time>
      </trkpt>
      <trkpt lat="45.20457" lon="5.78644">
        <ele>216</ele>
        <time>2015-06-01T12:56:03Z</time>
      </trkpt>
      <trkpt lat="45.20471" lon="5.787">
        <ele>216</ele>
        <time>2015-06-01T12:56:10Z</time>
      </trkpt>
      <trkpt lat="45.20475" lon="5.78807">
        <ele>216</ele>
        <time>2015-06-01T12:56:25Z</time>
      </trkpt>
      <trkpt lat="45.20474" lon="5.78833">
        <ele>216</ele>
        <time>2015-06-01T12:56:29Z</time>
      </trkpt>
      <trkpt lat="45.20475" lon="5.78884">
        <ele>216</ele>
        <time>2015-06-01T12:56:37Z</time>
      </trkpt>
      <trkpt lat="45.20498" lon="5.78914">
        <ele>217</ele>
        <time>2015-06-01T12:56:45Z</time>
      </trkpt>
      <trkpt lat="45.20502" lon="5.78913">
        <ele>217</ele>
        <time>2015-06-01T12:56:46Z</time>
      </trkpt>
      <trkpt lat="45.20591" lon="5.78876">
        <ele>219</ele>
        <time>2015-06-01T12:57:05Z</time>
      </trkpt>
      <trkpt lat="45.20619" lon="5.78866">
        <ele>219</ele>
        <time>2015-06-01T12:57:10Z</time>
      </trkpt>
      <trkpt lat="45.20666" lon="5.78844">
        <ele>219</ele>
        <time>2015-06-01T12:57:17Z</time>
      </trkpt>
      <trkpt lat="45.20712" lon="5.78828">
        <ele>219</ele>
        <time>2015-06-01T12:57:23Z</time>
      </trkpt>
      <trkpt lat="45.20726" lon="5.78829">
        <ele>219</ele>
        <time>2015-06-01T12:57:31Z</time>
      </trkpt>
      <trkpt lat="45.20737" lon="5.78837">
        <ele>219</ele>
        <time>2015-06-01T12:57:36Z</time>
      </trkpt>
      <trkpt lat="45.20745" lon="5.78857">
        <ele>219</ele>
        <time>2015-06-01T12:57:40Z</time>
      </trkpt>
      <trkpt lat="45.20754" lon="5.78892">
        <ele>220</ele>
        <time>2015-06-01T12:57:45Z</time>
      </trkpt>
      <trkpt lat="45.20814" lon="5.79002">
        <ele>224</ele>
        <time>2015-06-01T12:58:04Z</time>
      </trkpt>
      <trkpt lat="45.20873" lon="5.79099">
        <ele>226</ele>
        <time>2015-06-01T12:58:23Z</time>
      </trkpt>
      <trkpt lat="45.20884" lon="5.7911">
        <ele>226</ele>
        <time>2015-06-01T12:58:26Z</time>
      </trkpt>
      <trkpt lat="45.20888" lon="5.79128">
        <ele>226</ele>
        <time>2015-06-01T12:58:29Z</time>
      </trkpt>
      <trkpt lat="45.20904" lon="5.7915">
        <ele>226</ele>
        <time>2015-06-01T12:58:34Z</time>
      </trkpt>
      <trkpt lat="45.20918" lon="5.79187">
        <ele>226</ele>
        <time>2015-06-01T12:58:43Z</time>
      </trkpt>
      <trkpt lat="45.20937" lon="5.7919">
        <ele>226</ele>
        <time>2015-06-01T12:58:48Z</time>
      </trkpt>
      <trkpt lat="45.20987" lon="5.79181">
        <ele>226</ele>
        <time>2015-06-01T12:59:00Z</time>
      </trkpt>
      <trkpt lat="45.21" lon="5.79177">
        <ele>227</ele>
        <time>2015-06-01T12:59:03Z</time>
      </trkpt>
      <trkpt lat="45.21045" lon="5.79183">
        <ele>229</ele>
        <time>2015-06-01T12:59:14Z</time>
      </trkpt>
      <trkpt lat="45.21079" lon="5.79188">
        <ele>230</ele>
        <time>2015-06-01T12:59:22Z</time>
      </trkpt>
      <trkpt lat="45.21112" lon="5.79196">
        <ele>231</ele>
        <time>2015-06-01T12:59:30Z</time>
      </trkpt>
      <trkpt lat="45.21136" lon="5.79231">
        <ele>230</ele>
        <time>2015-06-01T12:59:39Z</time>
      </trkpt>
      <trkpt lat="45.21145" lon="5.79234">
        <ele>230</ele>
        <time>2015-06-01T12:59:42Z</time>
      </trkpt>
      <trkpt lat="45.2115" lon="5.79248">
        <ele>229</ele>
        <time>2015-06-01T12:59:46Z</time>
      </trkpt>
      <trkpt lat="45.21149" lon="5.79321">
        <ele>228</ele>
        <time>2015-06-01T12:59:57Z</time>
      </trkpt>
      <trkpt lat="45.21151" lon="5.79344">
        <ele>228</ele>
        <time>2015-06-01T13:00:00Z</time>
      </trkpt>
      <trkpt lat="45.21166" lon="5.79491">
        <ele>225</ele>
        <time>2015-06-01T13:00:18Z</time>
      </trkpt>
      <trkpt lat="45.21189" lon="5.79655">
        <ele>228</ele>
        <time>2015-06-01T13:00:39Z</time>
      </trkpt>
      <trkpt lat="45.21203" lon="5.79744">
        <ele>228</ele>
        <time>2015-06-01T13:00:51Z</time>
      </trkpt>
      <trkpt lat="45.21209" lon="5.79782">
        <ele>229</ele>
        <time>2015-06-01T13:00:58Z</time>
      </trkpt>
      <trkpt lat="45.2122" lon="5.79781">
        <ele>230</ele>
        <time>2015-06-01T13:01:02Z</time>
      </trkpt>
      <trkpt lat="45.21251" lon="5.79754">
        <ele>230</ele>
        <time>2015-06-01T13:01:09Z</time>
      </trkpt>
      <trkpt lat="45.21337" lon="5.7971">
        <ele>233</ele>
        <time>2015-06-01T13:01:28Z</time>
      </trkpt>
      <trkpt lat="45.21341" lon="5.79708">
        <ele>233</ele>
        <time>2015-06-01T13:01:29Z</time>
      </trkpt>
      <trkpt lat="45.21356" lon="5.79709">
        <ele>233</ele>
        <time>2015-06-01T13:01:32Z</time>
      </trkpt>
      <trkpt lat="45.21375" lon="5.79696">
        <ele>234</ele>
        <time>2015-06-01T13:01:37Z</time>
      </trkpt>
      <trkpt lat="45.21396" lon="5.79707">
        <ele>234</ele>
        <time>2015-06-01T13:01:44Z</time>
      </trkpt>
      <trkpt lat="45.21407" lon="5.79719">
        <ele>234</ele>
        <time>2015-06-01T13:01:49Z</time>
      </trkpt>
      <trkpt lat="45.21411" lon="5.79726">
        <ele>235</ele>
        <time>2015-06-01T13:02:02Z</time>
      </trkpt>
      <trkpt lat="45.21409" lon="5.79738">
        <ele>235</ele>
        <time>2015-06-01T13:02:29Z</time>
      </trkpt>
      <trkpt lat="45.21408" lon="5.79735">
        <ele>235</ele>
        <time>2015-06-01T13:02:55Z</time>
      </trkpt>
      <trkpt lat="45.21384" lon="5.79762">
        <ele>235</ele>
        <time>2015-06-01T13:03:48Z</time>
      </trkpt>
      <trkpt lat="45.21382" lon="5.79763">
        <ele>235</ele>
        <time>2015-06-01T13:04:07Z</time>
      </trkpt>
      <trkpt lat="45.21375" lon="5.79761">
        <ele>234</ele>
        <time>2015-06-01T13:04:54Z</time>
      </trkpt>
      <trkpt lat="45.21375" lon="5.79761">
        <ele>234</ele>
        <time>2015-06-01T13:25:18Z</time>
      </trkpt>
      <trkpt lat="45.21375" lon="5.79761">
        <ele>234</ele>
        <time>2015-06-01T13:25:19Z</time>
      </trkpt>
      <trkpt lat="45.21375" lon="5.79761">
        <ele>234</ele>
        <time>2015-06-01T13:25:20Z</time>
      </trkpt>
    </trkseg>
  </trk>
</gpx>